[[{"header":{"parameterUnit":"m.s-1","parameterCategory":1,"la1":30.6,"la2":29.2853,"lo1":-89.7004,"lo2":-87.6739,"dy":0.0162,"dx":0.0183,"nx":112,"ny":82,"refTime":"2026-03-11T12:00:00:Z","depth":0,"parameterNumber":2,"parameterNumberName":"U-component_of_WINDS"},"data":[0.0,0.0,0.0,0.0,0.0,0.0,0.0,0.0,0.0,0.0,0.0,0.0,0.0,0.0,0.0,0.0,0.0,0.0,0.0,0.0,0.0,0.0,0.0,0.0,0.0,0.0,0.0,0.0,0.0,0.0,0.0,0.0,0.0,0.0,0.0,0.0,0.0,0.0,0.0,0.0,0.0,0.0,0.0,0.0,0.0,0.0,0.0,0.0,0.0,0.0,0.0,0.0,0.0,0.0,0.0,0.0,0.0,0.0,0.0,0.0,0.0,0.0,0.0,0.0,0.0,0.0,0.0,0.0,0.0,0.0,0.0,0.0,0.0,0.0,0.0,0.0,0.0,0.0,0.0,0.0,0.0,0.0,0.0,0.0,0.0,0.0,0.0,0.0,0.0,0.0,-2.0125,-2.2794,-2.448,-2.5279,-2.4977,-2.423,-2.3008,-2.1142,0.0,0.0,0.0,0.0,0.0,0.0,0.0,0.0,0.0,0.0,0.0,0.0,0.0,0.0,0.0,0.0,0.0,0.0,0.0,0.0,0.0,0.0,0.0,0.0,0.0,0.0,0.0,0.0,0.0,0.0,0.0,0.0,0.0,0.0,0.0,0.0,0.0,0.0,0.0,0.0,0.0,0.0,0.0,0.0,0.0,0.0,0.0,0.0,0.0,0.0,0.0,0.0,0.0,0.0,0.0,0.0,0.0,0.0,0.0,0.0,0.0,0.0,0.0,0.0,0.0,0.0,0.0,0.0,0.0,0.0,0.0,0.0,0.0,0.0,0.0,0.0,0.0,0.0,0.0,0.0,0.0,0.0,0.0,0.0,0.0,0.0,0.0,0.0,0.0,0.0,0.0,0.0,0.0,0.0,0.0,0.0,0.0,0.0,0.0,0.0,0.0,0.0,0.0,0.0,-2.0331,-2.3566,-2.4812,-2.5094,-2.4322,-2.3973,-2.3042,-2.1282,0.0,0.0,0.0,0.0,0.0,0.0,0.0,0.0,0.0,0.0,0.0,0.0,0.0,0.0,0.0,0.0,0.0,0.0,0.0,0.0,0.0,0.0,0.0,0.0,0.0,0.0,0.0,0.0,0.0,0.0,0.0,0.0,0.0,0.0,0.0,0.0,0.0,0.0,0.0,0.0,0.0,0.0,0.0,0.0,0.0,0.0,0.0,0.0,0.0,0.0,0.0,0.0,0.0,0.0,0.0,0.0,0.0,0.0,0.0,0.0,0.0,0.0,0.0,0.0,0.0,0.0,0.0,0.0,0.0,0.0,0.0,0.0,0.0,0.0,0.0,0.0,0.0,0.0,0.0,0.0,0.0,0.0,0.0,0.0,0.0,0.0,0.0,0.0,0.0,0.0,0.0,0.0,0.0,0.0,0.0,0.0,0.0,0.0,0.0,0.0,0.0,0.0,0.0,-1.996,-2.1439,-2.3887,-2.4894,-2.505,-2.4167,-2.3587,-2.2704,-2.1379,-1.9229,0.0,0.0,0.0,0.0,0.0,0.0,0.0,0.0,0.0,0.0,0.0,0.0,0.0,0.0,0.0,0.0,0.0,0.0,0.0,0.0,0.0,0.0,0.0,0.0,0.0,0.0,0.0,0.0,0.0,0.0,0.0,0.0,0.0,0.0,0.0,0.0,0.0,0.0,0.0,0.0,0.0,0.0,0.0,0.0,0.0,0.0,0.0,0.0,0.0,0.0,0.0,0.0,0.0,0.0,0.0,0.0,0.0,0.0,0.0,0.0,0.0,0.0,0.0,0.0,0.0,0.0,0.0,0.0,0.0,0.0,0.0,0.0,0.0,0.0,0.0,0.0,0.0,0.0,0.0,0.0,0.0,0.0,0.0,0.0,0.0,0.0,0.0,0.0,0.0,0.0,0.0,0.0,0.0,0.0,0.0,0.0,0.0,0.0,0.0,0.0,0.0,0.0,-2.1201,-2.2548,-2.4034,-2.4752,-2.4754,-2.388,-2.2838,-2.1805,-2.0862,-1.8614,0.0,0.0,0.0,0.0,0.0,0.0,0.0,0.0,0.0,0.0,0.0,0.0,0.0,0.0,0.0,0.0,0.0,0.0,0.0,0.0,0.0,0.0,0.0,0.0,0.0,0.0,0.0,0.0,0.0,0.0,0.0,0.0,0.0,0.0,0.0,0.0,0.0,0.0,0.0,0.0,0.0,0.0,0.0,0.0,0.0,0.0,0.0,0.0,0.0,0.0,0.0,0.0,0.0,0.0,0.0,0.0,0.0,0.0,0.0,0.0,0.0,0.0,0.0,0.0,0.0,0.0,0.0,0.0,0.0,0.0,0.0,0.0,0.0,0.0,0.0,0.0,0.0,0.0,0.0,0.0,0.0,0.0,0.0,0.0,0.0,0.0,0.0,0.0,0.0,0.0,0.0,0.0,0.0,0.0,0.0,0.0,0.0,0.0,0.0,0.0,0.0,0.0,-2.1301,-2.3167,-2.4092,-2.4242,-2.3925,-2.3056,-2.144,-2.0085,-1.9135,-1.7455,0.0,0.0,0.0,0.0,0.0,0.0,0.0,0.0,0.0,0.0,0.0,0.0,0.0,0.0,0.0,0.0,0.0,0.0,0.0,0.0,0.0,0.0,0.0,0.0,0.0,0.0,0.0,0.0,0.0,0.0,0.0,0.0,0.0,0.0,0.0,0.0,0.0,0.0,0.0,0.0,0.0,0.0,0.0,0.0,0.0,0.0,0.0,0.0,0.0,0.0,0.0,0.0,0.0,0.0,0.0,0.0,0.0,0.0,0.0,0.0,0.0,0.0,0.0,0.0,0.0,0.0,0.0,0.0,0.0,0.0,0.0,0.0,0.0,0.0,0.0,0.0,0.0,0.0,0.0,0.0,0.0,0.0,0.0,0.0,0.0,0.0,0.0,0.0,0.0,0.0,0.0,0.0,0.0,0.0,0.0,0.0,0.0,0.0,0.0,0.0,0.0,0.0,-2.0882,-2.2462,-2.3299,-2.3887,-2.3624,-2.2207,-2.1497,-2.0504,-1.9043,0.0,0.0,0.0,0.0,0.0,0.0,0.0,0.0,0.0,0.0,0.0,0.0,0.0,0.0,0.0,0.0,0.0,0.0,0.0,0.0,0.0,0.0,0.0,0.0,0.0,0.0,0.0,0.0,0.0,0.0,0.0,0.0,0.0,0.0,0.0,0.0,0.0,0.0,0.0,0.0,0.0,0.0,0.0,0.0,0.0,0.0,0.0,0.0,0.0,0.0,0.0,0.0,0.0,0.0,0.0,0.0,0.0,0.0,0.0,0.0,0.0,0.0,0.0,0.0,0.0,0.0,0.0,0.0,0.0,0.0,0.0,0.0,0.0,0.0,0.0,0.0,0.0,0.0,0.0,0.0,0.0,0.0,0.0,0.0,0.0,0.0,0.0,0.0,0.0,0.0,0.0,0.0,0.0,0.0,0.0,0.0,0.0,0.0,0.0,0.0,0.0,0.0,-1.8537,-2.0451,-2.1917,-2.2465,-2.3051,-2.2924,-2.1726,-2.0862,-1.9899,-1.8683,0.0,0.0,0.0,0.0,0.0,0.0,0.0,0.0,0.0,0.0,0.0,0.0,0.0,0.0,0.0,0.0,0.0,0.0,0.0,0.0,0.0,0.0,0.0,0.0,0.0,0.0,0.0,0.0,0.0,0.0,0.0,0.0,0.0,0.0,0.0,0.0,0.0,0.0,0.0,0.0,0.0,0.0,0.0,0.0,0.0,0.0,0.0,0.0,0.0,0.0,0.0,0.0,0.0,0.0,0.0,0.0,0.0,0.0,0.0,0.0,0.0,0.0,0.0,0.0,0.0,0.0,0.0,0.0,0.0,0.0,0.0,0.0,0.0,0.0,0.0,0.0,0.0,0.0,0.0,0.0,0.0,0.0,0.0,0.0,0.0,0.0,0.0,0.0,0.0,0.0,0.0,0.0,0.0,0.0,0.0,0.0,0.0,0.0,0.0,0.0,0.0,0.0,-1.7788,-2.0125,-2.1681,-2.1685,-2.1682,-2.1698,-2.1669,-1.9305,-1.781,0.0,0.0,0.0,0.0,0.0,0.0,0.0,0.0,0.0,0.0,0.0,0.0,0.0,0.0,0.0,0.0,0.0,0.0,0.0,0.0,0.0,0.0,0.0,0.0,0.0,0.0,0.0,0.0,0.0,0.0,0.0,0.0,0.0,0.0,0.0,0.0,0.0,0.0,0.0,0.0,0.0,0.0,0.0,0.0,0.0,0.0,0.0,0.0,0.0,0.0,0.0,0.0,0.0,0.0,0.0,0.0,0.0,0.0,0.0,0.0,0.0,0.0,0.0,0.0,0.0,0.0,0.0,0.0,0.0,0.0,0.0,0.0,0.0,0.0,0.0,0.0,0.0,0.0,0.0,0.0,0.0,0.0,0.0,0.0,0.0,0.0,0.0,0.0,0.0,0.0,0.0,0.0,0.0,0.0,0.0,0.0,0.0,0.0,0.0,0.0,0.0,0.0,0.0,-1.7709,-1.9595,-2.0784,-2.0776,-2.1332,-2.1193,-1.997,-1.9157,-1.8219,-1.702,0.0,0.0,0.0,0.0,0.0,0.0,0.0,0.0,0.0,0.0,0.0,0.0,0.0,0.0,0.0,0.0,0.0,0.0,0.0,0.0,0.0,0.0,0.0,0.0,0.0,0.0,0.0,0.0,0.0,0.0,0.0,0.0,0.0,0.0,0.0,0.0,0.0,0.0,0.0,0.0,0.0,0.0,0.0,0.0,0.0,0.0,0.0,0.0,0.0,0.0,0.0,0.0,0.0,0.0,0.0,0.0,0.0,0.0,0.0,0.0,0.0,0.0,0.0,0.0,0.0,0.0,0.0,0.0,0.0,0.0,0.0,0.0,0.0,0.0,0.0,0.0,0.0,0.0,0.0,0.0,0.0,0.0,0.0,0.0,0.0,0.0,0.0,0.0,0.0,0.0,0.0,0.0,0.0,0.0,0.0,0.0,0.0,0.0,0.0,0.0,0.0,0.0,-1.7683,-1.9093,-2.0058,-2.0404,-2.0906,-2.067,-1.9262,-1.8817,-1.7898,-1.6192,0.0,0.0,0.0,0.0,0.0,0.0,0.0,0.0,0.0,0.0,0.0,0.0,0.0,0.0,0.0,0.0,0.0,0.0,0.0,0.0,0.0,0.0,0.0,0.0,0.0,0.0,0.0,0.0,0.0,0.0,0.0,0.0,0.0,0.0,0.0,0.0,0.0,0.0,0.0,0.0,0.0,0.0,0.0,0.0,0.0,0.0,0.0,0.0,0.0,0.0,0.0,0.0,0.0,0.0,0.0,0.0,0.0,0.0,0.0,0.0,0.0,0.0,0.0,0.0,0.0,0.0,0.0,0.0,0.0,0.0,0.0,0.0,0.0,0.0,0.0,0.0,0.0,0.0,0.0,0.0,0.0,0.0,0.0,0.0,0.0,0.0,0.0,0.0,0.0,0.0,0.0,0.0,0.0,0.0,0.0,0.0,0.0,0.0,0.0,0.0,0.0,0.0,-1.7549,-1.8522,-1.93,-2.0176,-2.0254,-1.9919,-1.9033,-1.8237,-1.7085,-1.5418,0.0,0.0,0.0,0.0,0.0,0.0,0.0,0.0,0.0,0.0,0.0,0.0,0.0,0.0,0.0,0.0,0.0,0.0,0.0,0.0,0.0,0.0,0.0,0.0,0.0,0.0,0.0,0.0,0.0,0.0,0.0,0.0,0.0,0.0,0.0,0.0,0.0,0.0,0.0,0.0,0.0,0.0,0.0,0.0,0.0,0.0,0.0,0.0,0.0,0.0,0.0,0.0,0.0,0.0,0.0,0.0,0.0,0.0,0.0,0.0,-1.5866,-1.5491,0.0,0.0,0.0,0.0,0.0,0.0,0.0,0.0,0.0,0.0,0.0,0.0,0.0,0.0,0.0,0.0,0.0,0.0,0.0,0.0,0.0,0.0,0.0,0.0,0.0,0.0,0.0,0.0,0.0,0.0,0.0,0.0,0.0,0.0,0.0,0.0,0.0,0.0,0.0,0.0,-1.6635,-1.7121,-1.7547,-1.8361,-1.8458,-1.8126,-1.7306,-1.7053,-1.6506,-1.545,-1.3754,0.0,0.0,0.0,0.0,0.0,0.0,0.0,0.0,0.0,0.0,0.0,0.0,0.0,0.0,0.0,0.0,0.0,0.0,0.0,0.0,0.0,0.0,0.0,0.0,0.0,0.0,0.0,0.0,0.0,0.0,0.0,0.0,0.0,0.0,0.0,0.0,0.0,0.0,0.0,0.0,0.0,0.0,0.0,0.0,0.0,0.0,0.0,0.0,0.0,0.0,0.0,0.0,0.0,0.0,0.0,0.0,0.0,0.0,0.0,-1.6715,-1.6555,0.0,0.0,0.0,0.0,0.0,0.0,0.0,0.0,0.0,0.0,0.0,0.0,0.0,0.0,0.0,0.0,0.0,0.0,0.0,0.0,0.0,0.0,0.0,0.0,0.0,0.0,0.0,0.0,0.0,0.0,0.0,0.0,0.0,0.0,0.0,0.0,0.0,0.0,0.0,0.0,-1.6366,-1.6698,-1.7011,-1.7852,-1.7949,-1.7617,-1.6777,-1.6699,-1.6152,-1.4863,-1.3925,0.0,0.0,0.0,0.0,0.0,0.0,0.0,0.0,0.0,0.0,0.0,0.0,0.0,0.0,0.0,0.0,0.0,0.0,0.0,0.0,0.0,0.0,0.0,0.0,0.0,0.0,0.0,0.0,0.0,0.0,0.0,0.0,0.0,0.0,0.0,0.0,0.0,0.0,0.0,0.0,0.0,0.0,0.0,0.0,0.0,0.0,0.0,0.0,0.0,0.0,0.0,0.0,0.0,-1.775,-1.7769,-1.7688,-1.7687,-1.799,-1.8467,-1.7882,-1.7942,-1.8345,-1.6728,0.0,0.0,0.0,0.0,0.0,0.0,0.0,0.0,0.0,0.0,0.0,0.0,0.0,0.0,0.0,0.0,0.0,0.0,0.0,0.0,0.0,0.0,-1.6417,-1.5762,-1.6159,-1.6121,-1.4087,0.0,0.0,0.0,0.0,0.0,0.0,0.0,0.0,0.0,0.0,0.0,-1.6187,-1.6479,-1.6753,-1.7478,-1.7556,-1.7262,-1.6539,-1.6466,-1.5864,-1.4419,-1.4173,-1.3786,0.0,0.0,0.0,0.0,0.0,0.0,0.0,0.0,0.0,0.0,0.0,0.0,0.0,0.0,0.0,0.0,0.0,0.0,0.0,0.0,0.0,0.0,0.0,0.0,0.0,0.0,0.0,0.0,0.0,0.0,0.0,0.0,-1.4588,-1.5366,0.0,0.0,0.0,0.0,0.0,0.0,0.0,0.0,0.0,0.0,0.0,0.0,0.0,-1.7717,-1.848,-1.9299,-1.9784,-1.9981,-2.0667,-2.063,-1.9955,-1.9955,-2.0011,-2.0057,-1.9285,0.0,-1.8191,-1.6581,0.0,0.0,0.0,0.0,0.0,0.0,0.0,0.0,0.0,0.0,0.0,0.0,0.0,0.0,0.0,0.0,0.0,0.0,0.0,0.0,0.0,0.0,-1.7329,-1.721,-1.7284,-1.7281,-1.703,-1.5288,-1.351,-1.2707,-1.2539,-1.2506,0.0,0.0,0.0,0.0,0.0,0.0,-1.5422,-1.5579,-1.562,-1.5721,-1.5741,-1.5702,-1.5584,-1.5565,-1.5469,-1.5234,-1.4512,-1.4059,-1.3932,-1.3097,0.0,0.0,0.0,0.0,0.0,0.0,0.0,0.0,0.0,0.0,0.0,0.0,0.0,0.0,0.0,0.0,0.0,0.0,0.0,0.0,0.0,0.0,0.0,0.0,0.0,0.0,0.0,0.0,0.0,-1.4346,-1.4831,-1.5615,-1.5403,-1.5245,0.0,0.0,0.0,0.0,0.0,0.0,0.0,0.0,0.0,-1.6307,-1.7859,-1.8895,-1.928,-1.9676,-1.9912,-2.0016,-2.0065,-1.9893,-1.9559,-1.9671,-1.9731,-1.9713,-1.9356,-1.9039,-1.8728,-1.756,-1.7118,-1.7108,0.0,0.0,0.0,0.0,-1.698,-1.6658,-1.715,-1.7044,-1.6591,-1.622,0.0,0.0,0.0,0.0,0.0,0.0,0.0,-1.727,-1.6825,-1.7388,-1.7939,-1.7495,-1.743,-1.7468,-1.753,-1.6693,-1.5555,-1.4296,-1.4072,-1.3811,-1.2856,-1.2688,0.0,0.0,0.0,-1.4354,-1.5237,-1.5336,-1.5333,-1.5283,-1.5283,-1.5287,-1.5294,-1.5318,-1.5339,-1.5339,-1.4989,-1.4542,-1.4053,-1.3214,-1.2566,0.0,0.0,0.0,0.0,0.0,0.0,0.0,0.0,0.0,0.0,0.0,0.0,0.0,0.0,0.0,0.0,0.0,0.0,0.0,0.0,0.0,0.0,0.0,0.0,0.0,0.0,0.0,0.0,-1.4997,-1.5283,-1.6143,-1.6238,-1.6095,0.0,0.0,0.0,0.0,0.0,0.0,-1.6586,-1.7403,-1.7726,-1.7437,-1.877,-1.95,-1.9521,-1.9573,-1.9731,-1.9976,-1.9589,-1.9388,-1.937,-1.9327,-1.9289,-1.9298,-1.9159,-1.9069,-1.8963,-1.8279,-1.8009,-1.7917,-1.7172,-1.69,-1.7051,-1.7911,-1.7837,-1.7403,-1.8029,-1.7862,-1.7349,-1.7317,-1.686,-1.6337,-1.6349,0.0,0.0,0.0,0.0,-1.8444,-1.7832,-1.823,-1.8627,-1.8027,-1.7946,-1.8025,-1.8083,-1.8107,-1.7643,-1.6025,-1.5581,-1.5086,-1.3843,-1.3414,0.0,-1.4279,-1.4347,-1.4545,-1.5187,-1.5267,-1.5258,-1.5217,-1.5195,-1.52,-1.5195,-1.5243,-1.5267,-1.5267,-1.5063,-1.4545,-1.3688,-1.3032,-1.2498,-1.2046,0.0,0.0,0.0,0.0,0.0,0.0,0.0,0.0,0.0,0.0,0.0,0.0,0.0,0.0,0.0,0.0,0.0,0.0,0.0,0.0,0.0,0.0,0.0,0.0,0.0,0.0,0.0,0.0,0.0,-1.7575,-1.7681,0.0,0.0,0.0,0.0,-1.6754,-1.6848,-1.716,-1.7774,-1.864,-1.8704,-1.7794,-1.8534,-1.9052,-1.9306,-1.9317,-1.9791,-2.0734,-2.072,-2.0703,-2.0685,-1.9917,-1.9583,-1.9558,-1.9044,-1.8714,-1.852,-1.8159,-1.7879,-1.7663,-1.7031,-1.6693,-1.6653,-1.765,-1.7953,-1.7886,-1.8046,-1.8075,-1.8024,-1.7906,-1.7835,-1.7786,-1.7788,-1.7885,0.0,0.0,-1.8642,-1.9335,-1.9298,-1.9402,-1.9521,-1.9484,-1.9582,-1.9676,-1.9682,-1.9722,-1.9306,-1.7694,-1.6776,-1.6224,-1.6124,0.0,-1.5086,-1.5133,-1.5141,-1.5165,-1.5206,-1.5206,-1.5204,-1.5204,-1.5204,-1.5204,-1.5204,-1.5204,-1.5206,-1.5206,-1.4422,-1.3578,-1.2713,-1.2687,-1.1918,-1.0257,-1.0892,0.0,0.0,0.0,0.0,0.0,0.0,0.0,0.0,0.0,0.0,0.0,0.0,0.0,0.0,0.0,0.0,0.0,0.0,0.0,0.0,0.0,0.0,0.0,0.0,0.0,0.0,0.0,0.0,-1.8286,-1.8445,0.0,-1.8,-1.7778,-1.7958,-1.8682,-1.8345,-1.8407,-1.9093,-1.9411,-1.9441,-1.9097,-1.9374,-1.9613,-1.976,-1.9273,-1.9224,-1.9573,-1.923,-1.9041,-1.8981,-1.8881,-1.881,-1.8755,-1.8553,-1.8438,-1.8353,-1.8247,-1.8206,-1.8179,-1.7977,-1.7853,-1.7834,-1.8145,-1.8297,-1.836,-1.8404,-1.85,-1.8603,-1.8566,-1.8532,-1.8533,-1.8543,-1.8586,-1.8501,-1.7942,-1.8441,-1.9014,-1.851,-1.8851,-1.9338,-1.9342,-1.901,-1.8728,-1.8761,-1.8788,-1.8653,-1.8178,-1.751,-1.6841,-1.6314,-1.5543,-1.5034,-1.5124,-1.5146,-1.4929,-1.4376,-1.4303,-1.4293,-1.4306,-1.4303,-1.4514,-1.5033,-1.4554,-1.4235,-1.4235,-1.3389,-1.2496,-1.1677,-1.1664,-1.1352,-1.0687,-1.0445,-1.0442,0.0,0.0,0.0,0.0,0.0,0.0,0.0,0.0,0.0,0.0,0.0,0.0,0.0,0.0,0.0,0.0,0.0,0.0,0.0,0.0,0.0,0.0,0.0,0.0,0.0,-1.6979,-1.7395,-1.8637,-1.9016,-1.9042,-1.8762,-1.8755,-1.9007,-1.9581,-1.9406,-1.9425,-1.9783,-2.0063,-1.9976,-1.9454,-1.9492,-1.9429,-1.9189,-1.8709,-1.8463,-1.8463,-1.8098,-1.7915,-1.7871,-1.804,-1.811,-1.8072,-1.8163,-1.8152,-1.8072,-1.8173,-1.8194,-1.8215,-1.8368,-1.8396,-1.8325,-1.8365,-1.8428,-1.8473,-1.8275,-1.8146,-1.8082,-1.8046,-1.8011,-1.7976,-1.7915,-1.7915,-1.7835,-1.7284,-1.7601,-1.8006,-1.7473,-1.8021,-1.8661,-1.8401,-1.8195,-1.8005,-1.779,-1.7737,-1.7752,-1.7844,-1.7744,-1.7396,-1.6671,-1.5814,-1.5184,-1.4983,-1.4964,-1.4668,-1.3808,-1.3675,-1.3667,-1.367,-1.3666,-1.399,-1.4791,-1.4341,-1.4,-1.4,-1.2915,-1.2018,-1.146,-1.1184,-1.1009,-1.0978,-1.0653,-1.0639,-1.0854,0.0,0.0,0.0,0.0,0.0,0.0,0.0,0.0,0.0,0.0,0.0,0.0,0.0,0.0,0.0,0.0,0.0,0.0,0.0,0.0,0.0,0.0,0.0,-1.7517,-1.7584,-1.778,-1.872,-1.9447,-1.9305,-1.7825,-1.902,-1.9757,-1.9381,-2.0011,-2.0233,-1.982,-2.0548,-2.0247,-1.8721,-1.8746,-1.8382,-1.7577,-1.7589,-1.7601,-1.7589,-1.7601,-1.7601,-1.7601,-1.7601,-1.7601,-1.7612,-1.7867,-1.7833,-1.7612,-1.7884,-1.7822,-1.7647,-1.8103,-1.8152,-1.8016,-1.8187,-1.828,-1.8188,-1.7602,-1.6991,-1.6488,-1.6345,-1.6235,-1.615,-1.5966,-1.5984,-1.6098,-1.6132,-1.6269,-1.6375,-1.6364,-1.7056,-1.7547,-1.6778,-1.7274,-1.7691,-1.6913,-1.6755,-1.6755,-1.6755,-1.744,-1.7856,-1.7267,-1.6425,-1.5585,-1.4809,-1.4683,0.0,-1.356,-1.3398,-1.3368,-1.3368,-1.3368,-1.3701,-1.4534,-1.4566,-1.4548,-1.4511,-1.3026,-1.2127,-1.2064,-1.1298,-1.0879,-1.0869,-1.1496,-1.1407,-1.0545,0.0,0.0,0.0,0.0,0.0,0.0,0.0,0.0,0.0,0.0,0.0,0.0,0.0,0.0,0.0,0.0,0.0,0.0,0.0,0.0,0.0,-1.5625,-1.6442,-1.7577,-1.8076,-1.862,-1.9356,-1.9634,-1.9674,-1.9507,-1.9882,-2.0188,-2.0369,-2.0575,-2.0431,-1.9832,-2.0008,-1.9475,-1.8022,-1.8228,-1.7911,-1.6952,-1.7384,-1.7507,-1.7313,-1.7519,-1.7566,-1.7536,-1.7536,-1.7524,-1.7517,-1.7604,-1.7592,-1.7517,-1.7604,-1.7592,-1.7557,-1.7726,-1.776,-1.7704,-1.7715,-1.7816,-1.7868,-1.7302,-1.701,-1.6769,-1.6202,-1.6002,-1.5975,-1.593,-1.5922,-1.5844,-1.5323,-1.5601,-1.5941,-1.549,-1.5962,-1.6534,-1.6414,-1.6134,-1.5811,-1.5556,-1.5528,-1.5574,-1.5637,-1.622,-1.6594,-1.6176,-1.5434,-1.4814,-1.46,-1.4542,-1.4053,-1.265,-1.2465,-1.247,-1.247,-1.247,-1.3024,-1.4415,-1.3945,-1.3338,-1.2742,-1.1656,-1.1039,-1.1002,-1.071,-1.0489,-1.0382,-1.0059,-0.9751,0.0,0.0,0.0,0.0,0.0,0.0,0.0,0.0,0.0,0.0,0.0,0.0,0.0,0.0,0.0,0.0,0.0,0.0,0.0,0.0,0.0,0.0,-1.6355,-1.7145,-1.788,-1.8378,-1.8919,-1.9594,-1.969,-1.9782,-1.9962,-1.9997,-2.0154,-2.0529,-2.0296,-1.9892,-1.9372,-1.907,-1.8404,-1.728,-1.7436,-1.7241,-1.6659,-1.7018,-1.7105,-1.6955,-1.7105,-1.7154,-1.7117,-1.7117,-1.7121,-1.7113,-1.7113,-1.7203,-1.7285,-1.7285,-1.7374,-1.7498,0.0,0.0,0.0,0.0,-1.741,-1.7243,-1.6935,-1.6641,-1.6287,-1.5514,-1.5239,-1.516,-1.4755,-1.4679,-1.4639,-1.4238,-1.4478,-1.477,-1.4415,-1.4899,-1.5401,-1.5157,-1.4991,-1.4783,-1.442,-1.4358,-1.4319,-1.4076,-1.4568,0.0,-1.4475,-1.4618,-1.4681,-1.4344,-1.4289,-1.3714,-1.2136,-1.1906,-1.1763,-1.1411,-1.1696,-1.2408,-1.3684,-1.3624,0.0,0.0,0.0,-1.1446,-1.1394,-1.1262,0.0,0.0,0.0,0.0,0.0,0.0,0.0,0.0,-1.038,-1.0399,0.0,0.0,0.0,0.0,0.0,0.0,0.0,0.0,0.0,0.0,0.0,0.0,0.0,0.0,0.0,0.0,-1.6728,-1.7593,-1.8306,-1.8526,-1.8833,-1.95,-1.9632,-1.9672,-1.9672,-1.9672,-1.977,-2.0012,-1.9463,-1.8949,-1.8496,-1.791,0.0,0.0,0.0,-1.653,-1.6517,-1.6541,-1.6567,-1.6557,-1.6583,-1.6596,-1.661,-1.6596,-1.6596,-1.6596,-1.6583,-1.6712,-1.6926,-1.6926,-1.7109,-1.7374,-1.7451,-1.7451,-1.7427,-1.7467,-1.7135,-1.6658,-1.6494,0.0,0.0,-1.4538,-1.4247,-1.4098,-1.3183,-1.298,-1.3087,-1.3149,-1.3252,-1.3345,-1.3362,-1.3905,-1.4247,-1.3556,-1.3922,-1.4264,-1.3531,-1.3378,-1.3207,-1.262,-1.2967,-1.3239,-1.2746,-1.3978,-1.4793,-1.4083,-1.3988,-1.3431,-1.1984,-1.1728,-1.141,-1.0691,-1.1252,0.0,-1.2803,-1.3521,-1.3855,-1.3631,-1.2994,-1.2554,-1.2417,-1.2264,-1.2434,-1.2958,-1.2831,-1.2252,-1.1247,-1.1335,-1.0968,-1.0219,-1.0809,-1.0975,0.0,0.0,0.0,0.0,0.0,0.0,0.0,0.0,0.0,0.0,0.0,0.0,0.0,0.0,0.0,-1.6551,-1.6894,-1.7334,-1.8347,-1.856,-1.8806,-1.9362,-1.945,-1.9468,-1.9468,-1.9468,-1.9301,-1.8939,-1.8792,-1.8243,-1.7136,-1.6955,-1.6607,-1.5971,-1.6109,-1.6123,-1.597,-1.6285,-1.6378,-1.6285,-1.6448,0.0,-1.661,-1.6541,-1.6528,-1.6528,-1.6459,-1.6472,-1.6525,-1.6525,-1.6552,-1.6657,-1.7154,-1.7179,-1.6959,-1.7183,-1.7211,-1.6988,-1.5808,-1.5693,-1.577,-1.382,-1.3571,-1.3907,-1.3146,-1.2917,0.0,-1.2953,-1.298,-1.3025,-1.3131,-1.3266,-1.3384,-1.3329,-1.343,-1.3498,-1.3278,-1.3278,-1.3261,-1.3084,-1.316,-1.321,-1.3092,-1.3592,-1.3976,-1.3936,-1.3824,-1.3425,-1.2474,-1.2237,-1.2114,-1.1942,-1.2062,-1.2464,-1.3217,-1.343,-1.3251,-1.2628,-1.2246,-1.1981,-1.186,-1.1677,-1.1586,-1.1591,-1.0985,-1.057,-1.0351,-1.0945,-1.1101,-1.0822,-1.0473,-1.0258,0.0,0.0,0.0,0.0,0.0,0.0,0.0,0.0,0.0,0.0,0.0,-1.4105,-1.4652,0.0,-1.5893,-1.6758,-1.7083,-1.7307,-1.762,-1.7831,-1.83,-1.924,-1.9115,-1.8959,-1.8959,-1.8647,-1.834,-1.8066,-1.7726,-1.7269,-1.6633,-1.6292,-1.5965,-1.5668,-1.5755,-1.574,-1.5653,-1.5854,-1.5924,-1.5854,-1.5953,-1.6023,-1.6051,-1.6009,-1.6009,-1.6009,-1.5952,-1.6036,-1.6172,-1.6322,-1.6284,-1.6147,-1.6581,-1.6686,-1.6617,-1.6753,-1.6818,-1.6744,-1.6015,-1.5962,-1.5954,-1.4185,-1.3818,-1.3891,-1.2828,-1.2494,-1.2504,-1.2578,-1.2598,-1.2626,-1.2757,-1.2792,-1.2817,-1.2885,-1.2904,-1.2887,-1.286,-1.2797,-1.2637,-1.2228,-1.2382,-1.2466,-1.2205,-1.2595,-1.3098,-1.3494,-1.3494,-1.3173,-1.24,-1.2245,-1.2046,-1.1644,-1.1908,-1.2213,-1.2523,-1.2769,-1.2757,-1.242,-1.215,-1.1985,-1.1952,-1.1759,-1.1584,-1.145,-1.1057,-1.0743,-1.051,-1.0873,-1.0955,-1.0738,-1.0434,-1.0456,0.0,0.0,0.0,0.0,0.0,0.0,0.0,0.0,-1.3016,-1.3982,-1.4613,-1.5099,-1.5426,-1.5883,-1.6312,-1.6625,-1.6993,-1.7114,-1.6696,-1.6905,-1.7478,-1.8537,-1.836,-1.8159,-1.8159,-1.7656,-1.7338,-1.7287,-1.6804,-1.6494,-1.651,-1.5993,-1.5684,-1.5684,-1.5683,-1.561,-1.5492,-1.5477,-1.5477,-1.5492,-1.5477,-1.5477,-1.5492,-1.5477,-1.5477,-1.5477,-1.5463,-1.5565,-1.5781,-1.6034,-1.5936,-1.5682,-1.5881,-1.602,-1.6145,-1.6297,-1.6351,-1.6349,-1.6182,-1.6111,-1.584,-1.4467,-1.3999,-1.3724,-1.2444,-1.2061,-1.2071,-1.2179,-1.2226,-1.2246,-1.2353,-1.2373,-1.2373,-1.2373,-1.2373,-1.2373,-1.2373,-1.2256,-1.1974,-1.1366,-1.1597,-1.1759,-1.1329,-1.1758,-1.2345,-1.2947,-1.301,-1.2794,-1.219,-1.209,-1.181,-1.1156,-1.1587,-1.1859,-1.1747,-1.2097,-1.2335,-1.2374,-1.2138,-1.2034,-1.2076,-1.185,-1.1641,-1.1549,-1.1434,-1.1173,-1.0739,-1.0739,-1.0579,-1.0309,-1.0402,-1.0718,-1.0521,-0.9947,-0.9518,-1.0233,-1.0748,-1.1373,0.0,0.0,-1.382,-1.4345,-1.493,-1.5356,-1.5397,-1.5846,-1.6201,-1.6275,-1.6318,-1.6291,-1.6109,-1.6218,-1.6341,-1.6373,-1.669,-1.6905,-1.6905,-1.6834,-1.6732,-1.6528,-1.6443,-1.6445,-1.6508,-1.6419,-1.639,-1.639,-1.6328,-1.6035,-1.5507,-1.5388,-1.5388,-1.5492,-1.5433,-1.5433,-1.5492,-1.5433,-1.5404,-1.5404,-1.5298,-1.5253,-1.5269,-1.5195,-1.512,-1.509,-1.512,-1.5135,-1.524,-1.5882,-1.6177,-1.6124,-1.5406,-1.5191,-1.4985,-1.3521,-1.3092,-1.2985,-1.2169,-1.192,-1.192,-1.193,-1.1941,-1.1941,-1.1951,-1.1977,-1.1977,-1.1977,-1.1977,-1.1977,-1.1977,-1.1941,-1.1915,-1.1829,-1.1864,-1.1868,-1.1814,-1.1885,-1.2051,-1.2427,-1.2394,-1.2273,-1.2201,-1.2025,-1.1882,-1.1795,-1.1861,-1.1882,-1.1871,-1.1927,-1.1962,-1.1972,-1.1775,-1.1656,-1.1681,-1.1256,-1.1003,-1.0991,-1.075,-1.0455,-1.0095,-1.0095,-0.9932,-0.9625,-0.9982,-1.0282,-1.0935,-1.0569,-1.0234,-1.018,-1.0599,-1.1231,-1.1897,-1.2399,-1.3074,-1.4399,-1.4634,-1.4731,-1.5191,-1.522,-1.5228,-1.5459,-1.5262,-1.5094,-1.507,-1.5018,-1.4787,-1.4259,-1.4576,-1.5107,-1.5758,-1.5512,-1.5272,-1.517,-1.5188,-1.5326,-1.5674,-1.5577,-1.5644,-1.5968,-1.5657,-1.5344,-1.5102,-1.4841,-1.4747,-1.4796,-1.498,-1.492,-1.469,-1.486,-1.4891,-1.4814,-1.4797,-1.478,-1.4719,-1.4719,-1.4596,-1.4438,-1.4596,-1.4564,-1.4501,-1.5195,-1.5477,-1.5448,-1.511,-1.4787,-1.4416,-1.3809,-1.3385,-1.3057,-1.2699,-1.2351,-1.2094,-1.2176,-1.1944,-1.1681,-1.1721,-1.1732,-1.1732,-1.1732,-1.1732,-1.1732,-1.1732,-1.1656,-1.1604,-1.1604,-1.1501,-1.1434,-1.1434,-1.1434,-1.1479,-1.163,-1.1852,-1.2035,-1.2035,-1.1951,-1.1893,-1.1854,-1.1775,-1.171,-1.167,-1.1593,-1.1549,-1.1549,-1.129,-1.1129,-1.1129,-1.0604,-1.0322,-1.0322,-1.002,-0.9715,-0.9416,-0.9377,-0.9329,-0.9277,-0.9407,-0.963,-1.0982,-1.0833,-1.0682,-1.0143,-1.0497,-1.1054,-1.1342,-1.1713,-1.245,-1.4013,-1.4102,-1.4104,-1.4668,-1.455,-1.447,-1.4766,-1.4522,-1.428,-1.4162,-1.4032,-1.3684,-1.2957,-1.3138,-1.3668,-1.4487,-1.4269,-1.4124,-1.4238,-1.4238,-1.4563,-1.5302,-1.5043,-1.5119,-1.5661,-1.5128,-1.4756,-1.4576,-1.4351,-1.4222,-1.4222,-1.4449,-1.4401,-1.4068,-1.4326,-1.4374,-1.4294,-1.4326,-1.431,-1.4262,-1.4262,-1.4133,-1.395,-1.4133,-1.4084,-1.3983,-1.4454,-1.4674,-1.4721,-1.4705,-1.4284,-1.3766,-1.375,-1.3388,-1.2926,-1.2802,-1.2411,-1.2012,-1.2038,-1.1624,-1.1175,-1.1227,-1.1239,-1.1239,-1.1239,-1.1239,-1.1239,-1.1239,-1.1161,-1.1108,-1.1108,-1.0977,-1.0883,-1.0883,-1.0883,-1.0883,-1.0883,-1.1216,-1.1516,-1.1652,-1.1673,-1.1634,-1.1516,-1.1415,-1.1302,-1.1175,-1.1071,-1.1013,-1.1013,-1.0801,-1.0631,-1.0544,-1.0034,-0.9688,-0.9623,-0.9297,-0.8989,-0.8698,-0.8637,-0.8624,-0.8627,-0.87,-0.8871,-1.042,-1.0312,-1.0322,-1.0283,-1.0596,-1.1032,-1.158,-1.2006,-1.2436,-1.3025,-1.3458,-1.3723,-1.3735,-1.4049,-1.4309,-1.4313,-1.4321,-1.4128,-1.359,-1.358,-1.3399,-1.2876,-1.2873,-1.2925,-1.2973,-1.3306,-1.3698,-1.4081,-1.4114,-1.4644,-1.591,-1.5409,-1.5337,-1.586,-1.5238,-1.4623,-1.4032,-1.4016,-1.4016,-1.4016,-1.4019,-1.4016,-1.4,-1.4016,-1.4019,-1.4016,-1.395,-1.3917,-1.3917,-1.3785,-1.3719,-1.3702,-1.3719,-1.3719,-1.3702,-1.3719,-1.3868,-1.4019,-1.3967,-1.3504,-1.2924,-1.2857,-1.2599,-1.2283,-1.2022,-1.1744,-1.1469,-1.1201,-1.0743,-1.0347,-1.0334,-1.0334,-1.0334,-1.0334,-1.0334,-1.0334,-1.0334,-1.0347,-1.0335,-1.0335,-1.0335,-1.0323,-1.0323,-1.0323,-1.0323,-1.0323,-1.0334,-1.0544,-1.1062,-1.112,-1.1027,-1.0753,-1.0729,-1.0619,-1.036,-1.0335,-1.0335,-1.0335,-1.0323,-1.0197,-0.9945,-0.9544,-0.9187,-0.8931,-0.8595,-0.8259,-0.7941,-0.7933,-0.7769,-0.7459,-0.7858,-0.7992,-1.0136,-1.0127,-1.0166,-1.0166,-1.0351,-1.0548,-1.0725,-1.0875,-1.1206,-1.2001,-1.2,-1.2038,-1.2653,-1.2588,-1.2647,-1.3264,-1.3068,-1.2991,-1.3431,-1.321,-1.2938,-1.2757,-1.2762,-1.2768,-1.2768,-1.2978,-1.3156,-1.3297,-1.3297,-1.3826,-1.5012,-1.4404,-1.445,-1.5346,-1.4449,-1.3864,-1.3682,-1.3399,-1.3263,-1.3263,-1.3242,-1.3331,-1.3539,-1.3263,-1.3224,-1.3408,-1.3433,-1.3399,-1.3374,-1.3365,-1.3242,-1.3052,-1.322,-1.3185,-1.3064,-1.3237,-1.3237,-1.3207,-1.3619,-1.3356,-1.2842,-1.286,-1.2758,-1.2629,-1.2572,-1.2226,-1.1809,-1.1723,-1.0896,-1.0084,-1.0247,-0.9995,-0.9754,-0.9983,-0.9868,-0.9689,-0.9638,-0.9638,-0.9624,-0.9585,-0.9572,-0.9572,-0.9572,-0.9572,-0.9572,-0.9572,-0.9983,-1.0372,-1.0544,-1.0569,-1.0532,-1.0434,-1.0422,-1.0285,-0.9932,-0.9906,-0.9805,-0.9585,-0.9402,-0.927,-0.9177,-0.8646,-0.8333,-0.8234,-0.7734,-0.7495,-0.7564,-0.7307,-0.7365,-0.7729,-0.7741,-0.7862,-0.9941,-1.0039,-1.0069,-1.0069,-1.0127,-1.0186,-1.0225,-1.0225,-1.041,-1.1064,-1.1046,-1.1086,-1.169,-1.1629,-1.1708,-1.2302,-1.2228,-1.2265,-1.2719,-1.2734,-1.2656,-1.2502,-1.2621,-1.2709,-1.2709,-1.2785,-1.2838,-1.2873,-1.2873,-1.3282,-1.4265,-1.3633,-1.3639,-1.4538,-1.3684,-1.3207,-1.3207,-1.296,-1.2768,-1.2615,-1.2561,-1.2585,-1.2649,-1.2389,-1.2377,-1.2526,-1.2573,-1.2573,-1.2526,-1.2573,-1.2467,-1.2294,-1.2455,-1.2419,-1.2294,-1.2455,-1.2419,-1.2342,-1.2736,-1.2622,-1.2273,-1.2171,-1.2079,-1.2027,-1.2109,-1.1712,-1.1184,-1.1067,-1.0255,-0.9466,-0.9597,-0.9349,-0.9137,-0.9322,-0.9202,-0.9043,-0.8989,-0.8975,-0.8962,-0.8919,-0.8919,-0.8919,-0.8919,-0.8919,-0.8919,-0.8919,-0.9308,-0.9688,-0.9894,-0.9906,-0.9868,-0.9779,-0.9766,-0.9611,-0.927,-0.923,-0.9205,-0.9128,-0.8828,-0.8667,-0.8689,-0.8045,-0.7642,-0.7549,-0.7017,-0.6889,-0.7156,-0.6862,-0.6914,-0.7277,-0.7165,-0.712,-0.9852,-0.9999,-1.0028,-0.999,-1.0,-1.0019,-1.0088,-1.0088,-1.0137,-1.0235,-1.0562,-1.0848,0.0,0.0,-1.1442,-1.146,-1.1774,-1.1913,-1.1567,-1.2161,-1.2484,-1.2095,-1.2395,-1.2639,-1.2639,-1.2639,-1.2662,-1.2733,-1.2768,-1.3082,-1.3717,-1.3125,-1.301,-1.3544,-1.2957,-1.2656,-1.2674,-1.2674,-1.2484,-1.2095,-1.2077,-1.1866,-1.1497,-1.1497,-1.1497,-1.1497,-1.1497,-1.1497,-1.1497,-1.1497,-1.1497,-1.1497,-1.1497,-1.1497,-1.1497,-1.1497,-1.1497,-1.1458,-1.1359,-1.1342,-1.1308,-1.0898,-1.067,-1.0596,-1.0681,-1.0284,-0.9711,-0.9402,-0.8967,-0.8577,-0.8474,-0.8478,-0.846,-0.8414,-0.8375,-0.8354,-0.834,-0.834,-0.8351,-0.8372,-0.8368,-0.8358,-0.8326,-0.8312,-0.8312,-0.8298,-0.8305,-0.8509,-0.9083,-0.9163,-0.907,-0.8833,-0.8805,-0.8703,-0.8446,-0.8428,-0.8579,-0.8921,-0.8574,-0.8389,-0.8424,-0.7693,-0.7176,-0.6907,-0.6517,-0.6426,-0.668,-0.6585,-0.6392,-0.6139,-0.6136,-0.5824,-0.9816,-1.0026,-1.0236,-0.9937,-0.9921,-1.0,-1.0019,-1.0039,-0.9953,-0.9686,-0.9954,-1.005,-0.9443,-0.9955,-1.0534,-1.0783,-1.0954,-1.121,-1.1657,-1.1686,-1.1616,-1.1523,-1.1682,-1.1811,-1.1811,-1.1811,-1.1811,-1.1829,-1.2383,-1.2836,-1.3118,-1.2592,-1.2527,-1.3061,-1.2256,-1.1938,-1.224,-1.224,-1.2204,-1.2095,-1.1792,-1.1608,-1.1497,-1.1497,-1.1497,-1.1497,-1.1497,-1.1497,-1.1497,-1.1497,-1.1497,-1.1497,-1.1497,-1.1431,-1.1356,-1.1356,-1.1319,-1.118,-1.0512,-1.0573,-1.0865,-1.0365,-1.025,-1.0218,-0.9805,-0.9563,-0.9462,-0.9632,-0.9119,-0.8644,-0.9166,-0.875,-0.8251,-0.843,-0.8094,-0.7715,-0.7666,-0.7652,-0.7719,-0.7909,-0.796,-0.7794,-0.7301,-0.7216,-0.7127,-0.6867,-0.7009,-0.7491,-0.8474,-0.8598,-0.8698,-0.8929,-0.8946,-0.8929,-0.8856,-0.8854,-0.8632,-0.8143,-0.8002,-0.7807,-0.7464,-0.7268,-0.7117,-0.7056,-0.6655,-0.641,-0.6326,-0.5851,-0.5546,-0.5387,-0.5275,-0.5096,-1.023,-1.0287,-1.031,-1.0088,-0.9943,-0.9825,-0.9677,-0.9789,-0.9808,-0.9478,-0.9715,-0.9801,-0.9182,-0.961,-1.0108,-1.0322,-1.0665,-1.1004,-1.1247,-1.1431,-1.1506,-1.1362,-1.1429,-1.1566,-1.1716,-1.158,-1.1404,-1.1169,-1.1792,-1.2222,-1.2291,-1.2005,-1.1971,-1.2272,-1.1771,-1.1608,-1.1829,-1.1829,-1.1756,-1.1571,-1.1348,-1.1142,-1.0973,-1.0916,-1.0897,-1.0878,-1.084,-1.0737,-1.059,-1.0768,-1.0622,-1.0291,-1.0472,-1.0495,-1.0418,-1.0418,-1.0524,-1.06,-1.0113,-1.0024,-1.0059,-0.9589,-0.9361,-0.9218,-0.887,-0.8772,-0.8803,-0.8963,-0.8809,-0.8665,-0.9027,-0.8565,-0.8038,-0.8161,-0.775,-0.7317,-0.7268,-0.7268,-0.732,-0.7459,-0.7501,-0.7383,-0.7,-0.6926,-0.6869,-0.6679,-0.6685,-0.6942,-0.7577,-0.7656,-0.7863,-0.8425,-0.8188,-0.8115,-0.8442,-0.8296,-0.8052,-0.778,-0.7587,-0.738,-0.7155,-0.6841,-0.6515,-0.618,-0.5803,-0.5561,-0.5408,-0.5059,-0.4803,-0.4606,-0.4532,-0.4315,-1.0799,-1.0652,-1.0376,-1.03,-0.9997,-0.9603,-0.9264,-0.9496,-0.9692,-0.9347,-0.9639,-0.9809,-0.928,-0.9564,-0.9914,-0.9961,-1.0517,-1.0872,-1.0749,-1.1246,-1.1528,-1.1308,-1.1283,-1.1416,-1.1704,-1.1471,-1.1124,-1.0639,-1.1048,-1.133,-1.1386,-1.1404,-1.1404,-1.1348,-1.1386,-1.1423,-1.1423,-1.1423,-1.1255,-1.0897,-1.085,-1.064,-1.0303,-1.0157,-1.005,-0.9954,-0.9895,-0.962,-0.9263,-0.9618,-0.9341,-0.8725,-0.9088,-0.9199,-0.9199,-0.9199,-0.9448,-0.9783,-0.9783,-0.9503,-0.9115,-0.8859,-0.8513,-0.8165,-0.8091,-0.8075,-0.8061,-0.7986,-0.8245,-0.8555,-0.8495,-0.8166,-0.7866,-0.7803,-0.743,-0.7111,-0.7111,-0.7142,-0.7165,-0.7119,-0.7142,-0.7139,-0.7047,-0.7039,-0.7021,-0.6967,-0.678,-0.6655,-0.6655,-0.6641,-0.6906,-0.7592,-0.7086,-0.6985,-0.7716,-0.739,-0.7297,-0.7583,-0.7224,-0.6994,-0.6956,-0.6296,-0.5631,-0.4999,-0.4689,-0.4464,-0.4345,-0.4315,-0.4125,-0.379,-0.379,-0.3467,-1.0971,-1.0855,-1.0726,-1.0373,-0.9997,-0.9592,-0.9198,-0.9438,0.0,0.0,-0.9235,-0.941,-0.8288,-0.8762,-0.9432,-0.9697,-0.9647,-0.9978,-1.1167,-1.0653,-1.0278,-1.0539,-1.0397,-1.0273,-1.0351,-1.0293,-1.0225,-1.0137,-1.0205,-1.0428,-1.081,-1.0935,-1.084,-1.0525,-1.0831,-1.0992,-1.0992,-1.0992,-1.0973,-1.0897,-1.0563,-1.038,-1.0303,-1.0157,-0.9772,-0.9198,-0.9113,-0.8833,-0.8423,-0.8483,-0.8585,-0.8713,-0.8772,-0.8736,-0.8635,-0.8635,-0.8614,-0.8602,-0.8602,-0.8541,-0.8547,-0.9031,-0.8932,-0.8507,-0.8068,-0.7939,-0.7904,-0.7795,-0.7813,-0.7946,-0.8253,-0.803,-0.7741,-0.7722,-0.7404,-0.7111,-0.7111,-0.7365,-0.7492,-0.7165,-0.7365,-0.7409,-0.6786,-0.6731,-0.6629,-0.6251,-0.6338,-0.644,-0.6375,-0.6368,-0.6506,-0.6849,-0.6783,-0.6954,-0.7583,-0.7562,-0.7395,-0.7134,-0.6734,-0.6284,-0.5739,-0.5319,-0.5057,-0.4921,-0.475,-0.447,-0.4065,-0.3849,-0.3377,-0.2676,-0.2676,-0.2406,-1.1513,-1.1223,-1.0855,-1.0671,-1.0144,-0.9537,-0.8931,0.0,0.0,0.0,-0.9133,-0.9455,-0.8628,-0.9023,-0.9513,-0.9666,-0.9742,-1.0104,-1.1044,-1.0557,-1.0268,-1.0711,-1.0298,-1.0065,-1.0243,-1.0093,-0.998,-0.9902,-0.9961,-1.0098,-1.0312,-1.039,-1.0361,-1.0205,-1.039,-1.0476,-1.0476,-1.0476,-1.0467,-1.0428,-1.0244,-1.003,-0.9775,-0.9666,-0.9232,-0.8526,-0.857,-0.8262,-0.7764,-0.8108,-0.8095,-0.7896,-0.8087,-0.8136,-0.8082,-0.8082,-0.8165,-0.8296,-0.8296,-0.8296,-0.8354,-0.8675,-0.8495,-0.8089,-0.7626,-0.7619,-0.778,-0.7723,-0.7854,-0.8055,-0.8248,-0.8,-0.7689,-0.7609,-0.7279,-0.7001,-0.7001,-0.7167,-0.7251,-0.6957,-0.7101,-0.7158,-0.6713,-0.6679,-0.6534,-0.6069,-0.5997,-0.5891,-0.5605,-0.5425,-0.566,-0.6596,-0.6145,-0.6034,-0.6713,-0.6474,-0.6212,-0.6026,-0.5827,-0.5479,-0.4958,-0.4783,-0.4537,-0.4228,-0.4085,-0.3746,-0.3175,-0.3046,-0.2657,-0.2039,-0.2039,-0.1909,-1.1917,-1.1439,-1.0901,-1.0901,-1.0312,-0.9491,-0.8682,-0.9115,0.0,-0.8673,-0.9133,-0.9574,-0.917,-0.9363,-0.9592,0.0,-0.9886,-1.0247,-1.0827,-1.052,-1.0426,-1.0857,-1.0332,-1.0033,-1.03,-0.9989,-0.9783,-0.9783,-0.9882,-0.995,-1.0,-0.998,-0.9951,-0.9922,-1.002,-1.002,-0.9922,-0.9922,-0.9902,-0.9853,-0.9754,-0.9527,-0.9159,-0.9088,-0.8621,-0.7878,-0.8016,-0.7687,-0.7121,-0.7689,-0.7606,-0.71,-0.7423,-0.7558,-0.7558,-0.7558,-0.7752,-0.8028,-0.8028,-0.8008,-0.7987,-0.7876,-0.7837,-0.7726,-0.7311,-0.7391,-0.7616,-0.7518,-0.7714,-0.7946,-0.7946,-0.7718,-0.7461,-0.7356,-0.7006,-0.6717,-0.6717,-0.6662,-0.6598,-0.6419,-0.6483,-0.6526,-0.6425,-0.6404,-0.627,-0.5867,-0.5622,-0.5358,-0.4968,-0.4599,-0.4833,-0.606,-0.5343,-0.503,-0.5639,-0.5271,-0.4989,-0.4989,-0.4908,-0.4694,-0.4314,-0.4233,-0.398,-0.3506,-0.3298,-0.2924,-0.2404,-0.2304,-0.2034,-0.1586,-0.1586,-0.1535,-1.1651,-1.1228,-1.0901,-1.0901,-1.0312,-0.9491,-0.8682,0.0,-0.9473,-0.8673,-0.9133,-0.9574,-0.917,-0.9124,0.0,0.0,0.0,-0.9603,-1.0745,-1.0247,-0.9925,-1.0321,-0.999,-0.9732,-0.9769,-0.9372,-0.9266,-0.9674,-0.9723,-0.9812,-0.998,-0.9882,-0.9675,-0.9379,-0.9794,-0.9813,-0.9379,-0.9379,-0.9359,-0.9359,-0.8999,-0.8797,-0.8756,-0.8622,-0.8023,-0.7111,-0.7296,-0.6984,-0.6327,-0.6636,-0.6848,-0.7008,-0.7056,-0.7063,-0.7063,-0.7063,-0.7084,-0.7126,-0.7126,-0.707,-0.695,-0.652,-0.7182,-0.8062,-0.7609,-0.7438,-0.7328,-0.6917,-0.6816,-0.6836,-0.6836,-0.6815,-0.6793,-0.6772,-0.6413,-0.6081,-0.6081,-0.5755,-0.5459,-0.5437,-0.5437,-0.5437,-0.5437,-0.5437,-0.5373,-0.5205,-0.5168,-0.511,-0.5002,-0.46,-0.4366,-0.4504,-0.4425,-0.4451,-0.4704,-0.4668,-0.4638,-0.4638,-0.4303,-0.3975,-0.3702,-0.339,-0.3197,-0.314,-0.2719,-0.2468,-0.2404,-0.1976,-0.1586,-0.1252,-0.1252,-0.1022,-1.1421,-1.1026,-1.0551,-1.0551,-1.0107,-0.9546,-0.8986,-0.9308,-0.9537,-0.8977,-0.9298,-0.9648,-0.9482,-0.9465,-0.951,0.0,0.0,0.0,-1.0107,-0.9905,-0.9758,-0.9914,-0.9795,-0.9583,-0.9306,-0.9105,-0.8955,-0.8854,-0.8854,-0.8895,-0.8967,-0.9197,-0.9168,-0.8817,-0.8999,-0.9007,-0.8817,-0.8817,-0.8777,-0.8695,-0.8541,-0.8329,-0.8095,-0.8034,-0.7561,-0.6765,-0.7014,-0.67,-0.6046,-0.6316,-0.6471,-0.6571,-0.6571,-0.674,-0.7,-0.7,-0.6825,-0.6571,-0.6535,-0.6307,-0.6007,-0.5744,-0.5969,-0.6304,-0.6198,-0.6161,-0.6103,-0.5916,-0.5852,-0.5852,-0.5852,-0.5793,-0.575,-0.5836,-0.5658,-0.5464,-0.5464,-0.5373,-0.526,-0.5135,-0.5156,-0.5161,-0.5135,-0.5113,-0.5009,-0.4666,-0.4622,-0.4513,-0.4188,-0.3994,-0.3884,-0.3884,-0.3873,-0.3904,-0.3995,-0.3881,-0.3819,-0.3819,-0.3403,-0.3112,-0.2997,-0.2604,-0.2411,-0.25,-0.2229,-0.2003,-0.1807,-0.1616,-0.1256,-0.0789,-0.0789,-0.0494,-1.12,-1.0951,-1.0529,-1.0487,-1.0079,-0.9592,-0.9189,-0.9419,-0.9583,-0.9179,-0.9312,-0.9495,-0.9495,-0.9495,-0.9495,0.0,0.0,-0.9556,-0.9684,-0.9474,-0.9419,-0.9664,-0.9455,-0.9205,-0.9016,-0.8874,-0.8602,-0.8152,-0.8234,-0.8255,-0.8131,-0.8431,-0.8513,-0.8267,-0.837,-0.8378,-0.8267,-0.8267,-0.8226,-0.8124,-0.7979,-0.768,-0.7216,-0.7259,-0.6868,-0.6148,-0.6462,-0.6269,-0.5717,-0.5992,-0.6118,-0.6118,-0.6118,-0.6337,-0.6613,-0.6613,-0.638,-0.606,-0.6007,-0.5728,-0.534,-0.5108,-0.4961,-0.4862,-0.4814,-0.4983,-0.5221,-0.5221,-0.5221,-0.5221,-0.5221,-0.5135,-0.5096,-0.52,-0.5031,-0.4862,-0.4862,-0.4836,-0.4748,-0.4618,-0.4622,-0.4644,-0.46,-0.4578,-0.4469,-0.4144,-0.41,-0.3924,-0.3464,-0.3398,-0.3331,-0.3173,-0.3151,-0.3217,-0.3376,-0.3258,-0.3113,-0.2965,-0.2626,-0.2456,-0.2456,-0.2133,-0.2012,-0.2097,-0.1864,-0.1626,-0.1366,-0.121,-0.0897,-0.0472,-0.0314,0.009,-1.1043,-1.099,-1.1056,-1.0923,-1.0282,-0.9592,-0.9189,-0.9419,-0.9583,-0.9179,-0.9043,-0.8996,-0.8996,-0.8996,-0.8996,-0.8996,-0.9067,0.0,-0.9648,-0.8961,-0.8741,-0.9588,-0.8874,-0.8508,-0.8955,-0.8582,-0.8144,-0.7745,-0.8082,-0.8124,-0.7724,-0.7703,-0.7703,-0.7703,-0.8082,-0.8103,-0.7703,-0.7703,-0.7703,-0.7703,-0.7231,-0.6709,-0.6109,-0.6258,-0.585,-0.5053,-0.5516,-0.5518,-0.5233,-0.5577,-0.5696,-0.5696,-0.5696,-0.5717,-0.5717,-0.5717,-0.5637,-0.5512,-0.5512,-0.534,-0.5031,-0.4565,-0.4373,-0.4232,-0.3755,-0.4276,-0.5009,-0.5009,-0.5009,-0.5009,-0.5009,-0.5009,-0.5009,-0.5009,-0.4639,-0.4316,-0.4316,-0.395,-0.3626,-0.3626,-0.3626,-0.3626,-0.3626,-0.3626,-0.3604,-0.3604,-0.3604,-0.3442,-0.2965,-0.2898,-0.2699,-0.2166,-0.2121,-0.2322,-0.2854,-0.2896,-0.2674,-0.2142,-0.2099,-0.2099,-0.2099,-0.2097,-0.2097,-0.2099,-0.1633,-0.1365,-0.1299,-0.0763,-0.0472,-0.0382,0.0134,0.0716,-1.0556,-1.0398,-1.0184,-1.0091,-0.9886,-0.9666,-0.9537,-0.9356,-0.9191,-0.9059,-0.877,-0.8529,-0.8529,-0.8793,-0.8996,-0.8996,-0.9012,0.0,-0.884,-0.8723,-0.8666,-0.8671,-0.8382,-0.8152,-0.8126,-0.7682,-0.7356,-0.7224,-0.7301,-0.7286,-0.716,-0.7055,-0.7076,-0.721,-0.7356,-0.7356,-0.7224,-0.7045,-0.6882,-0.6734,-0.6397,-0.6099,-0.5824,-0.5876,-0.5741,-0.5484,-0.5631,-0.546,-0.5084,-0.517,-0.5221,-0.5221,-0.5221,-0.5356,-0.5556,-0.5556,-0.527,-0.4879,-0.4787,-0.4482,-0.4114,-0.3921,-0.384,-0.3729,-0.3258,-0.3546,-0.4034,-0.4034,-0.4034,-0.4034,-0.4034,-0.4034,-0.4034,-0.4034,-0.3678,-0.3341,-0.3341,-0.2946,-0.2568,-0.2568,-0.2568,-0.2568,-0.2568,-0.2568,-0.2568,-0.2568,-0.2568,-0.2524,-0.2366,-0.2344,-0.2277,-0.2121,-0.2099,-0.2166,-0.2344,-0.2344,-0.2277,-0.2121,-0.1789,-0.1611,-0.1611,-0.1232,-0.1009,-0.1009,-0.0808,-0.0696,-0.0674,-0.0157,0.0336,0.0784,0.1319,0.1674,-1.042,-1.0324,-1.0157,-1.0056,-0.9884,-0.9733,-0.9733,-0.9346,-0.8996,-0.8996,-0.85,-0.8062,-0.8062,-0.8308,-0.8513,-0.8513,-0.8433,-0.8365,-0.8367,-0.8253,-0.8103,-0.7943,-0.8034,-0.7925,-0.7489,-0.7147,-0.6964,-0.6964,-0.6872,-0.6836,-0.6836,-0.6793,-0.6723,-0.6634,-0.6852,-0.6901,-0.6747,-0.6573,-0.634,-0.6076,-0.5898,-0.5651,-0.5318,-0.5401,-0.5262,-0.5001,-0.5122,-0.4988,0.0,-0.4666,-0.4666,-0.4666,-0.4596,-0.4709,-0.4905,-0.4905,-0.4618,-0.4224,-0.3953,-0.3671,-0.3366,-0.3106,-0.304,-0.2973,-0.2677,-0.279,-0.304,-0.304,-0.304,-0.3051,-0.3075,-0.3067,-0.3078,-0.308,-0.2853,-0.2642,-0.2642,-0.2362,-0.2129,-0.2129,-0.2129,-0.2129,-0.2129,-0.2129,-0.2129,-0.2129,-0.2148,-0.2081,-0.1898,-0.1851,-0.1767,-0.1588,-0.1521,-0.1499,-0.1499,-0.17,-0.1744,-0.1521,-0.1232,-0.1054,-0.1032,-0.0651,-0.0453,-0.046,-0.0207,-0.0046,0.0023,0.0633,0.1217,0.1757,0.2084,0.2364,0.0,-1.0652,-1.0714,-1.059,-1.0183,-0.9803,-0.9763,-0.9337,0.0,-0.8915,-0.8239,-0.7662,-0.7662,-0.7682,-0.7703,-0.7703,-0.7486,-0.7562,-0.82,-0.7633,-0.725,-0.7468,-0.7825,-0.7772,-0.7054,-0.6929,-0.6893,-0.6893,-0.673,-0.6645,-0.6645,-0.6723,-0.652,-0.5953,-0.6477,-0.6605,-0.6225,-0.6207,-0.6016,-0.5631,-0.5615,-0.5271,-0.4651,-0.4838,-0.4521,-0.3829,-0.4138,-0.421,-0.4086,-0.4086,-0.4086,-0.4064,-0.395,-0.3902,-0.388,-0.388,-0.3788,-0.3587,-0.3145,-0.2921,-0.2765,-0.2255,-0.2077,-0.2057,-0.2062,-0.2081,-0.2099,-0.2099,-0.2103,-0.2127,-0.2188,-0.219,-0.2191,-0.2196,-0.2164,-0.2139,-0.2139,-0.2114,-0.2089,-0.2089,-0.2089,-0.2089,-0.2089,-0.2089,-0.2089,-0.2089,-0.21,-0.1934,-0.1482,-0.1389,-0.1176,-0.0725,-0.0567,-0.0499,-0.0499,-0.1016,-0.1081,-0.0519,-0.0498,-0.0453,-0.034,-0.0317,-0.03,-0.0263,0.0311,0.0681,0.0832,0.151,0.2087,0.2543,0.2568,0.2893,-1.0371,0.0,-1.0232,-1.0162,-0.9977,-0.9724,0.0,-0.8895,-0.8378,-0.8075,-0.7558,-0.7168,-0.7168,-0.7454,-0.7703,-0.7703,-0.766,-0.7738,-0.8098,-0.789,-0.7666,-0.752,-0.7491,-0.7339,-0.6961,-0.6815,-0.6757,-0.6757,-0.6291,-0.6007,-0.6007,-0.5658,-0.5399,-0.5313,-0.5443,-0.5529,-0.554,-0.5392,-0.5162,-0.4853,-0.4747,-0.4481,-0.4085,-0.4146,-0.4055,-0.3872,-0.3949,-0.3972,-0.395,-0.395,-0.395,-0.395,-0.3902,-0.3836,-0.3744,-0.3744,-0.3476,-0.3075,-0.2965,-0.2655,-0.2277,-0.2144,-0.1854,-0.1576,-0.1627,-0.1858,-0.2099,-0.2099,-0.2126,-0.2182,-0.2203,-0.221,-0.219,-0.2209,-0.1915,-0.1665,-0.1665,-0.1387,-0.1134,-0.1134,-0.1134,-0.1134,-0.1134,-0.1134,-0.1134,-0.1134,-0.1125,-0.1045,-0.0846,-0.079,-0.0712,-0.0491,-0.0442,-0.0418,-0.0418,-0.055,-0.0565,-0.0424,-0.0435,-0.0221,0.027,0.0393,0.0665,0.1117,0.1365,0.1696,0.2064,0.2242,0.2566,0.3043,0.3143,0.3518,-1.0303,-1.038,-1.0466,-1.0416,-1.0295,-1.0052,-0.9665,0.0,0.0,0.0,0.0,0.0,-0.7,-0.721,-0.737,-0.737,-0.737,-0.751,-0.7859,-0.7863,-0.7643,-0.7226,-0.6997,-0.67,-0.6223,-0.605,-0.597,-0.597,-0.5642,-0.5443,-0.5443,-0.5183,-0.4944,-0.4731,-0.477,-0.4853,-0.4983,-0.4874,-0.4645,-0.4272,-0.42,-0.4079,-0.3902,-0.3902,-0.3858,-0.381,-0.388,-0.3748,-0.348,-0.348,-0.3366,-0.3167,-0.3101,-0.3031,-0.2965,-0.2965,-0.2788,-0.2499,-0.2277,-0.1878,-0.1456,-0.1456,-0.1318,-0.1136,-0.1161,-0.1331,-0.1514,-0.1514,-0.1537,-0.1568,-0.1597,-0.1603,-0.1608,-0.1609,-0.1405,-0.122,-0.122,-0.1034,-0.0848,-0.0848,-0.0795,-0.0742,-0.0742,-0.0689,-0.061,-0.061,-0.0627,-0.0595,-0.0517,-0.051,-0.0479,-0.0403,-0.0101,0.0101,0.0101,0.0427,0.0349,-0.027,-0.005,0.0277,0.0655,0.1007,0.1496,0.2085,0.2174,0.2485,0.2992,0.3069,0.3379,0.3902,0.4036,0.445,-1.0361,-1.0693,-1.0935,-1.0809,-1.0642,-1.038,-0.9876,0.0,0.0,0.0,0.0,0.0,0.0,-0.7106,-0.714,-0.714,-0.7087,-0.7138,-0.7388,-0.7434,-0.7255,-0.6713,-0.6405,-0.6012,-0.5374,-0.5181,-0.5079,-0.5079,-0.4966,-0.4901,-0.4901,-0.4884,-0.4666,-0.421,-0.4246,-0.4329,-0.4443,-0.4465,-0.4246,-0.3862,-0.3858,-0.3836,-0.3748,-0.3748,-0.3634,-0.3454,-0.3568,-0.3344,-0.2857,-0.2857,-0.2635,-0.2257,-0.2144,-0.2099,-0.2099,-0.2099,-0.2055,-0.1921,-0.1456,-0.1032,-0.0697,-0.0703,-0.0744,-0.0791,-0.0823,-0.082,-0.0815,-0.0819,-0.0817,-0.0819,-0.0898,-0.0909,-0.0893,-0.0891,-0.0898,-0.0898,-0.087,-0.087,-0.087,-0.0842,-0.0729,-0.0645,-0.0645,-0.0505,-0.0393,-0.0393,-0.0328,-0.0268,-0.0242,-0.0157,-0.0077,-0.0077,0.0487,0.0871,0.0871,0.1449,0.1321,0.018,0.0589,0.0948,0.1178,0.1765,0.2308,0.2832,0.2861,0.3128,0.3638,0.3855,0.4236,0.4728,0.4952,0.5441,-1.0713,-1.1058,-1.1147,-1.0406,-1.0158,-0.9846,-0.8935,0.0,0.0,0.0,0.0,0.0,0.0,-0.7615,-0.7766,-0.7766,-0.7484,-0.6983,-0.6204,-0.6296,-0.6323,-0.599,-0.5726,-0.5507,-0.5409,-0.5154,-0.5009,-0.5009,-0.4644,-0.4403,-0.4403,-0.4038,-0.3799,-0.3711,-0.3711,-0.3729,-0.3751,-0.381,-0.377,-0.3644,-0.3704,-0.3498,-0.3053,-0.3053,-0.2788,-0.2344,-0.2366,-0.2322,-0.2233,-0.2233,-0.2188,-0.2121,-0.2099,-0.2099,-0.2099,-0.2099,-0.1856,-0.1433,-0.0965,-0.0764,-0.0701,-0.0773,-0.0784,-0.0822,-0.0876,-0.0894,-0.0877,-0.0876,-0.0892,-0.0899,-0.0905,-0.0898,-0.0892,-0.0896,-0.0898,-0.087,-0.0757,-0.0729,-0.0673,-0.0505,-0.0449,-0.0449,-0.0449,-0.0421,-0.0393,-0.0393,0.0,0.0334,0.0501,0.0968,0.1349,0.1459,0.157,0.1625,0.1625,0.1744,0.1717,0.1515,0.157,0.1872,0.2393,0.3,0.3369,0.347,0.3566,0.3685,0.3771,0.4429,0.4787,0.4897,0.5519,0.6172,-1.0537,-1.0816,-1.0843,-0.9913,-1.0058,-1.0128,-0.8971,-0.8295,0.0,0.0,0.0,0.0,0.0,-0.7392,-0.7549,-0.7487,-0.7309,-0.6954,-0.6221,-0.6103,-0.5888,-0.5387,-0.5074,-0.4776,-0.4451,-0.4321,-0.4254,-0.4254,-0.4034,-0.3928,-0.3928,-0.3711,-0.3604,-0.3604,-0.3604,-0.3604,-0.3604,-0.3369,-0.3369,-0.3604,-0.3369,-0.3142,-0.2898,-0.261,-0.2344,-0.2099,-0.2099,-0.1966,-0.1722,-0.1722,-0.1567,-0.1344,-0.1344,-0.1344,-0.1344,-0.1344,-0.1211,-0.0988,-0.0764,-0.073,-0.077,-0.0784,-0.0835,-0.0817,-0.058,-0.0512,-0.0439,-0.0028,-0.0388,-0.0904,-0.0904,-0.0859,-0.0701,-0.0392,-0.0476,-0.0533,-0.0168,-0.0336,-0.0421,-0.0028,0.0112,0.0308,0.0616,0.0728,0.0784,0.0784,0.1008,0.1204,0.1288,0.1539,0.1734,0.179,0.2097,0.2291,0.2291,0.2573,0.2629,0.2319,0.2291,0.2571,0.316,0.3522,0.3719,0.3719,0.4156,0.4401,0.4401,0.514,0.5655,0.5987,0.6538,0.7124,-1.04,-1.0593,-1.051,-0.9544,0.0,-1.0117,-0.8959,-0.8333,0.0,0.0,0.0,0.0,0.0,-0.7263,-0.7272,-0.7022,-0.6846,-0.654,-0.604,-0.577,-0.5427,-0.4818,-0.4525,-0.419,-0.3691,-0.3621,-0.3604,-0.3604,-0.3604,-0.3604,-0.3604,-0.3604,-0.3604,-0.3604,-0.349,-0.3442,-0.3442,-0.2946,-0.2946,-0.342,-0.2946,-0.2655,-0.2544,-0.2121,-0.1876,-0.1767,-0.1767,-0.1567,-0.1233,-0.1233,-0.1032,-0.0697,-0.0697,-0.0697,-0.0697,-0.0697,-0.0701,-0.073,-0.073,-0.0656,-0.0533,-0.0538,-0.0458,-0.0293,0.0054,0.0165,0.028,0.0838,0.0336,-0.0392,-0.0392,-0.0308,-0.0112,0.0335,0.0224,0.0112,0.0588,0.0364,0.0196,0.0644,0.0841,0.1092,0.1567,0.1734,0.179,0.179,0.193,0.2014,0.2014,0.2125,0.2211,0.2211,0.2627,0.2933,0.2959,0.3383,0.3522,0.3236,0.3014,0.313,0.3638,0.3882,0.4015,0.4042,0.4787,0.5167,0.5167,0.59,0.6527,0.7051,0.7488,0.7949,-1.0762,-1.0744,-1.041,-0.9512,-0.9271,0.0,-0.8313,-0.7839,0.0,-0.7812,0.0,0.0,-0.802,-0.7736,-0.7291,-0.672,-0.6067,-0.5393,-0.4732,-0.4615,-0.4528,-0.4276,-0.4122,-0.3969,-0.3792,-0.3679,-0.3604,-0.3604,-0.3604,-0.3604,-0.3604,-0.3604,-0.3604,-0.3604,-0.317,-0.2943,-0.2943,-0.2433,-0.2433,-0.2943,-0.241,-0.1923,-0.15,-0.1478,-0.1211,-0.0809,-0.0809,-0.0787,-0.0742,-0.0742,-0.0719,-0.0697,-0.0697,-0.0697,-0.0697,-0.0697,-0.0737,-0.0785,-0.0785,-0.0341,0.0227,0.0209,0.0688,0.1228,0.1214,0.12,0.1202,0.1257,0.1202,0.1147,0.1147,0.1147,0.1174,0.1202,0.1202,0.123,0.1454,0.1482,0.151,0.1679,0.1706,0.1734,0.179,0.179,0.179,0.179,0.2263,0.2625,0.2625,0.3132,0.3471,0.3471,0.3499,0.358,0.3713,0.3769,0.407,0.4704,0.3993,0.3608,0.3769,0.4343,0.4701,0.4814,0.5546,0.5923,0.5923,0.6669,0.7165,0.7464,0.7998,0.8388,-1.0002,-0.9861,-0.9459,-0.8645,-0.8464,0.0,0.0,-0.7848,-0.7842,-0.8143,-0.8014,0.0,-0.7841,-0.7078,-0.6423,-0.6347,-0.5796,-0.5167,-0.457,-0.4491,-0.4402,-0.4109,-0.4031,-0.3924,-0.3706,-0.3634,-0.3604,-0.3604,-0.3604,-0.3604,-0.3604,-0.3328,-0.317,-0.317,-0.2677,-0.241,-0.241,-0.1923,-0.1767,-0.1966,-0.1767,-0.1567,-0.1389,-0.1099,-0.0876,-0.0697,-0.0697,-0.0697,-0.0697,-0.0697,-0.0697,-0.0697,-0.0697,-0.0652,-0.0584,-0.0584,-0.0323,0.0,0.0,0.0446,0.0991,0.0979,0.1132,0.1402,0.1643,0.1734,0.1818,0.2291,0.2432,0.2235,0.1481,0.1398,0.1593,0.1955,0.1817,0.1733,0.2179,0.1984,0.1846,0.2263,0.2347,0.2488,0.2854,0.2984,0.3053,0.3053,0.328,0.3416,0.3378,0.3571,0.3718,0.3724,0.3802,0.389,0.4026,0.4063,0.4212,0.4614,0.4505,0.4432,0.4487,0.4783,0.4972,0.503,0.5737,0.6312,0.6696,0.7477,0.7912,0.801,0.8562,0.8854,-0.9328,-0.9104,-0.8763,-0.8182,0.0,0.0,-0.7969,-0.7894,-0.7964,-0.8373,-0.8137,-0.7803,-0.7615,-0.6676,-0.5937,-0.5964,-0.5441,-0.4909,-0.4453,-0.4395,-0.4284,-0.3982,-0.3948,-0.3849,-0.3628,-0.3604,-0.3604,-0.3604,-0.3604,-0.3534,-0.3398,-0.3034,-0.2788,-0.2655,-0.2121,-0.1854,-0.1876,-0.1411,-0.1166,-0.1121,-0.1121,-0.1144,-0.1166,-0.0808,-0.0652,-0.0697,-0.0629,-0.0607,-0.0629,-0.0607,-0.0517,-0.0359,-0.0359,-0.0202,0.0,0.0046,0.0351,0.0727,0.0761,0.1206,0.1753,0.1753,0.1864,0.2097,0.2406,0.2517,0.2601,0.3105,0.3244,0.3077,0.2237,0.2125,0.2348,0.2738,0.2599,0.249,0.2905,0.2657,0.2488,0.2907,0.2991,0.314,0.3575,0.3731,0.3826,0.3924,0.3975,0.3997,0.4029,0.4018,0.4013,0.4012,0.4089,0.4215,0.4343,0.4552,0.4825,0.52,0.5607,0.5643,0.5163,0.5553,0.5825,0.5852,0.6524,0.7055,0.7471,0.8111,0.8481,0.8572,0.8933,0.9143,-0.8926,-0.8649,-0.8457,-0.8332,0.0,0.0,-0.8055,-0.7897,-0.7858,-0.8456,-0.8368,-0.8002,-0.7396,-0.6696,-0.6041,-0.5569,-0.4948,-0.444,-0.4214,-0.4197,-0.4109,-0.3829,-0.3792,-0.3734,-0.3617,-0.3604,-0.3604,-0.3578,-0.3578,-0.3376,-0.2921,-0.2763,-0.2497,-0.2099,-0.1566,-0.1321,-0.1389,-0.092,-0.0629,-0.0494,-0.0494,-0.0562,-0.0697,-0.0562,-0.0562,-0.0697,-0.0472,-0.0427,-0.0494,-0.0405,-0.0067,0.0403,0.0403,0.0693,0.1124,0.1262,0.1263,0.1236,0.1363,0.19,0.2512,0.2512,0.3019,0.3613,0.3613,0.3613,0.3613,0.3613,0.3613,0.3613,0.3613,0.3613,0.3613,0.3613,0.3613,0.3613,0.3613,0.3613,0.3613,0.3613,0.3613,0.3652,0.3793,0.3815,0.3889,0.4166,0.4219,0.4278,0.4485,0.4512,0.4512,0.4512,0.4512,0.4576,0.4701,0.5328,0.6014,0.6773,0.7493,0.7245,0.5769,0.6736,0.7367,0.7491,0.8032,0.8291,0.8291,0.8584,0.8842,0.9095,0.9101,0.9251,-0.8477,-0.8301,-0.8237,-0.773,0.0,0.0,0.0,-0.791,0.0,0.0,-0.7283,-0.6853,-0.6583,-0.5687,-0.5089,-0.5332,-0.4869,-0.444,-0.4214,-0.4197,-0.4061,-0.3693,-0.3657,-0.3579,-0.3341,-0.3328,-0.3173,-0.284,-0.2818,-0.2615,-0.2142,-0.1786,-0.152,-0.141,-0.092,-0.0674,-0.0696,-0.0562,-0.0472,-0.0427,-0.0427,-0.045,-0.0494,-0.045,-0.045,-0.0472,-0.0022,0.0157,0.0157,0.0515,0.0739,0.0895,0.0895,0.103,0.126,0.1333,0.1677,0.2125,0.2278,0.2742,0.3272,0.3272,0.3413,0.3613,0.3613,0.3613,0.3613,0.3613,0.3613,0.3613,0.3613,0.3613,0.3613,0.3613,0.3613,0.3613,0.3613,0.3613,0.3635,0.3715,0.3731,0.3798,0.4045,0.417,0.4275,0.4467,0.4554,0.461,0.4577,0.4606,0.4637,0.4637,0.5177,0.562,0.5744,0.6365,0.6889,0.7194,0.7901,0.8,0.728,0.7562,0.773,0.7794,0.7945,0.8207,0.8596,0.8854,0.9023,0.9101,0.93,0.9622,-0.7872,-0.7687,-0.7672,-0.749,-0.7511,-0.7581,-0.7735,0.0,-0.788,-0.7341,-0.6934,-0.6502,-0.5932,-0.5222,-0.4759,-0.4846,-0.4546,-0.4229,-0.3981,-0.3952,-0.3821,-0.3492,-0.3435,-0.3309,-0.2957,-0.2926,-0.2726,-0.2257,-0.2212,-0.201,-0.1542,-0.1207,-0.0962,-0.0829,-0.0494,-0.0337,-0.0405,-0.0405,-0.0382,-0.0315,-0.0135,-0.0022,0.0022,-0.0202,-0.0225,-0.0045,0.0515,0.0783,0.0827,0.1097,0.132,0.1497,0.1497,0.1695,0.1983,0.2082,0.2438,0.2871,0.2999,0.3299,0.3613,0.3613,0.3613,0.3613,0.3613,0.3613,0.3613,0.3613,0.3613,0.3613,0.3613,0.3613,0.3613,0.3613,0.3613,0.3613,0.3613,0.3649,0.3701,0.3769,0.3883,0.4018,0.4241,0.4388,0.4551,0.4761,0.494,0.5094,0.5294,0.5361,0.5489,0.5743,0.6239,0.6599,0.6685,0.7326,0.7761,0.7832,0.8495,0.8785,0.8546,0.8433,0.8376,0.8376,0.8376,0.8526,0.886,0.9131,0.9263,0.9269,0.9654,0.9989,-0.7247,-0.7017,-0.6996,-0.7552,-0.7525,-0.7389,-0.7496,-0.7808,-0.7869,-0.7166,-0.6972,-0.6561,-0.5418,-0.5085,-0.4811,-0.4273,-0.407,-0.3887,-0.3635,-0.359,-0.3462,-0.3155,-0.3126,-0.2926,-0.2437,-0.2393,-0.2212,-0.1741,-0.1697,-0.1496,-0.103,-0.0873,-0.0672,-0.0382,-0.0247,-0.0247,-0.036,-0.036,-0.027,-0.0112,0.0313,0.0604,0.0738,0.0202,0.0179,0.0582,0.1141,0.1433,0.1545,0.1545,0.1789,0.2166,0.2166,0.2523,0.3016,0.315,0.3294,0.3417,0.3542,0.3613,0.3613,0.3613,0.3613,0.3613,0.3613,0.3613,0.3616,0.3624,0.3627,0.363,0.3613,0.3646,0.3646,0.3646,0.3635,0.363,0.3613,0.3725,0.3831,0.3842,0.4059,0.4275,0.4437,0.4551,0.4781,0.5167,0.5388,0.5719,0.64,0.6498,0.6728,0.7321,0.7451,0.7517,0.7517,0.8166,0.8587,0.8587,0.9151,0.9516,0.9516,0.9269,0.9137,0.9137,0.9137,0.9137,0.9137,0.9421,0.958,0.958,1.0085,1.0384,-0.7039,-0.7081,-0.7375,-0.7506,-0.7647,-0.7613,-0.7024,-0.7044,-0.702,-0.6507,-0.5932,-0.5304,-0.4574,-0.4325,-0.4187,-0.4079,-0.3932,-0.3781,-0.3623,-0.3508,-0.3213,-0.2563,-0.2502,-0.2279,-0.1701,-0.1634,-0.1432,-0.0962,-0.0939,-0.0739,-0.0269,-0.0202,-0.0157,-0.009,-0.0067,-0.0067,-0.009,-0.009,0.0112,0.0515,0.0604,0.0873,0.1254,0.112,0.1298,0.1741,0.1876,0.2168,0.2576,0.2576,0.2642,0.2732,0.2732,0.2847,0.3016,0.315,0.3294,0.3417,0.3542,0.3613,0.3613,0.3613,0.3613,0.3613,0.3613,0.3613,0.363,0.372,0.3745,0.3769,0.3833,0.395,0.4072,0.4072,0.3907,0.3772,0.3838,0.3972,0.4141,0.4244,0.4407,0.4594,0.4888,0.4979,0.5249,0.6001,0.617,0.6433,0.7088,0.7186,0.7256,0.7386,0.7907,0.8258,0.8258,0.8888,0.9285,0.9285,0.942,0.9516,0.9516,0.9456,0.9426,0.9426,0.9426,0.9426,0.9426,0.9894,1.0149,1.0149,1.0244,1.0866,-0.6792,-0.6887,-0.712,-0.7161,-0.7193,-0.7076,-0.6539,-0.6169,-0.5873,-0.5615,-0.5277,-0.4814,-0.4218,-0.3993,-0.391,-0.391,-0.3746,-0.3565,-0.3416,-0.3094,-0.2714,-0.2268,-0.2012,-0.1655,-0.1119,-0.1074,-0.0873,-0.0403,-0.0359,-0.0269,-0.0022,0.0,0.0,0.0,0.0,0.0112,0.0336,0.0336,0.056,0.103,0.1252,0.1631,0.2105,0.1856,0.1876,0.2121,0.237,0.264,0.289,0.289,0.289,0.2895,0.2933,0.3005,0.3121,0.3237,0.3381,0.3498,0.3589,0.3613,0.3638,0.383,0.3747,0.3638,0.3827,0.3786,0.3735,0.3854,0.3945,0.4037,0.416,0.4272,0.4439,0.4838,0.4503,0.4156,0.4193,0.4291,0.4512,0.4925,0.5189,0.5484,0.6023,0.617,0.6371,0.6793,0.6892,0.712,0.7842,0.7939,0.8037,0.8366,0.8759,0.8985,0.8985,0.9285,0.9516,0.9516,0.9516,0.9516,0.9516,0.9516,0.9516,0.9516,0.9516,0.9516,0.9516,0.9766,1.0117,1.0561,1.0794,1.1606,-0.6511,-0.6592,-0.6665,-0.6671,-0.6578,-0.6339,-0.5886,-0.5274,-0.4763,-0.4687,-0.4687,-0.457,-0.4049,-0.3837,-0.3737,-0.3737,-0.3428,-0.3174,-0.305,-0.2531,-0.2067,-0.1884,-0.1521,-0.1097,-0.0627,-0.0582,-0.0426,-0.0022,0.0,0.0,0.0,0.0,0.0045,0.0112,0.0112,0.0337,0.0805,0.0827,0.1051,0.1521,0.2012,0.2482,0.289,0.2437,0.2235,0.2257,0.2709,0.289,0.289,0.2912,0.292,0.2934,0.3007,0.3123,0.3237,0.3362,0.3479,0.3613,0.3613,0.3613,0.3666,0.399,0.3882,0.3697,0.4073,0.4014,0.3937,0.4219,0.4372,0.4525,0.4821,0.4948,0.5133,0.5789,0.547,0.4982,0.4921,0.4983,0.5226,0.5855,0.6165,0.6502,0.7116,0.7316,0.7451,0.7582,0.7582,0.7857,0.8647,0.8711,0.8905,0.9512,0.954,0.9516,0.9516,0.9516,0.9534,0.9582,0.9582,0.96,0.9648,0.9606,0.9582,0.9582,0.954,0.9548,0.9644,0.9783,1.0302,1.1166,1.1669,1.2557,-0.6236,-0.6349,-0.6465,-0.6242,-0.6267,-0.6021,-0.4817,-0.4444,-0.4264,-0.3849,-0.386,-0.3935,-0.3852,-0.3628,-0.3452,-0.3452,-0.288,-0.2433,-0.242,-0.1898,-0.1374,-0.094,-0.0827,-0.0604,-0.0135,-0.009,-0.0067,0.0,0.0,0.0,0.0,0.0,0.0179,0.0604,0.0604,0.0828,0.1299,0.1299,0.1544,0.201,0.2551,0.2821,0.289,0.2821,0.2798,0.2798,0.2868,0.289,0.2898,0.2956,0.2978,0.2989,0.3126,0.3245,0.3379,0.3395,0.3479,0.3613,0.3613,0.3613,0.3613,0.3666,0.3719,0.3819,0.3986,0.4094,0.4333,0.5236,0.5481,0.5655,0.6383,0.6716,0.6882,0.6969,0.6992,0.6947,0.6655,0.6737,0.688,0.6978,0.7135,0.7256,0.7354,0.7386,0.7614,0.8264,0.8361,0.8695,0.9585,0.9518,0.9503,0.9796,0.9654,0.9516,0.9516,0.9516,0.9612,0.9841,0.9853,0.9955,1.0178,0.9973,0.9853,0.9853,0.963,0.9734,1.018,1.0945,1.1772,1.2643,1.2976,1.3846,-0.6265,-0.6051,-0.588,-0.587,-0.5463,-0.4918,-0.4318,-0.3934,-0.3639,-0.3519,-0.3521,-0.3607,-0.3677,-0.3478,-0.3216,-0.3042,-0.2621,-0.2209,-0.1951,-0.1332,-0.0827,-0.0604,-0.0291,0.0,0.0202,0.0157,0.0112,0.0112,0.0045,0.0,0.0,0.0247,0.0493,0.0693,0.0962,0.132,0.1789,0.1789,0.2057,0.2551,0.2776,0.289,0.289,0.289,0.289,0.289,0.289,0.2928,0.2951,0.2978,0.304,0.3131,0.325,0.3406,0.3517,0.3582,0.3698,0.383,0.383,0.4049,0.438,0.4629,0.4908,0.5212,0.5494,0.5595,0.5719,0.6266,0.6478,0.6649,0.7065,0.7251,0.7414,0.7837,0.7967,0.8069,0.8301,0.7809,0.7447,0.7832,0.8264,0.8565,0.8565,0.8706,0.8926,0.9222,0.9409,0.9648,1.0071,1.0021,0.9997,1.0112,1.0021,0.9949,0.9949,0.9949,1.0003,1.0118,1.0124,1.0178,1.0292,1.0526,1.0634,1.0634,1.0356,1.0334,1.0594,1.1685,1.2661,1.3465,1.3833,1.4687,-0.6114,-0.5683,-0.5296,-0.5403,-0.4725,-0.4013,-0.391,-0.3505,-0.3198,-0.3311,-0.3224,-0.3163,-0.3332,-0.3171,-0.2893,-0.2475,-0.2133,-0.1776,-0.1432,-0.0784,-0.0363,-0.0336,0.0067,0.036,0.0405,0.0315,0.0292,0.0382,0.0292,0.0269,0.0359,0.0695,0.0939,0.1051,0.1386,0.1811,0.2302,0.2302,0.2504,0.2932,0.2932,0.2954,0.2976,0.2976,0.2996,0.3024,0.2948,0.2958,0.3074,0.3104,0.321,0.3377,0.3503,0.3714,0.394,0.4036,0.4239,0.446,0.446,0.4788,0.5294,0.5631,0.6036,0.6399,0.675,0.6829,0.6889,0.7286,0.7447,0.7609,0.7874,0.7939,0.8074,0.8624,0.8753,0.8882,0.9382,0.8662,0.8107,0.8657,0.9203,0.9612,0.9612,0.9829,1.0003,1.0003,1.0172,1.0316,1.0382,1.0334,1.0322,1.0382,1.0334,1.0292,1.0292,1.0292,1.0322,1.0388,1.0534,1.067,1.0738,1.1333,1.1675,1.1675,1.1715,1.1649,1.1447,1.2602,1.3575,1.4395,1.4777,1.5506,-0.5467,-0.5184,-0.488,-0.4702,-0.4286,-0.3803,-0.3353,-0.3124,-0.3059,-0.3177,-0.275,-0.2425,-0.2705,-0.2643,-0.2342,-0.1764,-0.1171,-0.0775,-0.0745,-0.0325,0.0023,0.0158,0.0202,0.027,0.0382,0.0405,0.0516,0.0851,0.0851,0.0985,0.1299,0.1344,0.1566,0.201,0.2055,0.2324,0.2845,0.2868,0.2907,0.299,0.299,0.3059,0.3195,0.3195,0.3265,0.3357,0.303,0.3047,0.3286,0.3363,0.3535,0.3793,0.3905,0.4312,0.4831,0.4838,0.5199,0.5719,0.5719,0.5892,0.6127,0.6155,0.6435,0.6787,0.6943,0.708,0.7334,0.818,0.8415,0.8587,0.9221,0.9388,0.9414,0.9446,0.9452,0.9452,0.9484,0.9446,0.9414,0.9446,0.9682,0.9883,0.9883,1.01,1.0274,1.0274,1.0286,1.0382,1.0635,1.0448,1.0388,1.0641,1.0442,1.0292,1.0292,1.0292,1.04,1.0647,1.1203,1.1647,1.1914,1.2621,1.3,1.3,1.3846,1.3954,1.3261,1.4046,1.484,1.5698,1.6034,1.6429,-0.5326,-0.491,-0.4384,-0.4399,-0.3862,-0.328,-0.3113,-0.3041,-0.2936,-0.2673,-0.2462,-0.2118,-0.1526,-0.1584,-0.1567,-0.1103,-0.074,-0.0387,-0.0045,0.0182,0.0457,0.0854,0.0942,0.1098,0.1454,0.1364,0.1341,0.1474,0.1407,0.1407,0.1518,0.1901,0.219,0.2346,0.2657,0.2904,0.3084,0.3018,0.3015,0.3126,0.3126,0.3148,0.3192,0.3192,0.3491,0.3976,0.3853,0.3945,0.4196,0.4125,0.4485,0.5085,0.5148,0.5332,0.5601,0.5601,0.5796,0.6091,0.6249,0.6624,0.7053,0.7225,0.7752,0.8296,0.8318,0.8493,0.8744,0.9058,0.9151,0.9183,0.9446,0.9516,0.9516,0.9516,0.9642,0.9763,0.9763,0.9763,0.9763,0.9763,0.9979,1.0154,1.0154,1.037,1.0545,1.0545,1.0689,1.0864,1.096,1.0851,1.0864,1.096,1.0888,1.0791,1.0791,1.1154,1.1416,1.1517,1.2356,1.2869,1.2945,1.3777,1.4257,1.4257,1.5182,1.5136,1.4122,1.5144,1.5817,1.6138,1.6523,1.6769,-0.5032,0.0,0.0,-0.406,-0.3491,-0.2958,-0.3046,-0.287,-0.2628,-0.2368,-0.2022,-0.1533,-0.0836,-0.0682,-0.0596,-0.0377,-0.0215,0.0046,0.0562,0.0682,0.0912,0.1479,0.1566,0.1744,0.2077,0.1986,0.1941,0.2032,0.1941,0.1941,0.2073,0.2455,0.2682,0.2726,0.3037,0.3192,0.3192,0.3103,0.3126,0.3262,0.3262,0.3284,0.3328,0.3502,0.3904,0.4506,0.4607,0.4832,0.5056,0.4959,0.5323,0.5937,0.5937,0.6122,0.6362,0.6362,0.6529,0.6814,0.7063,0.7478,0.7937,0.8208,0.8737,0.9239,0.9239,0.9366,0.9516,0.9516,0.9516,0.9516,0.9516,0.9582,0.9648,0.9648,0.9847,1.0033,1.0033,1.0033,1.0033,1.0033,1.0244,1.0424,1.0424,1.0641,1.0815,1.0815,1.1003,1.1111,1.1111,1.1111,1.1111,1.1111,1.1298,1.1409,1.1409,1.1781,1.204,1.2114,1.2989,1.3535,1.3571,1.4724,1.5374,1.5374,1.6123,1.6105,1.5325,1.6105,1.6482,1.6525,1.6769,1.6908,0.0,0.0,0.0,0.0,-0.319,-0.2861,-0.3122,-0.2627,-0.2124,-0.2226,-0.1424,-0.0699,-0.0668,0.0054,0.0579,0.0457,0.0441,0.0613,0.1085,0.1138,0.136,0.1958,0.2036,0.2057,0.2148,0.2148,0.2259,0.2504,0.2526,0.266,0.299,0.3012,0.3078,0.3214,0.3214,0.3214,0.3214,0.3214,0.3284,0.3398,0.3398,0.349,0.3655,0.4108,0.4548,0.4976,0.5306,0.5596,0.5859,0.5855,0.5998,0.6263,0.6263,0.662,0.7139,0.7139,0.7473,0.7949,0.8213,0.8499,0.8764,0.9023,0.9293,0.9516,0.9516,0.9516,0.9516,0.9516,0.9516,0.9484,0.9528,0.9715,0.9907,0.9913,1.0118,1.031,1.031,1.031,1.0316,1.031,1.0521,1.0695,1.0695,1.0942,1.1111,1.1111,1.1111,1.1111,1.1111,1.1111,1.1149,1.1149,1.1669,1.204,1.204,1.2077,1.215,1.2372,1.3135,1.3644,1.3781,1.5401,1.6307,1.6307,1.67,1.6908,1.6908,1.6908,1.6908,1.6908,1.6908,1.6908,-0.4811,0.0,0.0,0.0,0.0,0.0,-0.2461,-0.2333,-0.2033,-0.1283,-0.0897,-0.0544,0.0,0.0722,0.1271,0.1337,0.1345,0.153,0.2097,0.2112,0.2273,0.2871,0.285,0.2938,0.3285,0.3245,0.3187,0.316,0.3062,0.3081,0.3284,0.3376,0.3442,0.349,0.3398,0.3398,0.349,0.3398,0.342,0.3534,0.3534,0.3853,0.4398,0.4531,0.523,0.6344,0.6452,0.6804,0.7295,0.6794,0.6916,0.7434,0.7434,0.7521,0.7687,0.7687,0.788,0.8219,0.8512,0.877,0.9035,0.9312,0.945,0.9516,0.9516,0.9516,0.9516,0.9516,0.9516,0.9558,0.9751,0.9853,0.9955,1.0142,1.0382,1.0575,1.0575,1.0725,1.084,1.0611,1.0828,1.1003,1.1003,1.1063,1.1149,1.1298,1.1335,1.1335,1.1335,1.1706,1.1892,1.1781,1.2298,1.2776,1.3062,1.3426,1.3825,1.4142,1.5046,1.5551,1.5586,1.6333,1.6726,1.6726,1.6839,1.6908,1.6908,1.6908,1.6908,1.6908,1.6908,1.6908,0.0,0.0,0.0,0.0,0.0,0.0,-0.2228,-0.1895,-0.1451,-0.0818,-0.0497,-0.0122,0.0556,0.1081,0.1646,0.2304,0.2399,0.2532,0.2846,0.2837,0.2969,0.3537,0.3523,0.3573,0.3775,0.3725,0.3599,0.3407,0.3328,0.3328,0.3398,0.3534,0.3604,0.3604,0.3534,0.3512,0.3604,0.3512,0.3619,0.3884,0.3995,0.4393,0.5,0.5321,0.598,0.6903,0.7107,0.7468,0.7863,0.7466,0.7541,0.7901,0.7901,0.7901,0.7901,0.7901,0.8069,0.8327,0.8614,0.8878,0.9143,0.9426,0.9516,0.9516,0.9516,0.9516,0.9516,0.9516,0.9594,0.9715,0.9865,1.0069,1.0268,1.0418,1.0659,1.0882,1.0882,1.1003,1.1063,1.0912,1.1009,1.1111,1.1111,1.1111,1.1149,1.126,1.1484,1.1632,1.1632,1.2187,1.2562,1.2622,1.3142,1.3651,1.4042,1.4366,1.4697,1.5018,1.5621,1.6009,1.6088,1.6621,1.6908,1.6908,1.6908,1.6908,1.6908,1.6908,1.6908,1.6908,1.6908,1.6908,-0.4379,-0.4122,0.0,0.0,-0.2486,0.0,-0.2129,-0.1396,-0.0682,-0.0581,-0.0133,0.0427,0.1056,0.1319,0.185,0.3151,0.3445,0.3472,0.345,0.3425,0.3573,0.3991,0.4031,0.396,0.3832,0.3816,0.3701,0.3433,0.342,0.342,0.3398,0.3534,0.3604,0.3604,0.3604,0.3604,0.3604,0.3648,0.3891,0.4349,0.4642,0.5065,0.5577,0.6237,0.6715,0.7024,0.7459,0.7725,0.7901,0.7901,0.7901,0.7901,0.7901,0.7901,0.7907,0.7931,0.8111,0.8369,0.8656,0.8921,0.9185,0.9438,0.9516,0.9516,0.9516,0.9516,0.9516,0.9516,0.9703,0.9913,0.9943,1.0316,1.0725,1.0755,1.0942,1.1111,1.1111,1.1149,1.1186,1.1186,1.1149,1.1111,1.1186,1.1186,1.1223,1.1366,1.1855,1.2187,1.2224,1.2746,1.3222,1.3564,1.4078,1.4589,1.501,1.5046,1.5161,1.5382,1.5542,1.5754,1.5903,1.6551,1.6908,1.6908,1.6908,1.6908,1.6908,1.6908,1.6908,1.6908,1.6908,1.6908,-0.4621,-0.4258,-0.3825,-0.2785,-0.2412,0.0,-0.1278,-0.0924,-0.0576,0.0119,0.0363,0.0683,0.1432,0.1968,0.2459,0.3059,0.3649,0.4091,0.4254,0.4115,0.4115,0.4362,0.4247,0.4115,0.3964,0.395,0.3839,0.3576,0.3556,0.3512,0.3398,0.3534,0.3604,0.3604,0.3604,0.3604,0.3604,0.3972,0.4323,0.4621,0.5047,0.5734,0.6609,0.6759,0.7155,0.7712,0.7797,0.7853,0.7901,0.7901,0.7901,0.7901,0.7901,0.7901,0.7925,0.8135,0.8381,0.8668,0.8933,0.9203,0.9444,0.9498,0.9516,0.9516,0.9516,0.9516,0.9516,0.9516,0.9703,0.9955,1.0166,1.0448,1.0737,1.0985,1.1075,1.1111,1.1111,1.1484,1.1818,1.1818,1.1446,1.126,1.1744,1.1818,1.2144,1.3047,1.331,1.3419,1.3608,1.4013,1.4302,1.4394,1.476,1.5303,1.5982,1.6026,1.6193,1.6551,1.6621,1.6656,1.6691,1.683,1.6908,1.6908,1.6908,1.6908,1.6908,1.6908,1.6908,1.6908,1.6908,1.6908,-0.4725,-0.4308,-0.3827,-0.2732,-0.224,0.0,0.0,-0.0727,-0.034,0.0406,0.052,0.0812,0.1823,0.2216,0.2607,0.3257,0.3726,0.4046,0.4143,0.426,0.4382,0.4481,0.4399,0.4297,0.4122,0.4109,0.3984,0.373,0.3645,0.3578,0.3512,0.3556,0.3604,0.3604,0.3604,0.3711,0.395,0.4188,0.4674,0.5398,0.5781,0.6398,0.7265,0.7347,0.7585,0.7901,0.7901,0.7901,0.7901,0.7901,0.7901,0.7901,0.7901,0.7901,0.7931,0.8195,0.8481,0.8746,0.9005,0.9281,0.9516,0.9516,0.9516,0.9516,0.9516,0.9516,0.9516,0.9516,0.9799,1.013,1.0262,1.0587,1.0948,1.1081,1.1335,1.1558,1.1558,1.2003,1.2452,1.2452,1.2187,1.2077,1.2415,1.2452,1.2556,1.2952,1.3426,1.3753,1.3753,1.441,1.5026,1.5338,1.5586,1.5982,1.6551,1.6586,1.67,1.6874,1.6908,1.6908,1.6908,1.6908,1.6908,1.6908,1.7101,1.7202,1.7202,1.7413,1.7403,1.7193,1.7,1.7009,-0.479,-0.429,-0.3764,-0.273,-0.2141,-0.1658,0.0,0.0,0.0,0.0545,0.0684,0.1038,0.2137,0.2347,0.2617,0.3395,0.3656,0.3761,0.3788,0.4156,0.4395,0.4365,0.4385,0.4331,0.419,0.4129,0.4004,0.3809,0.3632,0.3548,0.36,0.3604,0.3604,0.3604,0.3689,0.3928,0.4294,0.4529,0.5159,0.6192,0.6547,0.7041,0.7654,0.7826,0.7901,0.7901,0.7901,0.7901,0.7901,0.7901,0.7901,0.7901,0.7901,0.7901,0.7937,0.8249,0.8524,0.8752,0.9065,0.9324,0.9516,0.9516,0.958,0.9638,0.9638,0.9638,0.965,0.9576,0.9931,1.031,1.0358,1.0755,1.1149,1.126,1.1632,1.204,1.215,1.2636,1.3076,1.3076,1.3222,1.3295,1.3185,1.3185,1.3149,1.3098,1.3753,1.4222,1.4106,1.4832,1.5594,1.6132,1.6272,1.6447,1.6874,1.6908,1.6908,1.6908,1.6908,1.6908,1.6908,1.6908,1.6945,1.7018,1.733,1.7541,1.7614,1.7954,1.7917,1.7605,1.7202,1.7229,-0.4825,-0.4225,-0.3452,-0.2616,-0.2315,-0.1966,-0.097,0.0,0.0286,0.0759,0.0,0.1684,0.2355,0.0,0.0,0.3162,0.346,0.3672,0.3775,0.3951,0.4019,0.3883,0.3985,0.4038,0.4021,0.3809,0.3693,0.3785,0.3512,0.3414,0.3593,0.3604,0.3604,0.3604,0.4012,0.4254,0.4294,0.5358,0.6082,0.6457,0.7146,0.7615,0.7859,0.7883,0.7901,0.7901,0.7901,0.7901,0.7901,0.7901,0.7901,0.7901,0.7901,0.7901,0.7961,0.8481,0.868,0.8782,0.9293,0.9492,0.9516,0.9516,0.983,1.0206,1.0206,1.0206,1.0168,0.9925,1.0069,1.0346,1.0581,1.0894,1.1223,1.1781,1.1966,1.215,1.2673,1.3258,1.3688,1.3688,1.4374,1.4768,1.423,1.4122,1.4517,1.5657,1.5842,1.5947,1.621,1.6088,1.6132,1.6508,1.6403,1.6447,1.6874,1.6908,1.6908,1.6908,1.6908,1.6908,1.6908,1.6908,1.7073,1.7422,1.7477,1.7678,1.8017,1.8063,1.8063,1.7999,1.7623,1.7651,-0.49,-0.4186,-0.3365,-0.2644,-0.218,-0.1713,-0.0984,-0.035,0.0244,0.0842,0.0,0.0,0.0,0.0,0.0,0.0,0.3137,0.3262,0.3285,0.3425,0.3635,0.3876,0.3957,0.3994,0.3994,0.3751,0.3662,0.3782,0.3495,0.3394,0.3593,0.3604,0.3733,0.3994,0.4351,0.4789,0.5335,0.5994,0.6612,0.7152,0.744,0.7715,0.7901,0.7901,0.7901,0.7901,0.7901,0.7901,0.7901,0.7901,0.7901,0.7928,0.8209,0.8228,0.8171,0.8572,0.8806,0.9017,0.9725,0.9958,1.0021,1.0269,1.0516,1.0649,1.0396,1.0301,1.0238,0.9961,1.0094,1.0422,1.1045,1.1424,1.1781,1.2378,1.2776,1.3098,1.3368,1.3876,1.4346,1.4553,1.4911,1.5275,1.5417,1.5303,1.5267,1.5594,1.5709,1.5806,1.593,1.6053,1.6237,1.6568,1.6621,1.6735,1.6874,1.6908,1.6908,1.6908,1.6908,1.7009,1.7238,1.7248,1.744,1.7853,1.8091,1.8293,1.8467,1.8696,1.8806,1.8788,1.8155,1.7954,-0.4681,-0.398,-0.3169,-0.2614,-0.2076,-0.1548,-0.1059,-0.0354,0.0336,0.0848,0.126,0.0,0.0,0.0,0.0,0.0,0.0,0.2994,0.2977,0.3078,0.3303,0.3714,0.3859,0.3958,0.3958,0.3727,0.3662,0.3782,0.3495,0.3411,0.3651,0.3732,0.3991,0.4441,0.4864,0.5445,0.6191,0.6594,0.7079,0.7595,0.7648,0.7762,0.7901,0.7901,0.7901,0.7901,0.7901,0.7901,0.7901,0.8029,0.8082,0.8141,0.8691,0.8867,0.8814,0.9015,0.926,0.9598,1.026,1.0491,1.0555,1.0895,1.0982,1.0926,1.0428,1.0455,1.0613,1.0338,1.0573,1.1086,1.1768,1.2108,1.2409,1.3003,1.347,1.3869,1.4122,1.4489,1.4883,1.5275,1.5453,1.5665,1.6202,1.6088,1.5877,1.57,1.5736,1.5806,1.5895,1.6088,1.6333,1.6647,1.6795,1.6908,1.6908,1.6908,1.6954,1.7064,1.7064,1.7248,1.7651,1.7669,1.7862,1.8246,1.8568,1.876,1.8871,1.9321,1.9474,1.9392,1.8768,1.8564,-0.409,-0.3484,-0.2753,-0.2481,-0.2149,-0.1755,-0.121,-0.0182,0.071,0.0788,0.1529,0.2209,0.2292,0.2462,0.0,0.0,0.0,0.0,0.0,0.3092,0.3028,0.3125,0.3534,0.3799,0.3799,0.3689,0.3662,0.3782,0.3495,0.3455,0.3768,0.4096,0.4457,0.4878,0.5645,0.6207,0.6484,0.72,0.7589,0.7595,0.779,0.7889,0.7901,0.7901,0.7901,0.7901,0.7901,0.7901,0.7928,0.8395,0.8573,0.8652,0.9377,0.982,1.0028,1.0042,1.0272,1.0579,1.0878,1.0989,1.0989,1.0982,1.0982,1.0926,1.0428,1.089,1.1511,1.1234,1.1756,1.2508,1.2765,1.2856,1.3003,1.3615,1.3796,1.4049,1.4947,1.5161,1.5303,1.5692,1.6053,1.6272,1.6307,1.6307,1.6412,1.6795,1.6682,1.6647,1.683,1.6682,1.6647,1.6874,1.6908,1.6908,1.6908,1.6908,1.7064,1.7449,1.7477,1.766,1.8045,1.8063,1.8255,1.8687,1.8705,1.8898,1.9283,1.9883,1.9985,1.9601,1.9572,1.9755,-0.3972,-0.3271,-0.2462,-0.2404,-0.2015,-0.1502,-0.101,-0.0206,0.0517,0.0808,0.1444,0.2052,0.2425,0.0,0.0,0.0,0.0,0.0,0.0,0.293,0.2803,0.3008,0.3285,0.3478,0.3478,0.3435,0.3425,0.3475,0.3363,0.3542,0.4103,0.4418,0.4918,0.5669,0.6296,0.6828,0.7231,0.76,0.779,0.779,0.7859,0.7901,0.7901,0.7901,0.7901,0.7901,0.7901,0.8082,0.8368,0.8521,0.8863,0.9337,1.0134,1.0745,1.1179,1.0872,1.0942,1.1261,1.1695,1.1771,1.1709,1.1957,1.1833,1.149,1.1334,1.166,1.2011,1.179,1.2117,1.2664,1.3317,1.3651,1.3949,1.4425,1.4848,1.5161,1.5346,1.5488,1.57,1.6053,1.6237,1.6377,1.6656,1.67,1.6735,1.6874,1.6716,1.6682,1.6874,1.6716,1.6682,1.6874,1.6908,1.6908,1.6908,1.7147,1.7468,1.788,1.7908,1.8091,1.8495,1.8513,1.8696,1.9091,1.91,1.936,1.9893,2.0089,2.0353,2.0667,2.1057,2.0987,-0.3406,-0.2771,-0.2057,-0.196,-0.1601,-0.1132,-0.0628,0.0019,0.0617,0.0993,0.1639,0.2254,0.2722,0.3056,0.0,0.0,0.0,0.0,0.0,0.3095,0.2978,0.302,0.3179,0.3305,0.3404,0.3465,0.3559,0.3655,0.3566,0.3839,0.4576,0.4837,0.5367,0.6277,0.6842,0.7331,0.7715,0.7838,0.7901,0.7901,0.7901,0.7901,0.7901,0.8082,0.8162,0.8162,0.8295,0.858,0.8961,0.9112,0.9568,1.026,1.1037,1.1709,1.2203,1.1895,1.1948,1.2266,1.2566,1.2513,1.239,1.2613,1.2359,1.1957,1.1825,1.2204,1.2644,1.2621,1.3026,1.3625,1.4247,1.4625,1.4875,1.507,1.5453,1.5798,1.578,1.5885,1.6088,1.6447,1.6517,1.6586,1.6874,1.6908,1.6908,1.6908,1.6795,1.6751,1.6874,1.6795,1.6806,1.7066,1.711,1.7174,1.7321,1.7568,1.7899,1.8311,1.8292,1.8513,1.8907,1.9119,1.9357,1.9608,1.9844,2.0157,2.0547,2.0789,2.1098,2.151,2.2128,2.2083]},{"header":{"parameterUnit":"m.s-1","parameterCategory":1,"la1":30.6,"la2":29.2853,"lo1":-89.7004,"lo2":-87.6739,"dy":0.0162,"dx":0.0183,"nx":112,"ny":82,"refTime":"2026-03-11T12:00:00:Z","depth":0,"parameterNumber":3,"parameterNumberName":"V-component_of_WINDS"},"data":[0.0,0.0,0.0,0.0,0.0,0.0,0.0,0.0,0.0,0.0,0.0,0.0,0.0,0.0,0.0,0.0,0.0,0.0,0.0,0.0,0.0,0.0,0.0,0.0,0.0,0.0,0.0,0.0,0.0,0.0,0.0,0.0,0.0,0.0,0.0,0.0,0.0,0.0,0.0,0.0,0.0,0.0,0.0,0.0,0.0,0.0,0.0,0.0,0.0,0.0,0.0,0.0,0.0,0.0,0.0,0.0,0.0,0.0,0.0,0.0,0.0,0.0,0.0,0.0,0.0,0.0,0.0,0.0,0.0,0.0,0.0,0.0,0.0,0.0,0.0,0.0,0.0,0.0,0.0,0.0,0.0,0.0,0.0,0.0,0.0,0.0,0.0,0.0,0.0,0.0,-0.2896,-0.3407,-0.3877,-0.4429,-0.5082,-0.5123,-0.5312,-0.5838,0.0,0.0,0.0,0.0,0.0,0.0,0.0,0.0,0.0,0.0,0.0,0.0,0.0,0.0,0.0,0.0,0.0,0.0,0.0,0.0,0.0,0.0,0.0,0.0,0.0,0.0,0.0,0.0,0.0,0.0,0.0,0.0,0.0,0.0,0.0,0.0,0.0,0.0,0.0,0.0,0.0,0.0,0.0,0.0,0.0,0.0,0.0,0.0,0.0,0.0,0.0,0.0,0.0,0.0,0.0,0.0,0.0,0.0,0.0,0.0,0.0,0.0,0.0,0.0,0.0,0.0,0.0,0.0,0.0,0.0,0.0,0.0,0.0,0.0,0.0,0.0,0.0,0.0,0.0,0.0,0.0,0.0,0.0,0.0,0.0,0.0,0.0,0.0,0.0,0.0,0.0,0.0,0.0,0.0,0.0,0.0,0.0,0.0,0.0,0.0,0.0,0.0,0.0,0.0,-0.297,-0.3653,-0.3902,-0.4115,-0.4343,-0.4823,-0.5161,-0.5306,0.0,0.0,0.0,0.0,0.0,0.0,0.0,0.0,0.0,0.0,0.0,0.0,0.0,0.0,0.0,0.0,0.0,0.0,0.0,0.0,0.0,0.0,0.0,0.0,0.0,0.0,0.0,0.0,0.0,0.0,0.0,0.0,0.0,0.0,0.0,0.0,0.0,0.0,0.0,0.0,0.0,0.0,0.0,0.0,0.0,0.0,0.0,0.0,0.0,0.0,0.0,0.0,0.0,0.0,0.0,0.0,0.0,0.0,0.0,0.0,0.0,0.0,0.0,0.0,0.0,0.0,0.0,0.0,0.0,0.0,0.0,0.0,0.0,0.0,0.0,0.0,0.0,0.0,0.0,0.0,0.0,0.0,0.0,0.0,0.0,0.0,0.0,0.0,0.0,0.0,0.0,0.0,0.0,0.0,0.0,0.0,0.0,0.0,0.0,0.0,0.0,0.0,0.0,-0.2805,-0.3085,-0.3623,-0.3887,-0.4024,-0.4098,-0.4345,-0.4593,-0.4813,-0.4572,0.0,0.0,0.0,0.0,0.0,0.0,0.0,0.0,0.0,0.0,0.0,0.0,0.0,0.0,0.0,0.0,0.0,0.0,0.0,0.0,0.0,0.0,0.0,0.0,0.0,0.0,0.0,0.0,0.0,0.0,0.0,0.0,0.0,0.0,0.0,0.0,0.0,0.0,0.0,0.0,0.0,0.0,0.0,0.0,0.0,0.0,0.0,0.0,0.0,0.0,0.0,0.0,0.0,0.0,0.0,0.0,0.0,0.0,0.0,0.0,0.0,0.0,0.0,0.0,0.0,0.0,0.0,0.0,0.0,0.0,0.0,0.0,0.0,0.0,0.0,0.0,0.0,0.0,0.0,0.0,0.0,0.0,0.0,0.0,0.0,0.0,0.0,0.0,0.0,0.0,0.0,0.0,0.0,0.0,0.0,0.0,0.0,0.0,0.0,0.0,0.0,0.0,-0.2956,-0.3194,-0.3565,-0.3782,-0.3893,-0.3916,-0.3873,-0.3992,-0.4339,-0.3829,0.0,0.0,0.0,0.0,0.0,0.0,0.0,0.0,0.0,0.0,0.0,0.0,0.0,0.0,0.0,0.0,0.0,0.0,0.0,0.0,0.0,0.0,0.0,0.0,0.0,0.0,0.0,0.0,0.0,0.0,0.0,0.0,0.0,0.0,0.0,0.0,0.0,0.0,0.0,0.0,0.0,0.0,0.0,0.0,0.0,0.0,0.0,0.0,0.0,0.0,0.0,0.0,0.0,0.0,0.0,0.0,0.0,0.0,0.0,0.0,0.0,0.0,0.0,0.0,0.0,0.0,0.0,0.0,0.0,0.0,0.0,0.0,0.0,0.0,0.0,0.0,0.0,0.0,0.0,0.0,0.0,0.0,0.0,0.0,0.0,0.0,0.0,0.0,0.0,0.0,0.0,0.0,0.0,0.0,0.0,0.0,0.0,0.0,0.0,0.0,0.0,0.0,-0.2946,-0.3282,-0.3574,-0.3623,-0.3629,-0.3626,-0.3468,-0.3519,-0.3915,-0.3551,0.0,0.0,0.0,0.0,0.0,0.0,0.0,0.0,0.0,0.0,0.0,0.0,0.0,0.0,0.0,0.0,0.0,0.0,0.0,0.0,0.0,0.0,0.0,0.0,0.0,0.0,0.0,0.0,0.0,0.0,0.0,0.0,0.0,0.0,0.0,0.0,0.0,0.0,0.0,0.0,0.0,0.0,0.0,0.0,0.0,0.0,0.0,0.0,0.0,0.0,0.0,0.0,0.0,0.0,0.0,0.0,0.0,0.0,0.0,0.0,0.0,0.0,0.0,0.0,0.0,0.0,0.0,0.0,0.0,0.0,0.0,0.0,0.0,0.0,0.0,0.0,0.0,0.0,0.0,0.0,0.0,0.0,0.0,0.0,0.0,0.0,0.0,0.0,0.0,0.0,0.0,0.0,0.0,0.0,0.0,0.0,0.0,0.0,0.0,0.0,0.0,0.0,-0.2842,-0.3107,-0.3326,-0.349,-0.3531,-0.3368,-0.3357,-0.3385,-0.3465,0.0,0.0,0.0,0.0,0.0,0.0,0.0,0.0,0.0,0.0,0.0,0.0,0.0,0.0,0.0,0.0,0.0,0.0,0.0,0.0,0.0,0.0,0.0,0.0,0.0,0.0,0.0,0.0,0.0,0.0,0.0,0.0,0.0,0.0,0.0,0.0,0.0,0.0,0.0,0.0,0.0,0.0,0.0,0.0,0.0,0.0,0.0,0.0,0.0,0.0,0.0,0.0,0.0,0.0,0.0,0.0,0.0,0.0,0.0,0.0,0.0,0.0,0.0,0.0,0.0,0.0,0.0,0.0,0.0,0.0,0.0,0.0,0.0,0.0,0.0,0.0,0.0,0.0,0.0,0.0,0.0,0.0,0.0,0.0,0.0,0.0,0.0,0.0,0.0,0.0,0.0,0.0,0.0,0.0,0.0,0.0,0.0,0.0,0.0,0.0,0.0,0.0,-0.2399,-0.267,-0.291,-0.3082,-0.3265,-0.3324,-0.315,-0.3118,-0.3085,-0.3022,0.0,0.0,0.0,0.0,0.0,0.0,0.0,0.0,0.0,0.0,0.0,0.0,0.0,0.0,0.0,0.0,0.0,0.0,0.0,0.0,0.0,0.0,0.0,0.0,0.0,0.0,0.0,0.0,0.0,0.0,0.0,0.0,0.0,0.0,0.0,0.0,0.0,0.0,0.0,0.0,0.0,0.0,0.0,0.0,0.0,0.0,0.0,0.0,0.0,0.0,0.0,0.0,0.0,0.0,0.0,0.0,0.0,0.0,0.0,0.0,0.0,0.0,0.0,0.0,0.0,0.0,0.0,0.0,0.0,0.0,0.0,0.0,0.0,0.0,0.0,0.0,0.0,0.0,0.0,0.0,0.0,0.0,0.0,0.0,0.0,0.0,0.0,0.0,0.0,0.0,0.0,0.0,0.0,0.0,0.0,0.0,0.0,0.0,0.0,0.0,0.0,0.0,-0.2086,-0.2449,-0.2758,-0.2879,-0.2903,-0.2929,-0.2997,-0.2692,-0.2523,0.0,0.0,0.0,0.0,0.0,0.0,0.0,0.0,0.0,0.0,0.0,0.0,0.0,0.0,0.0,0.0,0.0,0.0,0.0,0.0,0.0,0.0,0.0,0.0,0.0,0.0,0.0,0.0,0.0,0.0,0.0,0.0,0.0,0.0,0.0,0.0,0.0,0.0,0.0,0.0,0.0,0.0,0.0,0.0,0.0,0.0,0.0,0.0,0.0,0.0,0.0,0.0,0.0,0.0,0.0,0.0,0.0,0.0,0.0,0.0,0.0,0.0,0.0,0.0,0.0,0.0,0.0,0.0,0.0,0.0,0.0,0.0,0.0,0.0,0.0,0.0,0.0,0.0,0.0,0.0,0.0,0.0,0.0,0.0,0.0,0.0,0.0,0.0,0.0,0.0,0.0,0.0,0.0,0.0,0.0,0.0,0.0,0.0,0.0,0.0,0.0,0.0,0.0,-0.192,-0.2276,-0.2529,-0.2597,-0.2714,-0.272,-0.2585,-0.248,-0.2419,-0.2392,0.0,0.0,0.0,0.0,0.0,0.0,0.0,0.0,0.0,0.0,0.0,0.0,0.0,0.0,0.0,0.0,0.0,0.0,0.0,0.0,0.0,0.0,0.0,0.0,0.0,0.0,0.0,0.0,0.0,0.0,0.0,0.0,0.0,0.0,0.0,0.0,0.0,0.0,0.0,0.0,0.0,0.0,0.0,0.0,0.0,0.0,0.0,0.0,0.0,0.0,0.0,0.0,0.0,0.0,0.0,0.0,0.0,0.0,0.0,0.0,0.0,0.0,0.0,0.0,0.0,0.0,0.0,0.0,0.0,0.0,0.0,0.0,0.0,0.0,0.0,0.0,0.0,0.0,0.0,0.0,0.0,0.0,0.0,0.0,0.0,0.0,0.0,0.0,0.0,0.0,0.0,0.0,0.0,0.0,0.0,0.0,0.0,0.0,0.0,0.0,0.0,0.0,-0.1353,-0.1607,-0.1777,-0.1852,-0.1944,-0.1945,-0.1897,-0.1833,-0.1802,-0.1773,0.0,0.0,0.0,0.0,0.0,0.0,0.0,0.0,0.0,0.0,0.0,0.0,0.0,0.0,0.0,0.0,0.0,0.0,0.0,0.0,0.0,0.0,0.0,0.0,0.0,0.0,0.0,0.0,0.0,0.0,0.0,0.0,0.0,0.0,0.0,0.0,0.0,0.0,0.0,0.0,0.0,0.0,0.0,0.0,0.0,0.0,0.0,0.0,0.0,0.0,0.0,0.0,0.0,0.0,0.0,0.0,0.0,0.0,0.0,0.0,0.0,0.0,0.0,0.0,0.0,0.0,0.0,0.0,0.0,0.0,0.0,0.0,0.0,0.0,0.0,0.0,0.0,0.0,0.0,0.0,0.0,0.0,0.0,0.0,0.0,0.0,0.0,0.0,0.0,0.0,0.0,0.0,0.0,0.0,0.0,0.0,0.0,0.0,0.0,0.0,0.0,0.0,-0.0574,-0.0687,-0.08,-0.0881,-0.0884,-0.0935,-0.106,-0.0956,-0.0914,-0.0977,0.0,0.0,0.0,0.0,0.0,0.0,0.0,0.0,0.0,0.0,0.0,0.0,0.0,0.0,0.0,0.0,0.0,0.0,0.0,0.0,0.0,0.0,0.0,0.0,0.0,0.0,0.0,0.0,0.0,0.0,0.0,0.0,0.0,0.0,0.0,0.0,0.0,0.0,0.0,0.0,0.0,0.0,0.0,0.0,0.0,0.0,0.0,0.0,0.0,0.0,0.0,0.0,0.0,0.0,0.0,0.0,0.0,0.0,0.0,0.0,0.3938,0.3488,0.0,0.0,0.0,0.0,0.0,0.0,0.0,0.0,0.0,0.0,0.0,0.0,0.0,0.0,0.0,0.0,0.0,0.0,0.0,0.0,0.0,0.0,0.0,0.0,0.0,0.0,0.0,0.0,0.0,0.0,0.0,0.0,0.0,0.0,0.0,0.0,0.0,0.0,0.0,0.0,-0.0417,-0.0504,-0.0632,-0.0802,-0.0826,-0.0811,-0.0793,-0.0763,-0.0757,-0.0759,-0.0646,0.0,0.0,0.0,0.0,0.0,0.0,0.0,0.0,0.0,0.0,0.0,0.0,0.0,0.0,0.0,0.0,0.0,0.0,0.0,0.0,0.0,0.0,0.0,0.0,0.0,0.0,0.0,0.0,0.0,0.0,0.0,0.0,0.0,0.0,0.0,0.0,0.0,0.0,0.0,0.0,0.0,0.0,0.0,0.0,0.0,0.0,0.0,0.0,0.0,0.0,0.0,0.0,0.0,0.0,0.0,0.0,0.0,0.0,0.0,0.4773,0.432,0.0,0.0,0.0,0.0,0.0,0.0,0.0,0.0,0.0,0.0,0.0,0.0,0.0,0.0,0.0,0.0,0.0,0.0,0.0,0.0,0.0,0.0,0.0,0.0,0.0,0.0,0.0,0.0,0.0,0.0,0.0,0.0,0.0,0.0,0.0,0.0,0.0,0.0,0.0,0.0,0.0232,0.02,0.013,0.0019,0.002,0.0038,0.0073,0.0018,-0.0035,-0.0081,-0.0137,0.0,0.0,0.0,0.0,0.0,0.0,0.0,0.0,0.0,0.0,0.0,0.0,0.0,0.0,0.0,0.0,0.0,0.0,0.0,0.0,0.0,0.0,0.0,0.0,0.0,0.0,0.0,0.0,0.0,0.0,0.0,0.0,0.0,0.0,0.0,0.0,0.0,0.0,0.0,0.0,0.0,0.0,0.0,0.0,0.0,0.0,0.0,0.0,0.0,0.0,0.0,0.0,0.0,0.622,0.6227,0.5918,0.5983,0.6304,0.6767,0.5767,0.5378,0.5391,0.4797,0.0,0.0,0.0,0.0,0.0,0.0,0.0,0.0,0.0,0.0,0.0,0.0,0.0,0.0,0.0,0.0,0.0,0.0,0.0,0.0,0.0,0.0,0.295,0.2726,0.2722,0.2589,0.1933,0.0,0.0,0.0,0.0,0.0,0.0,0.0,0.0,0.0,0.0,0.0,0.0884,0.09,0.0896,0.0878,0.0882,0.0886,0.0885,0.0773,0.0693,0.0645,0.0433,0.0301,0.0,0.0,0.0,0.0,0.0,0.0,0.0,0.0,0.0,0.0,0.0,0.0,0.0,0.0,0.0,0.0,0.0,0.0,0.0,0.0,0.0,0.0,0.0,0.0,0.0,0.0,0.0,0.0,0.0,0.0,0.0,0.0,0.8086,0.8496,0.0,0.0,0.0,0.0,0.0,0.0,0.0,0.0,0.0,0.0,0.0,0.0,0.0,0.7842,0.7749,0.8019,0.7968,0.757,0.7856,0.7842,0.7585,0.7585,0.7656,0.7699,0.7258,0.0,0.5954,0.5347,0.0,0.0,0.0,0.0,0.0,0.0,0.0,0.0,0.0,0.0,0.0,0.0,0.0,0.0,0.0,0.0,0.0,0.0,0.0,0.0,0.0,0.0,0.412,0.3855,0.3792,0.3713,0.3387,0.2713,0.2095,0.1786,0.172,0.1674,0.0,0.0,0.0,0.0,0.0,0.0,0.091,0.0902,0.087,0.0824,0.0808,0.0806,0.0817,0.0799,0.0777,0.0782,0.0745,0.0798,0.0959,0.0858,0.0,0.0,0.0,0.0,0.0,0.0,0.0,0.0,0.0,0.0,0.0,0.0,0.0,0.0,0.0,0.0,0.0,0.0,0.0,0.0,0.0,0.0,0.0,0.0,0.0,0.0,0.0,0.0,0.0,0.8158,0.8412,0.8812,0.867,0.8472,0.0,0.0,0.0,0.0,0.0,0.0,0.0,0.0,0.0,0.7822,0.847,0.8836,0.8888,0.8915,0.8866,0.8677,0.8311,0.8063,0.7952,0.7724,0.7623,0.7616,0.7454,0.719,0.6793,0.6348,0.5957,0.5621,0.0,0.0,0.0,0.0,0.5252,0.5232,0.5162,0.5109,0.5053,0.4998,0.0,0.0,0.0,0.0,0.0,0.0,0.0,0.5034,0.4884,0.4904,0.4891,0.4586,0.4447,0.4295,0.3947,0.3663,0.3288,0.2601,0.2292,0.2064,0.185,0.1783,0.0,0.0,0.0,0.1509,0.1518,0.151,0.1544,0.164,0.164,0.1607,0.154,0.1492,0.1477,0.1477,0.1443,0.14,0.1384,0.1331,0.1335,0.0,0.0,0.0,0.0,0.0,0.0,0.0,0.0,0.0,0.0,0.0,0.0,0.0,0.0,0.0,0.0,0.0,0.0,0.0,0.0,0.0,0.0,0.0,0.0,0.0,0.0,0.0,0.0,0.879,0.8958,0.9227,0.9257,0.9153,0.0,0.0,0.0,0.0,0.0,0.0,0.836,0.8606,0.8789,0.8885,0.9409,0.9696,0.9653,0.9547,0.949,0.9475,0.8824,0.8506,0.8498,0.8104,0.794,0.7919,0.7741,0.7704,0.7758,0.7154,0.6823,0.6677,0.6271,0.6047,0.5913,0.5993,0.5968,0.5908,0.5945,0.589,0.5826,0.5857,0.5806,0.5705,0.5729,0.0,0.0,0.0,0.0,0.606,0.5858,0.5704,0.554,0.5297,0.5083,0.4872,0.4572,0.4557,0.4317,0.3424,0.2958,0.2626,0.2363,0.232,0.0,0.1817,0.1905,0.2044,0.2101,0.2095,0.2161,0.2308,0.2322,0.2289,0.2186,0.2125,0.2095,0.2095,0.2,0.1899,0.1817,0.1716,0.1729,0.1854,0.0,0.0,0.0,0.0,0.0,0.0,0.0,0.0,0.0,0.0,0.0,0.0,0.0,0.0,0.0,0.0,0.0,0.0,0.0,0.0,0.0,0.0,0.0,0.0,0.0,0.0,0.0,0.0,0.0,1.0224,1.0234,0.0,0.0,0.0,0.0,0.9455,0.9124,0.9245,0.9954,1.0121,1.0208,1.0196,1.0593,1.0588,1.0077,1.0056,1.003,0.9973,0.9911,0.9902,0.9894,0.9553,0.9393,0.9355,0.8654,0.8578,0.8809,0.7452,0.7156,0.7475,0.6752,0.6702,0.7005,0.6886,0.6914,0.6978,0.6725,0.6646,0.6672,0.6873,0.7003,0.7073,0.6962,0.6709,0.0,0.0,0.651,0.6658,0.6645,0.6398,0.6155,0.6143,0.5893,0.5642,0.562,0.5331,0.4836,0.4105,0.3738,0.3522,0.3427,0.0,0.2626,0.2465,0.2415,0.2385,0.2374,0.2374,0.2391,0.2391,0.2391,0.2391,0.2391,0.2391,0.2374,0.2374,0.2204,0.2166,0.2356,0.2052,0.1914,0.1994,0.2105,0.0,0.0,0.0,0.0,0.0,0.0,0.0,0.0,0.0,0.0,0.0,0.0,0.0,0.0,0.0,0.0,0.0,0.0,0.0,0.0,0.0,0.0,0.0,0.0,0.0,0.0,0.0,0.0,1.2218,1.2296,0.0,1.144,1.1244,1.114,1.1115,1.0725,1.0735,1.1303,1.1377,1.1366,1.1333,1.1441,1.1381,1.1123,1.0794,1.0601,1.0572,1.0011,0.9781,0.9855,0.9491,0.9327,0.9351,0.9099,0.9068,0.9151,0.8654,0.8466,0.8477,0.8216,0.8207,0.834,0.8365,0.8266,0.8126,0.8026,0.7853,0.7658,0.7643,0.7676,0.7724,0.7752,0.7698,0.7545,0.7363,0.7381,0.7418,0.7152,0.7025,0.6943,0.6873,0.6522,0.6198,0.6096,0.5947,0.5658,0.5127,0.4528,0.4063,0.3917,0.3696,0.3385,0.2957,0.2944,0.2936,0.2811,0.278,0.2827,0.2959,0.2975,0.3019,0.311,0.311,0.3107,0.3107,0.3045,0.3,0.2979,0.2868,0.283,0.2901,0.2823,0.2835,0.0,0.0,0.0,0.0,0.0,0.0,0.0,0.0,0.0,0.0,0.0,0.0,0.0,0.0,0.0,0.0,0.0,0.0,0.0,0.0,0.0,0.0,0.0,0.0,0.0,1.2251,1.2609,1.3324,1.3533,1.3395,1.2804,1.271,1.258,1.2265,1.2067,1.1962,1.1975,1.2115,1.2033,1.1689,1.1625,1.1502,1.1331,1.0993,1.0794,1.0794,1.0213,0.9981,1.006,0.9795,0.9705,0.9736,0.9607,0.9626,0.9736,0.9587,0.9547,0.9507,0.9208,0.9197,0.9337,0.9257,0.9088,0.8861,0.8595,0.8222,0.7886,0.787,0.7902,0.798,0.8164,0.8164,0.8057,0.7854,0.7767,0.7666,0.7372,0.7327,0.7304,0.711,0.6826,0.6553,0.6343,0.6259,0.6156,0.5884,0.5425,0.4947,0.4565,0.4441,0.4229,0.3684,0.3679,0.3657,0.3395,0.3441,0.3551,0.3695,0.371,0.3781,0.3963,0.3977,0.3965,0.3965,0.378,0.3646,0.3599,0.3499,0.3471,0.3567,0.3616,0.3715,0.387,0.0,0.0,0.0,0.0,0.0,0.0,0.0,0.0,0.0,0.0,0.0,0.0,0.0,0.0,0.0,0.0,0.0,0.0,0.0,0.0,0.0,0.0,0.0,1.264,1.3012,1.3337,1.3477,1.3904,1.3834,1.2981,1.3661,1.377,1.2828,1.3151,1.2952,1.2027,1.2408,1.2226,1.1277,1.1236,1.1045,1.064,1.0621,1.0602,1.0621,1.0602,1.0602,1.0602,1.0602,1.0602,1.0582,1.0186,1.0244,1.0582,1.0196,1.0264,1.0525,0.9677,0.9626,0.9961,0.9518,0.9339,0.9217,0.8419,0.7788,0.7384,0.7557,0.77,0.7877,0.8201,0.8122,0.7895,0.7825,0.7629,0.7398,0.7328,0.7306,0.7246,0.6907,0.6826,0.6725,0.6408,0.6327,0.6327,0.6327,0.6391,0.6214,0.5444,0.5258,0.5064,0.4669,0.4612,0.0,0.4146,0.4337,0.4489,0.4489,0.4489,0.4601,0.4881,0.4909,0.4903,0.489,0.4343,0.4072,0.4198,0.3904,0.3799,0.3943,0.4442,0.4667,0.4599,0.0,0.0,0.0,0.0,0.0,0.0,0.0,0.0,0.0,0.0,0.0,0.0,0.0,0.0,0.0,0.0,0.0,0.0,0.0,0.0,0.0,1.3433,1.395,1.4233,1.4703,1.5179,1.5605,1.5758,1.5614,1.5036,1.5188,1.5075,1.4495,1.4541,1.4306,1.3662,1.3751,1.3353,1.2329,1.1951,1.1687,1.1542,1.0916,1.0755,1.1029,1.0736,1.0659,1.0746,1.0746,1.0765,1.0813,1.0709,1.0728,1.0813,1.0709,1.0728,1.0785,1.039,1.0332,1.0428,1.0409,1.0235,0.9904,0.9103,0.869,0.8475,0.8211,0.8131,0.8184,0.8271,0.8244,0.8139,0.7871,0.7928,0.7948,0.7492,0.7592,0.7754,0.7502,0.7268,0.7081,0.7028,0.6995,0.6893,0.6698,0.7074,0.7044,0.5867,0.5447,0.5209,0.4992,0.4919,0.4719,0.4233,0.4231,0.4279,0.4279,0.4279,0.4469,0.4928,0.4972,0.4871,0.4622,0.446,0.4376,0.4417,0.456,0.4725,0.491,0.4771,0.469,0.0,0.0,0.0,0.0,0.0,0.0,0.0,0.0,0.0,0.0,0.0,0.0,0.0,0.0,0.0,0.0,0.0,0.0,0.0,0.0,0.0,0.0,1.4438,1.4871,1.5304,1.5593,1.5981,1.6514,1.6522,1.638,1.6129,1.6086,1.5888,1.5434,1.5191,1.4753,1.4042,1.376,1.328,1.2468,1.2181,1.2016,1.1993,1.1479,1.1348,1.1571,1.1348,1.1274,1.133,1.133,1.1359,1.1407,1.1407,1.1306,1.1145,1.1145,1.1042,1.0881,0.0,0.0,0.0,0.0,1.0539,1.0056,0.9533,0.9177,0.8889,0.8511,0.8404,0.8425,0.8348,0.8284,0.8156,0.7913,0.7922,0.7916,0.7544,0.7714,0.7932,0.7681,0.7577,0.7512,0.7407,0.7355,0.7217,0.6827,0.7244,0.0,0.6238,0.5999,0.5894,0.5686,0.5611,0.5367,0.4735,0.4735,0.4723,0.4552,0.4681,0.495,0.539,0.5539,0.0,0.0,0.0,0.5262,0.5374,0.5646,0.0,0.0,0.0,0.0,0.0,0.0,0.0,0.0,0.5606,0.5529,0.0,0.0,0.0,0.0,0.0,0.0,0.0,0.0,0.0,0.0,0.0,0.0,0.0,0.0,0.0,0.0,1.5396,1.5633,1.6124,1.614,1.6263,1.6655,1.662,1.6543,1.6543,1.6543,1.6333,1.5847,1.5378,1.4672,1.3717,1.3162,0.0,0.0,0.0,1.2204,1.2222,1.2156,1.212,1.2168,1.2131,1.2113,1.2095,1.2113,1.2113,1.2113,1.2131,1.192,1.1579,1.1579,1.1378,1.1042,1.0957,1.0957,1.0995,1.0968,1.0578,1.0009,0.9788,0.0,0.0,0.8606,0.856,0.8618,0.8459,0.8269,0.8099,0.7999,0.7826,0.7666,0.7598,0.7787,0.7938,0.7611,0.7757,0.7907,0.7617,0.753,0.7396,0.6924,0.7225,0.7338,0.6688,0.6761,0.682,0.6492,0.6467,0.6227,0.5541,0.5626,0.5611,0.5258,0.5534,0.0,0.6141,0.6449,0.6701,0.6889,0.6549,0.6466,0.6724,0.6921,0.7252,0.7709,0.7844,0.7957,0.8078,0.8123,0.8097,0.7984,0.6952,0.6611,0.0,0.0,0.0,0.0,0.0,0.0,0.0,0.0,0.0,0.0,0.0,0.0,0.0,0.0,0.0,1.6842,1.7079,1.722,1.741,1.7383,1.7233,1.6905,1.6833,1.6812,1.6812,1.6812,1.6557,1.5927,1.5768,1.5207,1.4063,1.3884,1.3569,1.302,1.2785,1.2768,1.299,1.2496,1.2342,1.2496,1.2282,0.0,1.2095,1.2156,1.2174,1.2174,1.2234,1.2216,1.2144,1.2144,1.2108,1.1963,1.1381,1.1343,1.1601,1.1373,1.1151,1.0848,1.0047,0.9973,0.9998,0.8805,0.8687,0.8924,0.8517,0.8368,0.0,0.8312,0.8269,0.8198,0.8027,0.807,0.8101,0.7812,0.7793,0.7832,0.7821,0.7782,0.7734,0.7688,0.7752,0.7782,0.7635,0.7303,0.6987,0.6759,0.6855,0.6822,0.6407,0.6524,0.6629,0.6535,0.66,0.6802,0.7176,0.7273,0.7195,0.691,0.707,0.7288,0.7556,0.7766,0.8038,0.8402,0.8073,0.7911,0.7942,0.8323,0.8537,0.8608,0.791,0.7677,0.0,0.0,0.0,0.0,0.0,0.0,0.0,0.0,0.0,0.0,0.0,1.6154,1.6818,0.0,1.7306,1.8288,1.8279,1.804,1.7735,1.7523,1.729,1.6985,1.6653,1.6445,1.6445,1.6209,1.5907,1.5567,1.5274,1.4847,1.4237,1.3945,1.3666,1.3352,1.322,1.3207,1.334,1.304,1.2953,1.304,1.2918,1.2831,1.2796,1.2849,1.2849,1.2849,1.2889,1.2784,1.2579,1.2384,1.2467,1.2643,1.2102,1.1957,1.2018,1.1895,1.1804,1.167,1.1214,1.1255,1.1301,1.0048,0.9856,0.9954,0.9192,0.8953,0.894,0.8869,0.8841,0.88,0.8645,0.8628,0.8625,0.8488,0.846,0.8449,0.8491,0.8551,0.8544,0.8345,0.857,0.8688,0.831,0.8218,0.8007,0.7442,0.7442,0.7377,0.6998,0.7034,0.7025,0.6824,0.7067,0.7357,0.7637,0.8018,0.8147,0.7913,0.8253,0.849,0.8604,0.8801,0.903,0.9292,0.9094,0.9135,0.9401,0.9641,0.9842,0.9992,0.9688,0.9374,0.0,0.0,0.0,0.0,0.0,0.0,0.0,0.0,1.6772,1.6924,1.7492,1.8155,1.8797,1.8721,1.8765,1.9423,1.9207,1.8677,1.7866,1.7506,1.7213,1.6949,1.6387,1.5995,1.5995,1.5621,1.5272,1.5094,1.4608,1.4338,1.432,1.3903,1.3664,1.3664,1.3694,1.3629,1.3497,1.3543,1.3543,1.3497,1.3514,1.3514,1.3497,1.3514,1.3514,1.3514,1.356,1.3382,1.3067,1.2754,1.2876,1.3246,1.2975,1.2772,1.2614,1.2449,1.2378,1.2348,1.2277,1.2307,1.221,1.1176,1.0888,1.0795,0.9832,0.9529,0.9516,0.9409,0.9381,0.9354,0.9245,0.9218,0.9218,0.9218,0.9218,0.9218,0.9218,0.9341,0.9355,0.896,0.9328,0.9501,0.8911,0.9124,0.9093,0.8248,0.8149,0.8053,0.7729,0.774,0.7633,0.7314,0.7724,0.8055,0.8149,0.8769,0.9106,0.9052,0.9398,0.9594,0.9541,0.979,1.0008,1.0173,1.0273,1.0556,1.1024,1.1024,1.1124,1.1349,1.1502,1.1099,1.7467,1.6513,1.5608,1.5758,1.6355,1.6901,0.0,0.0,1.8174,1.7913,1.8395,1.8879,1.8972,1.9438,1.9829,1.9919,1.9884,1.9501,1.8449,1.8171,1.7716,1.677,1.6259,1.6007,1.6007,1.594,1.5535,1.4655,1.4516,1.4454,1.4382,1.4336,1.431,1.431,1.4351,1.4093,1.351,1.3674,1.3674,1.3497,1.3564,1.3564,1.3497,1.3564,1.3598,1.3598,1.3775,1.3825,1.3778,1.3802,1.3855,1.3888,1.3855,1.3838,1.3722,1.3005,1.2668,1.2513,1.2227,1.2057,1.1814,1.0925,1.0554,1.0375,0.9832,0.9674,0.9674,0.9661,0.9648,0.9648,0.9635,0.9634,0.9634,0.9634,0.9634,0.9634,0.9634,0.9648,0.9649,0.96,0.965,0.9675,0.9588,0.9624,0.9479,0.8946,0.9025,0.9123,0.909,0.929,0.9409,0.9361,0.9435,0.9472,0.9485,0.9572,0.9622,0.9609,0.988,1.0021,1.0021,1.0496,1.0789,1.0801,1.0987,1.1187,1.1435,1.1435,1.1577,1.1834,1.2549,1.2254,1.8471,1.746,1.6498,1.637,1.6799,1.7253,1.7229,1.7832,1.8456,1.8765,1.8731,1.8729,1.9012,1.8964,1.9058,1.9523,1.923,1.8765,1.8281,1.7662,1.701,1.6331,1.5942,1.5712,1.5758,1.5479,1.5139,1.4713,1.4666,1.4832,1.5203,1.4654,1.4525,1.4923,1.4569,1.4246,1.396,1.4238,1.4335,1.4257,1.4092,1.4127,1.431,1.4133,1.41,1.4181,1.4227,1.4273,1.4308,1.4308,1.4406,1.4564,1.4406,1.4438,1.4501,1.3772,1.3454,1.3399,1.3251,1.2939,1.2532,1.2217,1.1842,1.1476,1.126,1.0976,1.0677,1.0584,1.0314,1.0021,0.9944,0.9932,0.9932,0.9932,0.9932,0.9932,0.9932,1.0021,1.011,1.011,1.0198,1.0273,1.0273,1.0273,1.0223,1.0021,0.9727,0.953,0.953,0.9635,0.9738,0.9816,0.988,0.9957,1.0034,1.0122,1.0173,1.0173,1.0459,1.0631,1.0631,1.1101,1.1363,1.1363,1.1553,1.1785,1.2025,1.2056,1.2437,1.3127,1.3465,1.3595,1.8737,1.7985,1.7346,1.6965,1.7299,1.769,1.7506,1.808,1.8765,1.9199,1.8842,1.8547,1.8902,1.8498,1.8313,1.89,1.8545,1.8114,1.7884,1.7212,1.6563,1.6072,1.5797,1.5654,1.5706,1.5269,1.4949,1.4841,1.4841,1.5179,1.5985,1.5175,1.4988,1.5661,1.5062,1.466,1.4481,1.4732,1.4856,1.4856,1.4608,1.4655,1.4922,1.4674,1.4627,1.4705,1.4674,1.469,1.4737,1.4737,1.486,1.5058,1.486,1.4907,1.5028,1.4549,1.4326,1.4278,1.4294,1.3915,1.3411,1.3512,1.3071,1.2537,1.2608,1.2143,1.16,1.1574,1.1103,1.0582,1.047,1.0457,1.0457,1.0457,1.0457,1.0457,1.0457,1.0569,1.0681,1.0681,1.0787,1.0883,1.0883,1.0883,1.0883,1.0883,1.0482,1.0122,0.9995,0.997,1.0046,1.0211,1.0323,1.0447,1.0582,1.0691,1.0751,1.0751,1.0991,1.1129,1.1184,1.1619,1.1858,1.1911,1.2143,1.2372,1.2626,1.2927,1.3472,1.4252,1.4732,1.5288,1.8048,1.7817,1.7789,1.7766,1.8307,1.8776,1.8443,1.8937,1.938,1.9085,1.8781,1.8588,1.8604,1.8392,1.8191,1.8238,1.8207,1.7961,1.7316,1.7149,1.6844,1.6187,1.6039,1.5997,1.5984,1.5682,1.5314,1.4936,1.4905,1.5398,1.6512,1.5991,1.5952,1.6641,1.6127,1.5579,1.4982,1.4997,1.4997,1.4997,1.4968,1.4997,1.5013,1.4997,1.4968,1.4997,1.5058,1.5089,1.5089,1.521,1.527,1.5285,1.527,1.527,1.5285,1.527,1.5134,1.4968,1.5043,1.4673,1.4197,1.4311,1.378,1.3115,1.3381,1.2816,1.2138,1.2386,1.1931,1.1367,1.1352,1.1352,1.1352,1.1352,1.1352,1.1352,1.1352,1.1367,1.1378,1.1378,1.1378,1.1389,1.1389,1.1389,1.1389,1.1389,1.1352,1.1184,1.0729,1.0668,1.0765,1.1038,1.1062,1.1141,1.1355,1.1378,1.1378,1.1378,1.1389,1.1475,1.1669,1.1999,1.2275,1.2463,1.2743,1.2964,1.3184,1.4093,1.465,1.4919,1.6614,1.7435,1.8007,1.79,1.7878,1.7878,1.802,1.8132,1.8027,1.8188,1.8422,1.8569,1.8173,1.7889,1.8155,1.7771,1.7488,1.7762,1.7421,1.7161,1.7192,1.6794,1.6412,1.6182,1.6153,1.6123,1.6123,1.5955,1.5783,1.5638,1.5638,1.6188,1.7461,1.6281,1.6083,1.7194,1.6189,1.5533,1.5329,1.5551,1.5667,1.5667,1.5711,1.5609,1.5404,1.5667,1.5725,1.5595,1.5521,1.5551,1.5624,1.558,1.5711,1.5869,1.5755,1.5784,1.5884,1.574,1.574,1.574,1.5359,1.4834,1.4325,1.4282,1.4138,1.3964,1.3963,1.346,1.2915,1.302,1.2343,1.1575,1.1431,1.16,1.1753,1.1637,1.1709,1.1806,1.1849,1.1849,1.1885,1.1916,1.1927,1.1927,1.1927,1.1927,1.1927,1.1927,1.1637,1.1344,1.1184,1.1161,1.1196,1.1287,1.1299,1.1397,1.1629,1.1676,1.1736,1.1916,1.2061,1.2163,1.2234,1.2638,1.2893,1.2956,1.3261,1.3732,1.4338,1.4776,1.5573,1.6718,1.7335,1.7921,1.8027,1.7972,1.7933,1.7933,1.79,1.7867,1.7845,1.7845,1.7895,1.8143,1.7764,1.7485,1.7746,1.7364,1.7075,1.7327,1.6947,1.6727,1.7072,1.6595,1.6236,1.633,1.6263,1.6194,1.6194,1.6109,1.6067,1.6039,1.6039,1.6512,1.7576,1.6428,1.6219,1.7326,1.6308,1.574,1.574,1.5969,1.6123,1.6219,1.626,1.6217,1.6117,1.6367,1.6425,1.6287,1.6202,1.6202,1.6287,1.6202,1.6284,1.6463,1.6342,1.6369,1.6463,1.6342,1.6369,1.6378,1.5623,1.5109,1.479,1.4798,1.4621,1.4461,1.4722,1.4113,1.3358,1.3455,1.2806,1.2061,1.1957,1.2102,1.2263,1.2148,1.2239,1.2333,1.2372,1.2382,1.2392,1.2447,1.2447,1.2447,1.2447,1.2447,1.2447,1.2447,1.2158,1.1884,1.1713,1.1702,1.1709,1.1784,1.1794,1.1895,1.2163,1.2193,1.2383,1.2826,1.2726,1.2789,1.3127,1.3258,1.3337,1.3412,1.3698,1.4242,1.5045,1.5502,1.6437,1.7788,1.819,1.8669,1.8098,1.8039,1.8045,1.8022,1.7994,1.7983,1.7922,1.7922,1.7872,1.7771,1.7579,1.7403,0.0,0.0,1.7043,1.703,1.6815,1.674,1.7029,1.6586,1.6344,1.661,1.6412,1.625,1.625,1.625,1.6207,1.6151,1.6123,1.6373,1.7015,1.6463,1.643,1.7103,1.6546,1.6236,1.6222,1.6222,1.6344,1.661,1.6623,1.6751,1.7005,1.7005,1.7005,1.7005,1.7005,1.7005,1.7005,1.7005,1.7005,1.7005,1.7005,1.7005,1.7005,1.7005,1.7005,1.6867,1.5888,1.5539,1.5564,1.5783,1.5203,1.4584,1.5505,1.4687,1.3489,1.3777,1.3388,1.2897,1.2987,1.2962,1.2904,1.2957,1.2959,1.2926,1.2935,1.2935,1.2951,1.2984,1.301,1.2993,1.2944,1.2953,1.2953,1.2962,1.3004,1.2825,1.2303,1.2244,1.2313,1.2556,1.2575,1.2693,1.3006,1.3041,1.3338,1.407,1.3458,1.3459,1.4373,1.3913,1.3748,1.3929,1.4136,1.4648,1.5454,1.6298,1.7211,1.815,1.9097,1.9582,1.8317,1.8514,1.8756,1.8207,1.8037,1.7994,1.7983,1.7972,1.7819,1.7252,1.7504,1.7495,1.6356,1.6985,1.7618,1.7467,1.7361,1.7429,1.7907,1.7326,1.6901,1.6964,1.6879,1.6789,1.6789,1.6789,1.6789,1.6776,1.6396,1.6541,1.7408,1.6825,1.6776,1.7451,1.7024,1.6699,1.6503,1.6503,1.653,1.661,1.6802,1.693,1.7005,1.7005,1.7005,1.7005,1.7005,1.7005,1.7005,1.7005,1.7005,1.7005,1.7005,1.7027,1.7076,1.7076,1.7101,1.7052,1.6461,1.6049,1.5734,1.5295,1.4948,1.4661,1.4401,1.4046,1.3831,1.4517,1.4315,1.4036,1.4493,1.4384,1.4113,1.3961,1.3638,1.3362,1.3413,1.3421,1.3608,1.4195,1.4323,1.417,1.3659,1.3572,1.3619,1.3774,1.4292,1.42,1.2894,1.2718,1.2956,1.3554,1.3613,1.3949,1.4776,1.4845,1.5065,1.56,1.5454,1.5531,1.5915,1.5812,1.5752,1.5801,1.6016,1.6536,1.7381,1.7175,1.7522,1.8408,1.8704,1.8531,1.9291,1.9195,1.9138,1.8725,1.836,1.8001,1.7592,1.7798,1.7832,1.7055,1.7482,1.7635,1.6437,1.716,1.7911,1.7789,1.7927,1.8179,1.858,1.8029,1.7633,1.7749,1.7309,1.7147,1.7494,1.7209,1.7068,1.7199,1.6802,1.6783,1.7311,1.6987,1.6939,1.7324,1.7126,1.693,1.6776,1.6776,1.6828,1.6955,1.7105,1.724,1.7349,1.7384,1.7396,1.7408,1.7432,1.7266,1.6989,1.7316,1.7291,1.7127,1.7428,1.7596,1.7642,1.7642,1.7602,1.7511,1.7255,1.6808,1.6215,1.5496,1.5017,1.4645,1.4264,1.4141,1.426,1.4734,1.4917,1.5046,1.5401,1.5373,1.5237,1.5149,1.4968,1.4837,1.4861,1.4861,1.5009,1.5463,1.5551,1.5435,1.5054,1.498,1.5028,1.5135,1.5239,1.4973,1.4065,1.3956,1.4221,1.4891,1.4733,1.4907,1.5752,1.5895,1.6194,1.678,1.6504,1.6383,1.6504,1.6214,1.5926,1.564,1.5783,1.6325,1.7217,1.6875,1.7173,1.8054,1.8093,1.7885,2.0471,1.9929,1.9413,1.932,1.8752,1.7966,1.7106,1.7535,1.7851,1.6949,1.7435,1.7742,1.6785,1.7298,1.7885,1.8016,1.8262,1.8689,1.9343,1.8717,1.8315,1.8634,1.7753,1.7412,1.8109,1.7539,1.7252,1.7532,1.7301,1.7117,1.708,1.7068,1.7068,1.7105,1.708,1.7055,1.7055,1.7055,1.7167,1.7396,1.7448,1.7577,1.78,1.7861,1.7854,1.7774,1.7851,1.7534,1.7017,1.7669,1.7707,1.7452,1.8079,1.8351,1.8351,1.8351,1.8246,1.8113,1.8113,1.7687,1.7008,1.6147,1.5357,1.4768,1.4786,1.4795,1.4847,1.502,1.5547,1.609,1.6232,1.629,1.6308,1.6359,1.6446,1.6502,1.6502,1.6573,1.6627,1.652,1.6573,1.6617,1.6551,1.6533,1.654,1.6563,1.607,1.5677,1.5677,1.5364,1.5376,1.6006,1.5594,1.5597,1.6314,1.655,1.6932,1.7596,1.707,1.6679,1.6589,1.6035,1.5472,1.4886,1.4987,1.5442,1.6286,1.6173,1.6544,1.7365,1.7365,1.7432,2.0579,2.0308,2.0067,1.9458,1.8752,1.7993,1.7163,1.7611,0.0,0.0,1.7188,1.7559,1.5546,1.6222,1.7326,1.8048,1.7631,1.814,2.0783,1.9418,1.8353,1.9013,1.8331,1.7884,1.802,1.7918,1.7845,1.7917,1.7856,1.7704,1.7427,1.7372,1.7432,1.7647,1.746,1.7337,1.7337,1.7337,1.7349,1.7396,1.7624,1.7755,1.78,1.7861,1.7629,1.7163,1.723,1.7288,1.7318,1.7441,1.7847,1.837,1.8494,1.8576,1.8623,1.8623,1.8632,1.8659,1.8659,1.858,1.8276,1.7075,1.6197,1.5627,1.5793,1.5836,1.6028,1.686,1.7195,1.7435,1.811,1.7826,1.7335,1.7343,1.6928,1.6502,1.6502,1.6988,1.7231,1.6627,1.6988,1.7245,1.6743,1.666,1.6722,1.6888,1.7355,1.7693,1.7695,1.5712,1.457,1.5294,1.5281,1.5803,1.7234,1.7392,1.7527,1.7825,1.7833,1.7562,1.7028,1.7,1.6937,1.6814,1.6843,1.698,1.7262,1.6591,1.6414,1.6661,1.6661,1.6722,2.1595,2.0997,2.0308,1.9964,1.9027,1.789,1.6708,0.0,0.0,0.0,1.7132,1.7735,1.6228,1.6836,1.7704,1.8131,1.8179,1.8805,2.0716,1.9648,1.8961,1.9676,1.8722,1.8159,1.8574,1.8255,1.8005,1.8048,1.8016,1.7939,1.7772,1.7726,1.7766,1.7856,1.7726,1.7653,1.7653,1.7653,1.7681,1.7704,1.7833,1.7955,1.805,1.8131,1.783,1.7289,1.7768,1.7568,1.6938,1.779,1.8182,1.8269,1.8654,1.8825,1.8869,1.8869,1.8834,1.8798,1.8798,1.8798,1.8708,1.8086,1.737,1.6677,1.64,1.6575,1.6974,1.7449,1.7904,1.8306,1.869,1.8564,1.8336,1.8369,1.8187,1.8003,1.8003,1.8253,1.8408,1.8125,1.832,1.8466,1.8196,1.8166,1.8198,1.8338,1.8321,1.8335,1.8404,1.6884,1.6208,1.7238,1.7114,1.7401,1.8507,1.8282,1.8105,1.8208,1.8273,1.7993,1.7291,1.732,1.7387,1.7444,1.7016,1.7074,1.7666,1.7273,1.7139,1.7223,1.7223,1.7258,2.2354,2.1458,2.0394,2.0394,1.9292,1.7804,1.6243,1.7097,0.0,1.6226,1.7132,1.7959,1.7156,1.7518,1.7993,0.0,1.8545,1.9171,2.0257,1.9579,1.9253,1.9996,1.8881,1.8288,1.8921,1.8445,1.8113,1.8113,1.8059,1.8044,1.7994,1.8005,1.7999,1.7992,1.7938,1.7938,1.7992,1.7992,1.8003,1.8053,1.8106,1.8205,1.8371,1.8428,1.8025,1.7337,1.8217,1.7785,1.6625,1.806,1.8476,1.8258,1.8845,1.9064,1.9064,1.9064,1.9007,1.8913,1.8913,1.8922,1.8931,1.8956,1.8464,1.7768,1.7223,1.7465,1.7943,1.7984,1.8452,1.8948,1.8948,1.9042,1.9123,1.9164,1.9315,1.9439,1.9439,1.9416,1.9438,1.9539,1.9518,1.9504,1.9557,1.9564,1.9587,1.965,1.9132,1.8762,1.8869,1.8359,1.8359,1.9367,1.8786,1.861,1.927,1.8847,1.854,1.854,1.8561,1.8233,1.7463,1.7463,1.7502,1.7623,1.6968,1.7016,1.7807,1.7801,1.7853,1.7899,1.7899,1.8001,2.1854,2.1061,2.0394,2.0394,1.9292,1.7804,1.6243,0.0,1.7769,1.6226,1.7132,1.7959,1.7156,1.707,0.0,0.0,0.0,1.7966,2.0102,1.9171,1.8569,1.9309,1.8689,1.8207,1.8276,1.8394,1.8383,1.8194,1.819,1.8119,1.8005,1.8059,1.8148,1.8259,1.8085,1.8074,1.8259,1.8259,1.827,1.827,1.845,1.8547,1.8566,1.865,1.7914,1.6651,1.7505,1.7506,1.6922,1.7808,1.8562,1.919,1.9256,1.9274,1.9274,1.9274,1.9266,1.9251,1.9251,1.9292,1.9357,1.9485,1.9146,1.8708,1.8833,1.8944,1.9091,1.9265,1.9383,1.9438,1.9438,1.9446,1.9453,1.9461,1.952,1.9585,1.9585,1.9663,1.9768,1.9774,1.9774,1.9774,1.9774,1.9774,1.9792,1.9857,1.9805,1.976,1.9788,1.9825,1.9898,2.0007,1.8522,1.7852,1.8694,1.8724,1.8691,1.8691,1.8731,1.8404,1.7603,1.7646,1.7682,1.7692,1.7663,1.77,1.7807,1.786,1.7899,1.7905,1.7905,1.835,2.1423,2.0682,1.974,1.974,1.8959,1.7907,1.6812,1.7414,1.789,1.6794,1.7442,1.8097,1.7787,1.7707,1.7838,0.0,0.0,0.0,1.8959,1.8579,1.8304,1.8597,1.8373,1.8263,1.8363,1.8463,1.8514,1.8563,1.8563,1.8544,1.8487,1.8396,1.8388,1.8537,1.845,1.8467,1.8537,1.8537,1.8556,1.8595,1.8688,1.8762,1.8842,1.8869,1.8368,1.7508,1.8333,1.8346,1.781,1.8606,1.9131,1.9427,1.9427,1.9369,1.9297,1.9297,1.9339,1.9427,1.9459,1.9555,1.9649,1.9707,1.96,1.9474,1.9508,1.954,1.9579,1.9656,1.9676,1.9676,1.9676,1.9713,1.9726,1.9701,1.9732,1.9787,1.9787,1.9792,1.9802,1.9855,1.9849,1.9868,1.9855,1.986,1.9907,2.001,2.002,2.0045,2.0135,2.0195,2.0216,2.0216,1.9582,1.9296,1.9637,1.9182,1.8875,1.8875,1.8935,1.8846,1.8529,1.8529,1.8791,1.9312,1.8833,1.8859,1.9428,1.9445,1.9491,1.9535,1.9535,1.9701,2.1009,2.0434,1.9596,1.9619,1.8907,1.7993,1.7191,1.7621,1.7976,1.7173,1.77,1.8288,1.8288,1.8288,1.8288,0.0,0.0,1.7924,1.8166,1.8056,1.7997,1.8176,1.8308,1.8413,1.8485,1.8553,1.8659,1.8861,1.8825,1.8816,1.8869,1.8716,1.8679,1.8789,1.8744,1.8761,1.8789,1.8789,1.8807,1.8851,1.8913,1.8889,1.8799,1.9034,1.868,1.792,1.8969,1.9012,1.841,1.9224,1.9553,1.9553,1.9553,1.9504,1.9412,1.9412,1.949,1.9592,1.9649,1.9732,1.9841,1.9841,1.9899,1.9963,1.9955,1.9893,1.9832,1.9832,1.9832,1.9832,1.9832,1.9855,1.9885,1.9838,1.9901,1.9963,1.9963,1.995,1.9971,2.0001,2.002,2.0015,2.0025,2.003,2.0055,2.0144,2.0153,2.0188,2.0292,2.0304,2.0315,2.032,2.0324,2.0313,2.0307,1.9733,1.938,1.9404,1.9452,1.9475,1.9475,1.9473,1.9761,2.0381,1.9815,1.9836,2.0501,2.0511,2.0547,2.06,2.0583,2.0547,2.0606,2.0347,2.0311,2.0382,1.9286,1.7993,1.7191,1.7621,1.7976,1.7173,1.7795,1.8495,1.8495,1.8495,1.8495,1.8495,1.7651,0.0,1.8097,1.7683,1.7532,1.8128,1.8553,1.8724,1.8514,1.8669,1.8843,1.8989,1.8869,1.8851,1.8998,1.9006,1.9006,1.9006,1.8869,1.886,1.9006,1.9006,1.9006,1.9006,1.9212,1.8945,1.8325,1.9119,1.8696,1.7406,1.9001,1.9244,1.8554,1.9369,1.9701,1.9701,1.9701,1.9695,1.9695,1.9695,1.9738,1.9794,1.9794,1.9841,1.9901,1.9973,2.0036,2.0126,2.026,2.0117,1.9907,1.9907,1.9907,1.9907,1.9907,1.9907,1.9907,1.9907,1.9996,2.0088,2.0088,2.0203,2.0304,2.0304,2.0304,2.0304,2.0304,2.0304,2.0308,2.0308,2.0308,2.0296,2.0292,2.0302,2.0329,2.0393,2.0398,2.0376,2.0308,2.0283,2.0313,2.0376,2.04,2.04,2.04,2.0381,2.0381,2.04,2.0462,2.0482,2.0506,2.0572,2.06,2.0602,2.0527,2.0495,1.9493,1.9201,1.8806,1.8879,1.8545,1.8131,1.789,1.8117,1.8333,1.8071,1.8387,1.8715,1.8715,1.8592,1.8495,1.8495,1.8225,0.0,1.7635,1.8495,1.9017,1.8649,1.9335,1.9561,1.8914,1.9014,1.9164,1.9193,1.9206,1.9232,1.928,1.9318,1.9311,1.9219,1.9164,1.9164,1.9193,1.8656,1.8716,1.935,1.8846,1.8842,1.9276,1.9525,1.9382,1.8969,1.9476,1.9605,1.9484,1.9724,1.9832,1.9832,1.9832,1.9816,1.9781,1.9781,1.9839,1.9939,1.9941,2.0012,2.0111,2.0169,2.0225,2.0245,2.0287,2.0239,2.0167,2.0167,2.0167,2.0167,2.0167,2.0167,2.0167,2.0167,2.0215,2.0234,2.0234,2.0315,2.0366,2.0366,2.0366,2.0366,2.0366,2.0366,2.0366,2.0366,2.0366,2.0372,2.0371,2.0373,2.0381,2.0398,2.04,2.0393,2.0373,2.0373,2.0381,2.0398,2.0449,2.0464,2.0464,2.051,2.0542,2.0542,2.057,2.0574,2.0575,2.0546,2.0525,2.0532,2.0465,2.042,1.8944,1.8819,1.8465,1.852,1.8347,1.8162,1.8162,1.8342,1.8495,1.8495,1.8706,1.8878,1.8878,1.8771,1.8679,1.8679,1.8135,1.7736,1.7842,1.8646,1.9264,1.9415,1.9947,1.999,1.9196,1.9243,1.9331,1.9331,1.9405,1.9438,1.9438,1.9453,1.9457,1.9405,1.935,1.9353,1.9387,1.8889,1.8948,1.9567,1.9069,1.9002,1.9341,1.9642,1.9639,1.9425,1.9717,1.9912,0.0,2.001,2.001,2.001,2.0006,2.0,1.9953,1.9953,2.0001,2.0088,2.0103,2.0176,2.0249,2.033,2.034,2.035,2.0332,2.0337,2.034,2.034,2.034,2.0418,2.073,2.083,2.0907,2.1243,2.1314,2.1321,2.1321,2.1354,2.1379,2.1379,2.1379,2.1379,2.1379,2.1379,2.1379,2.1379,2.1102,2.0893,2.091,2.064,2.0451,2.0466,2.0471,2.0472,2.0472,2.0457,2.0453,2.0471,2.051,2.0539,2.054,2.0576,2.0757,2.1089,2.1073,2.1211,2.1543,2.1475,2.143,2.1432,2.1403,2.1373,0.0,1.8972,1.8937,1.9007,1.8562,1.8102,1.8123,1.8325,0.0,1.8534,1.878,1.9023,1.9023,1.9014,1.9006,1.9006,1.7637,1.7136,1.8691,1.8486,1.8765,2.0311,2.0386,2.005,1.9381,1.9364,1.9398,1.9398,1.9475,1.9505,1.9505,1.9457,1.9485,1.9625,1.9499,1.9456,1.952,1.9464,1.9524,1.9719,1.9663,1.9333,1.8829,1.9587,1.9583,1.9033,1.9787,2.0131,2.0196,2.0196,2.0196,2.0201,2.0203,2.0193,2.0197,2.0197,2.0195,2.0212,2.0285,2.0299,2.032,2.0383,2.0402,2.0424,2.0482,2.0441,2.04,2.04,2.0439,2.0672,2.149,2.1745,2.2,2.2805,2.3004,2.3006,2.3006,2.3008,2.3011,2.3011,2.3011,2.3011,2.3011,2.3011,2.3011,2.3011,2.2323,2.1829,2.1883,2.1185,2.0709,2.0769,2.0773,2.0775,2.0775,2.0678,2.0636,2.0697,2.0756,2.0776,2.0778,2.0779,2.117,2.1951,2.1912,2.2275,2.309,2.3036,2.2991,2.2985,2.2982,2.2943,1.8054,0.0,1.8177,1.8239,1.8185,1.8145,0.0,1.8544,1.8761,1.8851,1.9064,1.9235,1.9235,1.9105,1.9006,1.9006,1.8665,1.8739,1.9794,2.0486,2.0779,2.0521,2.0511,2.0233,1.9456,1.9446,1.9487,1.9487,1.958,1.9649,1.9649,1.9732,1.9804,1.9828,1.9793,1.9769,1.9725,1.9117,1.9181,1.9925,1.9308,1.9311,1.9858,2.0044,2.0043,1.992,2.0084,2.0199,2.0203,2.0203,2.0203,2.0203,2.0193,2.0205,2.0203,2.0203,2.0231,2.0276,2.0292,2.0335,2.0381,2.0395,2.0424,2.0604,2.1266,2.0973,2.04,2.04,2.0888,2.1432,2.1646,2.2195,2.2746,2.2941,2.3046,2.3085,2.3085,2.3083,2.3078,2.3078,2.3078,2.3078,2.3078,2.3078,2.3078,2.3078,2.2902,2.2789,2.2797,2.2623,2.2489,2.2514,2.2515,2.2516,2.2516,2.1927,2.1575,2.1597,2.2164,2.2518,2.2518,2.2516,2.2588,2.2746,2.2732,2.2828,2.3013,2.3016,2.2963,2.2924,2.291,2.2856,1.78,1.807,1.8359,1.841,1.8478,1.8611,1.8815,0.0,0.0,0.0,0.0,0.0,1.9297,1.9219,1.9138,1.9138,1.9138,1.9565,2.0812,2.1456,2.166,2.1287,2.0911,2.0392,1.9664,1.9636,1.9681,1.9681,1.9757,1.9793,1.9793,1.9862,1.9923,1.9995,1.9965,1.9925,1.9893,1.9457,1.9533,2.0098,1.9654,1.9719,2.0193,2.0193,2.0201,2.019,2.0197,2.0222,2.025,2.025,2.0249,2.0282,2.0292,2.0283,2.0292,2.0292,2.0317,2.0355,2.0381,2.0441,2.0495,2.0495,2.0798,2.1239,2.1707,2.1756,2.1646,2.1646,2.1978,2.2426,2.2835,2.3285,2.3735,2.4146,2.4276,2.4286,2.4286,2.4294,2.4282,2.4282,2.4284,2.4285,2.4285,2.4287,2.4289,2.4289,2.3957,2.3703,2.3705,2.3354,2.31,2.3102,2.3105,2.3105,2.3105,2.3043,2.2849,2.2479,2.2851,2.3104,2.3096,2.3064,2.3214,2.3541,2.3944,2.415,2.4151,2.4122,2.4041,2.3962,2.3959,2.3866,1.7946,1.8521,1.9036,1.8816,1.8955,1.9167,1.9278,0.0,0.0,0.0,0.0,0.0,0.0,1.9591,1.9683,1.9683,1.9805,2.0368,2.1686,2.198,2.2081,2.2129,2.1365,2.0626,2.0054,1.9943,1.9909,1.9909,1.9918,1.9934,1.9934,1.9958,2.001,2.0131,2.0083,2.0046,2.0041,2.0036,2.0083,2.022,2.0201,2.0205,2.0222,2.0222,2.0223,2.0235,2.0235,2.0253,2.0328,2.0328,2.0357,2.0403,2.0395,2.04,2.04,2.04,2.0405,2.0418,2.0495,2.054,2.0613,2.0769,2.1296,2.1958,2.2192,2.2759,2.3326,2.3462,2.3404,2.3462,2.4202,2.4495,2.4789,2.5512,2.5707,2.5707,2.5708,2.5708,2.5708,2.5709,2.5693,2.5695,2.5695,2.5698,2.57,2.57,2.5076,2.4608,2.4608,2.3945,2.3476,2.3476,2.3471,2.348,2.348,2.4117,2.4202,2.3515,2.3489,2.3477,2.3466,2.341,2.3696,2.4387,2.5111,2.5473,2.5484,2.5412,2.5312,2.5205,2.5182,2.5061,1.8555,1.9348,1.9702,1.8393,1.8709,1.9271,1.8892,0.0,0.0,0.0,0.0,0.0,0.0,2.0923,2.1408,2.1408,2.2128,2.2577,2.2277,2.2799,2.2994,2.2356,2.1557,2.1009,2.0913,2.0293,1.9907,1.9907,2.0015,2.0069,2.0069,2.0186,2.0252,2.0269,2.0269,2.0245,2.0241,2.019,2.0218,2.0281,2.023,2.0227,2.0279,2.0279,2.0317,2.0373,2.0371,2.0376,2.0386,2.0386,2.0391,2.0398,2.04,2.04,2.04,2.04,2.0443,2.0497,2.0563,2.0591,2.0711,2.1451,2.1783,2.2153,2.3597,2.4104,2.4359,2.5082,2.4769,2.4222,2.4378,2.4945,2.5531,2.5668,2.5707,2.5708,2.5692,2.5693,2.5694,2.5698,2.5699,2.5699,2.5699,2.57,2.57,2.57,2.5586,2.5506,2.5503,2.5333,2.5218,2.5212,2.5225,2.5221,2.5221,2.5331,2.5352,2.5228,2.5225,2.5184,2.514,2.5114,2.5166,2.529,2.5376,2.5418,2.5425,2.5279,2.5214,2.5192,2.5024,2.4871,1.8205,1.8924,1.9313,1.8353,1.9425,2.0594,2.0208,1.9903,0.0,0.0,0.0,0.0,0.0,2.0588,2.1465,2.2457,2.3007,2.3382,2.3628,2.3599,2.3291,2.2549,2.176,2.1107,2.0719,2.0327,2.0122,2.0122,2.0167,2.0208,2.0208,2.0269,2.0308,2.0308,2.0308,2.0308,2.0308,2.0269,2.0269,2.0308,2.0269,2.0266,2.0302,2.0341,2.0373,2.04,2.04,2.0413,2.0455,2.0455,2.0487,2.0503,2.0503,2.0503,2.0503,2.0503,2.0531,2.0562,2.0591,2.0905,2.1373,2.1763,2.2504,2.3384,2.4173,2.4721,2.5172,2.5547,2.5388,2.5101,2.5101,2.5396,2.5694,2.5641,2.5679,2.5698,2.5703,2.5701,2.57,2.5703,2.5703,2.5682,2.5657,2.5654,2.5652,2.5652,2.5644,2.5655,2.5651,2.5618,2.5605,2.5601,2.5578,2.5542,2.5542,2.5554,2.5549,2.5539,2.5542,2.5535,2.5508,2.5461,2.5452,2.5452,2.5345,2.5284,2.5284,2.5124,2.4993,2.4936,2.5281,2.5366,1.8014,1.8534,1.8961,1.868,0.0,2.1271,2.1107,2.069,0.0,0.0,0.0,0.0,0.0,2.0944,2.1972,2.3423,2.3679,2.3988,2.4802,2.4385,2.3743,2.3037,2.224,2.143,2.0669,2.0404,2.0308,2.0308,2.0308,2.0308,2.0308,2.0308,2.0308,2.0308,2.0308,2.0296,2.0296,2.0315,2.0315,2.03,2.0315,2.0335,2.0349,2.0398,2.0422,2.0451,2.0451,2.0487,2.0529,2.0529,2.054,2.0594,2.0594,2.0594,2.0594,2.0594,2.073,2.0905,2.0905,2.1455,2.2201,2.2415,2.3335,2.4412,2.4629,2.5156,2.5662,2.5611,2.5642,2.5681,2.5681,2.5682,2.5664,2.5603,2.5643,2.5683,2.5677,2.5681,2.5683,2.5675,2.5689,2.566,2.5616,2.5605,2.5601,2.5601,2.5591,2.5585,2.5585,2.5576,2.5588,2.5588,2.5529,2.5496,2.5473,2.5479,2.5461,2.5439,2.5467,2.5492,2.5484,2.5408,2.5348,2.5344,2.5214,2.5118,2.5118,2.4936,2.4901,2.5001,2.5587,2.5897,1.864,1.8942,1.9173,1.9503,1.977,0.0,2.0318,2.0422,0.0,2.1537,0.0,0.0,2.2728,2.3547,2.4321,2.4647,2.4796,2.4971,2.5224,2.5206,2.4884,2.4096,2.3231,2.2365,2.1504,2.0731,2.0308,2.0308,2.0308,2.0308,2.0308,2.0308,2.0308,2.0308,2.0301,2.0296,2.0296,2.0363,2.0363,2.0296,2.0366,2.0437,2.0492,2.0494,2.0531,2.059,2.059,2.059,2.0592,2.0592,2.0593,2.0594,2.0594,2.0594,2.0594,2.0594,2.11,2.1802,2.1802,2.2341,2.3143,2.3964,2.4268,2.4461,2.5264,2.5558,2.5616,2.5594,2.5597,2.5619,2.5619,2.5619,2.5618,2.5597,2.5597,2.5615,2.5603,2.5602,2.56,2.5609,2.5607,2.5605,2.5601,2.5601,2.5601,2.5601,2.5544,2.551,2.551,2.5511,2.5507,2.5507,2.5503,2.5472,2.5414,2.5406,2.5339,2.5229,2.5391,2.5468,2.5406,2.5274,2.521,2.5208,2.5018,2.4911,2.4911,2.4782,2.5091,2.5818,2.5759,2.6107,1.75,1.8115,1.8614,1.8381,1.9236,0.0,0.0,2.1274,2.1547,2.2373,2.2398,0.0,2.3017,2.361,2.4181,2.4766,2.4981,2.5118,2.5274,2.5308,2.4808,2.3451,2.3009,2.2254,2.0885,2.0481,2.0308,2.0308,2.0308,2.0308,2.0308,2.0295,2.0301,2.0301,2.0332,2.0366,2.0366,2.0437,2.0451,2.0413,2.0451,2.0487,2.05,2.0537,2.0587,2.0594,2.0594,2.0594,2.0594,2.0594,2.0594,2.0594,2.0594,2.0595,2.0597,2.0597,2.113,2.1836,2.1836,2.271,2.3905,2.4238,2.4681,2.5176,2.5494,2.5605,2.56,2.5542,2.5549,2.5547,2.5582,2.5606,2.5595,2.555,2.558,2.5586,2.5552,2.5568,2.5598,2.5544,2.5537,2.5543,2.5544,2.5942,2.6288,2.6288,2.6713,2.6854,2.6327,2.6242,2.6044,2.5491,2.544,2.5644,2.6157,2.621,2.6404,2.6852,2.588,2.5298,2.5288,2.5194,2.5138,2.5146,2.4974,2.4855,2.4775,2.5142,2.548,2.5797,2.6749,2.7352,1.6959,1.7676,1.8476,1.8378,0.0,0.0,2.1896,2.1985,2.2105,2.3162,2.2977,2.2824,2.3525,2.3869,2.4265,2.4841,2.5061,2.511,2.4937,2.4928,2.4293,2.2581,2.2389,2.1831,2.0442,2.0308,2.0308,2.0308,2.0308,2.03,2.0304,2.0302,2.0317,2.0335,2.0398,2.0424,2.0422,2.0498,2.0533,2.0536,2.0536,2.0535,2.0533,2.057,2.0595,2.0594,2.0596,2.0596,2.0596,2.0596,2.0599,2.0563,2.0563,2.0565,2.0605,2.0859,2.1462,2.2215,2.2487,2.3504,2.4684,2.4684,2.5087,2.5578,2.5571,2.556,2.5551,2.5515,2.5498,2.5518,2.5566,2.5576,2.5556,2.5517,2.5532,2.5563,2.5499,2.5546,2.5543,2.5518,2.5509,2.557,2.5848,2.6339,2.6799,2.7061,2.7626,2.778,2.7164,2.7086,2.685,2.6258,2.6187,2.6424,2.7036,2.7022,2.7192,2.772,2.6523,2.5856,2.5956,2.5576,2.5355,2.5349,2.5225,2.5122,2.5022,2.5724,2.62,2.6479,2.7594,2.8244,1.7284,1.7881,1.894,1.993,0.0,0.0,2.2591,2.2378,2.2267,2.3879,2.4303,2.4446,2.4575,2.4775,2.4923,2.4992,2.5163,2.5019,2.4206,2.411,2.3451,2.1716,2.1504,2.1177,2.0385,2.0308,2.0308,2.0292,2.0292,2.0307,2.0299,2.0301,2.0336,2.04,2.0467,2.0504,2.05,2.0565,2.0596,2.0599,2.0599,2.0598,2.0594,2.0598,2.0598,2.0594,2.06,2.0601,2.0599,2.0601,2.0566,2.0504,2.0504,2.0496,2.0594,2.1408,2.2249,2.3111,2.4004,2.483,2.5502,2.5502,2.5506,2.5507,2.5507,2.5507,2.5507,2.5507,2.5507,2.5507,2.5507,2.5507,2.5507,2.5507,2.5507,2.5507,2.5507,2.5507,2.5507,2.5507,2.5507,2.5778,2.6566,2.6721,2.7026,2.7874,2.8024,2.7995,2.7923,2.7899,2.7899,2.7899,2.7899,2.7908,2.7907,2.7735,2.7554,2.7418,2.725,2.7277,2.7587,2.6521,2.5906,2.5911,2.5769,2.5708,2.5708,2.6516,2.7315,2.8096,2.8114,2.8579,1.6549,1.755,1.8887,1.9374,0.0,0.0,0.0,2.2891,0.0,0.0,2.4588,2.4712,2.4785,2.5006,2.5154,2.5084,2.5198,2.5019,2.4206,2.411,2.3479,2.1779,2.1567,2.1244,2.0372,2.0295,2.032,2.0369,2.0372,2.038,2.0376,2.041,2.0451,2.0479,2.0546,2.0575,2.0574,2.0598,2.06,2.0601,2.0601,2.0601,2.0599,2.0601,2.0601,2.06,2.0547,2.0527,2.0527,2.0521,2.0514,2.0508,2.0508,2.0501,2.0606,2.1404,2.2241,2.3125,2.3935,2.479,2.5494,2.5494,2.5495,2.5507,2.5507,2.5507,2.5507,2.5507,2.5507,2.5507,2.5507,2.5507,2.5507,2.5507,2.5507,2.5507,2.5507,2.5507,2.5662,2.6223,2.6339,2.6605,2.7477,2.811,2.8608,2.8816,2.9376,2.9525,2.8898,2.828,2.7898,2.7898,2.7764,2.7936,2.8549,2.8417,2.8556,2.9125,2.8981,2.8366,2.7288,2.6927,2.6737,2.6739,2.6715,2.6635,2.6553,2.7352,2.7873,2.8114,2.8728,2.9074,1.6737,1.7891,1.9229,2.0032,2.1064,2.2095,2.295,0.0,2.3808,2.449,2.4689,2.4806,2.4949,2.5107,2.5219,2.5222,2.5298,2.4937,2.379,2.3617,2.2985,2.1298,2.1089,2.0892,2.0392,2.0337,2.0365,2.0403,2.0408,2.0409,2.045,2.0472,2.0505,2.053,2.058,2.0603,2.0601,2.0601,2.0602,2.0603,2.0566,2.0566,2.0566,2.0585,2.0585,2.0566,2.0521,2.0493,2.0491,2.0498,2.0485,2.0453,2.0453,2.0673,2.1079,2.1874,2.2721,2.3595,2.4426,2.5057,2.5507,2.5507,2.5507,2.5507,2.5507,2.5507,2.5507,2.5507,2.5507,2.5507,2.5507,2.5507,2.5507,2.5507,2.5507,2.5507,2.5507,2.5758,2.6126,2.6609,2.6988,2.7501,2.8376,2.8927,2.9356,2.964,3.0125,3.0238,2.9648,2.91,2.8738,2.8708,2.8585,2.8724,2.9246,2.9112,2.9221,2.9748,2.9626,2.9073,2.8063,2.769,2.7503,2.7503,2.7503,2.7457,2.7371,2.8207,2.8616,2.8635,2.9063,2.9218,1.7441,1.852,1.9755,2.1402,2.2011,2.2407,2.307,2.3852,2.449,2.4684,2.4719,2.4811,2.5086,2.5135,2.5189,2.5365,2.5339,2.4716,2.3114,2.2825,2.2173,2.0501,2.0308,2.0337,2.0402,2.0407,2.0408,2.0414,2.0418,2.0434,2.0501,2.0509,2.0536,2.0602,2.0604,2.0604,2.0602,2.0602,2.0604,2.0586,2.0525,2.0499,2.0494,2.0565,2.0546,2.05,2.0496,2.0497,2.0489,2.0489,2.0449,2.0393,2.0393,2.0923,2.1804,2.2594,2.3441,2.4312,2.5201,2.5507,2.5507,2.5507,2.5507,2.5507,2.5507,2.5507,2.5526,2.5584,2.5604,2.5623,2.5704,2.5739,2.5739,2.5739,2.5662,2.5623,2.5704,2.63,2.6837,2.6915,2.7574,2.8391,2.9255,2.9356,2.9557,3.0265,3.0365,3.0305,3.0109,3.0087,3.0037,2.9918,2.9886,2.9869,2.9869,2.9698,2.958,2.958,2.9471,2.9396,2.9396,2.8635,2.8226,2.8226,2.8226,2.8226,2.8226,2.8996,2.9376,2.9376,2.9186,2.9122,1.6787,1.8035,1.9595,2.1418,2.2938,2.3874,2.3524,2.4069,2.4685,2.4825,2.4949,2.509,2.5293,2.5337,2.536,2.5397,2.4827,2.404,2.3037,2.2304,2.1499,2.0504,2.0374,2.04,2.0476,2.0482,2.0477,2.0485,2.0486,2.0514,2.0565,2.0585,2.0585,2.0605,2.0605,2.0605,2.0605,2.0605,2.0566,2.0521,2.0518,2.0509,2.0509,2.0516,2.0486,2.0414,2.0422,2.0412,2.0424,2.0424,2.0416,2.0404,2.0404,2.092,2.1804,2.2594,2.3441,2.4312,2.5201,2.5507,2.5507,2.5507,2.5507,2.5507,2.5507,2.5507,2.5623,2.6261,2.6435,2.6609,2.7271,2.7452,2.7453,2.7453,2.6945,2.6629,2.731,2.7606,2.7917,2.8613,2.8845,2.9211,3.0015,3.0158,3.0152,3.0171,3.0157,3.0102,2.9954,2.9931,2.9934,2.9902,2.9769,2.9653,2.9653,2.9531,2.945,2.945,2.9427,2.9396,2.9396,2.9211,2.9118,2.9118,2.9118,2.9118,2.9118,2.9148,2.9163,2.9163,2.913,2.9258,1.7078,1.8298,1.9627,2.1021,2.2388,2.3325,2.2994,2.3642,2.4461,2.4942,2.5096,2.5208,2.5374,2.5391,2.5404,2.5404,2.4698,2.3856,2.3029,2.2188,2.1332,2.05,2.0428,2.046,2.0497,2.0499,2.0509,2.0543,2.0544,2.0565,2.0605,2.0605,2.0605,2.0605,2.0605,2.0586,2.0544,2.0544,2.0539,2.0501,2.047,2.0443,2.0458,2.0443,2.0422,2.0398,2.041,2.0396,2.0402,2.0402,2.0402,2.044,2.0869,2.1549,2.2381,2.3213,2.406,2.4892,2.5333,2.5507,2.5484,2.5436,2.5448,2.5484,2.5417,2.5719,2.616,2.6577,2.6998,2.7419,2.7835,2.7957,2.8029,2.834,2.7841,2.7401,2.785,2.829,2.869,2.9038,2.9429,2.9772,3.0107,3.0157,3.0135,3.0022,3.0,2.9946,2.9786,2.976,2.9734,2.9663,2.957,2.9502,2.9502,2.945,2.9396,2.9396,2.9396,2.9396,2.9396,2.9396,2.9396,2.9396,2.9396,2.9396,2.9396,2.9294,2.9381,2.9619,2.9555,2.975,1.7187,1.8551,1.9704,2.0607,2.1517,2.2199,2.2161,2.2957,2.3945,2.4835,2.5133,2.5274,2.5382,2.5297,2.5193,2.5193,2.4389,2.3517,2.2785,2.2003,2.1228,2.05,2.0471,2.0498,2.0518,2.0519,2.0542,2.0605,2.0605,2.0605,2.0605,2.0605,2.0586,2.0586,2.0586,2.0564,2.0492,2.0491,2.0481,2.0471,2.0428,2.0396,2.0402,2.0402,2.0405,2.0403,2.0407,2.0402,2.0402,2.0556,2.0614,2.0711,2.1569,2.24,2.3213,2.3925,2.4757,2.5507,2.5507,2.5507,2.548,2.5372,2.5408,2.5495,2.5537,2.608,2.6743,2.7016,2.7605,2.8174,2.8244,2.8242,2.8387,2.8938,2.8642,2.8255,2.8266,2.881,2.9264,2.9104,2.9639,3.0107,2.9927,2.9899,2.9886,2.9853,2.9853,2.9842,2.9786,2.9645,2.9587,2.9603,2.9471,2.9396,2.9396,2.9396,2.9452,2.9601,2.9601,2.9657,2.9805,2.9675,2.9601,2.9601,2.9471,2.9386,2.9355,2.9453,2.971,3.0064,3.0103,3.0315,1.5533,1.7622,1.975,2.0741,2.1589,2.2085,2.1618,2.2216,2.3146,2.4129,2.4898,2.538,2.5393,2.4834,2.4366,2.4366,2.3043,2.1995,2.1878,2.1165,2.0618,2.0506,2.0491,2.0518,2.0585,2.0586,2.0586,2.0605,2.0605,2.0605,2.0605,2.0605,2.0566,2.0518,2.0518,2.0511,2.0506,2.0506,2.0469,2.0409,2.0408,2.0392,2.0402,2.0392,2.0395,2.0395,2.0405,2.0402,2.046,2.1201,2.1533,2.1611,2.242,2.3271,2.4041,2.4157,2.4757,2.5507,2.5507,2.5507,2.5507,2.548,2.5452,2.5556,2.6281,2.6601,2.6978,2.8249,2.87,2.8925,2.9553,2.9679,2.9661,2.9741,2.9696,2.9646,2.9713,2.9775,2.9802,2.9779,2.9863,2.9934,2.991,2.9902,2.9845,2.9672,2.9644,2.9833,3.04,2.9847,2.9688,3.0373,2.9824,2.9396,2.9396,2.9396,2.9694,3.04,3.0437,3.0753,3.144,3.0809,3.0437,3.0437,2.975,2.9304,2.9152,2.9667,2.979,2.9516,3.0202,3.0736,1.6591,1.7953,1.9157,2.0057,2.0657,2.1094,2.1345,2.1756,2.2501,2.3902,2.4474,2.4877,2.536,2.4362,2.363,2.4125,2.2779,2.1704,2.1749,2.1032,2.0491,2.0499,2.0525,2.0566,2.0604,2.0605,2.0605,2.0605,2.0605,2.0605,2.0605,2.0565,2.0521,2.0496,2.0505,2.0485,2.0449,2.0449,2.0424,2.0408,2.0398,2.0402,2.0402,2.0402,2.0402,2.0402,2.0402,2.0672,2.1162,2.1533,2.1978,2.2458,2.331,2.386,2.4258,2.4703,2.512,2.5436,2.5436,2.5382,2.5327,2.5283,2.5548,2.5907,2.6268,2.7045,2.7956,2.8559,2.9072,2.9534,2.9859,2.9915,2.9875,2.9767,2.9732,2.9725,2.9681,2.9794,2.9867,2.9748,2.9672,2.9626,2.9626,2.9992,3.0254,3.0165,3.0536,3.0953,3.1229,3.0957,3.0883,3.1236,3.0957,3.0734,3.0734,3.0734,3.0902,3.1255,3.1273,3.144,3.1794,3.1346,3.1103,3.1103,3.029,2.9802,2.9711,3.0243,3.0567,3.0692,3.0978,3.1317,1.7146,1.7888,1.8393,1.9236,1.9775,2.0291,2.0967,2.1375,2.2054,2.3557,2.3885,2.4228,2.5309,2.4089,2.314,2.3797,2.2673,2.1666,2.1495,2.1118,2.0778,2.0544,2.0566,2.0602,2.0601,2.0603,2.0584,2.0582,2.0564,2.0565,2.0563,2.0535,2.0486,2.0481,2.0461,2.0447,2.0398,2.0398,2.0394,2.0376,2.0376,2.0373,2.037,2.037,2.0505,2.0698,2.0492,2.0885,2.1697,2.191,2.2487,2.3292,2.4161,2.4485,2.4529,2.5127,2.5331,2.5293,2.5293,2.5372,2.5451,2.5399,2.5888,2.6524,2.6699,2.7646,2.8696,2.882,2.9323,2.9826,2.9777,2.976,2.9744,2.9589,2.9551,2.9513,2.9419,2.9598,2.9735,2.958,2.9639,2.9694,2.9694,3.0363,3.0902,3.0902,3.1422,3.1868,3.2072,3.1924,3.1886,3.2072,3.1924,3.1794,3.1794,3.1794,3.1886,3.2091,3.2064,3.2122,3.2326,3.1894,3.1646,3.1646,3.0921,3.0445,3.0313,3.0803,3.1219,3.1495,3.1598,3.1791,1.5655,1.6633,1.7598,1.8514,1.9435,2.0152,2.0311,2.1059,2.1936,2.2787,2.302,2.3567,2.5207,2.4133,2.3006,2.3058,2.2352,2.1509,2.069,2.1287,2.1523,2.0683,2.0604,2.0604,2.0602,2.0601,2.0579,2.051,2.051,2.0504,2.0506,2.0503,2.0467,2.0409,2.0405,2.0395,2.0408,2.0405,2.036,2.0308,2.0308,2.0318,2.0317,2.0317,2.076,2.1497,2.0737,2.0853,2.1666,2.2504,2.3308,2.4118,2.5009,2.526,2.5146,2.5184,2.5132,2.5019,2.5019,2.552,2.6147,2.614,2.6676,2.7475,2.8241,2.8529,2.8747,2.937,2.9588,2.958,2.947,2.9438,2.9409,2.9399,2.9417,2.9417,2.9407,2.9399,2.9409,2.9399,3.002,3.053,3.053,3.1199,3.1738,3.1738,3.1775,3.2072,3.2853,3.2277,3.2091,3.2871,3.2258,3.1794,3.1794,3.1794,3.2128,3.289,3.2767,3.3005,3.376,3.2666,3.2075,3.2075,3.1655,3.1159,3.0589,3.1181,3.1288,3.0976,3.1725,3.1984,1.5414,1.6186,1.6801,1.7643,1.8667,1.9472,1.9519,2.0656,2.1933,2.2793,2.3426,2.4204,2.5403,2.3775,2.2406,2.2962,2.1882,2.0875,2.0605,2.0859,2.0932,2.0588,2.0545,2.0517,2.0476,2.0462,2.0464,2.0435,2.044,2.044,2.0432,2.0439,2.041,2.0393,2.0355,2.0341,2.0334,2.0344,2.0324,2.0308,2.0308,2.0304,2.0297,2.0297,2.0724,2.1451,2.1176,2.1814,2.3059,2.2814,2.3482,2.4717,2.5023,2.5084,2.5005,2.5005,2.4981,2.5011,2.5536,2.5844,2.6095,2.6615,2.7259,2.7894,2.8193,2.8671,2.9167,2.9398,2.9471,2.9461,2.9399,2.9396,2.9396,2.9396,2.9787,3.0158,3.0158,3.0158,3.0158,3.0158,3.0827,3.1366,3.1366,3.2035,3.2574,3.2574,3.302,3.3436,3.3733,3.3522,3.3436,3.3733,3.351,3.3336,3.3336,3.3216,3.3272,3.3567,3.3268,3.3199,3.3504,3.2853,3.2498,3.2498,3.2099,3.1644,3.1169,3.1662,3.1812,3.1672,3.1826,3.1873,1.504,0.0,0.0,1.7243,1.8064,1.8812,1.9371,2.0424,2.1598,2.2768,2.3703,2.462,2.5533,2.4033,2.2766,2.3044,2.1893,2.0879,2.0598,2.0829,2.0878,2.0513,2.0467,2.0453,2.0402,2.0392,2.0396,2.0407,2.0396,2.0396,2.0363,2.036,2.0371,2.0365,2.0321,2.0297,2.0297,2.0311,2.0308,2.0306,2.0306,2.0303,2.0295,2.0246,2.0809,2.1785,2.1444,2.2255,2.3785,2.3206,2.3767,2.4968,2.4968,2.4903,2.4823,2.4823,2.4799,2.4885,2.5687,2.6078,2.6371,2.7166,2.7923,2.8542,2.8542,2.8932,2.9396,2.9396,2.9396,2.9396,2.9396,2.9601,2.9805,2.9805,3.0418,3.0995,3.0995,3.0995,3.0995,3.0995,3.1645,3.2202,3.2202,3.2871,3.341,3.341,3.3863,3.4197,3.4197,3.4197,3.4197,3.4197,3.4136,3.4099,3.4099,3.3972,3.3881,3.3855,3.3508,3.3291,3.3276,3.2782,3.2505,3.2505,3.2161,3.1865,3.1597,3.1865,3.2001,3.2,3.1873,3.18,0.0,0.0,0.0,0.0,1.7644,1.8194,1.9854,2.0299,2.0869,2.2605,2.3707,2.4638,2.5499,2.4961,2.4114,2.3277,2.2457,2.1612,2.0694,2.1278,2.1461,2.0571,2.0446,2.0424,2.0434,2.0434,2.0422,2.0394,2.0391,2.0374,2.0308,2.0305,2.0295,2.0294,2.0294,2.0294,2.0294,2.0294,2.0303,2.0304,2.0304,2.0308,2.0338,2.0192,2.1057,2.2563,2.1584,2.2136,2.3721,2.3702,2.4169,2.4888,2.4888,2.4816,2.4692,2.4692,2.4634,2.4648,2.5466,2.6256,2.7074,2.7873,2.8709,2.9396,2.9396,2.9396,2.9396,2.9396,2.9396,2.9407,2.9434,3.001,3.0604,3.0623,3.1255,3.1849,3.1849,3.1849,3.1868,3.1849,3.25,3.3039,3.3039,3.3677,3.4197,3.4197,3.4197,3.4197,3.4197,3.4197,3.4185,3.4185,3.4011,3.3881,3.3881,3.3868,3.3842,3.3762,3.3451,3.3247,3.3169,3.247,3.209,3.209,3.191,3.18,3.18,3.18,3.18,3.18,3.18,3.18,1.4537,0.0,0.0,0.0,0.0,0.0,1.8233,1.8998,1.9975,2.1759,2.2834,2.3724,2.4609,2.4521,2.4244,2.4006,2.3242,2.2585,2.2284,2.193,2.1855,2.2178,2.1649,2.1243,2.1192,2.1238,2.101,2.0381,2.0337,2.0314,2.0303,2.0307,2.0296,2.0308,2.0304,2.0304,2.0308,2.0304,2.03,2.03,2.03,2.054,2.1029,2.0981,2.1783,2.3171,2.2877,2.3345,2.4238,2.3694,2.3923,2.4604,2.4604,2.4599,2.4568,2.4568,2.4896,2.5485,2.6293,2.7092,2.791,2.8765,2.9192,2.9396,2.9396,2.9396,2.9396,2.9396,2.9396,2.9527,3.0121,3.0437,3.0753,3.1329,3.2072,3.2667,3.2667,3.3131,3.3361,3.2778,3.3324,3.3863,3.3863,3.4048,3.4185,3.4136,3.4124,3.4124,3.4124,3.3998,3.3934,3.3972,3.3788,3.3611,3.348,3.3335,3.3172,3.3016,3.2636,3.242,3.2403,3.2055,3.1874,3.1874,3.1837,3.18,3.18,3.18,3.18,3.18,3.18,3.18,0.0,0.0,0.0,0.0,0.0,0.0,1.7987,1.8222,1.8694,2.0824,2.1674,2.2304,2.3157,2.3588,2.3908,2.4207,2.3825,2.3359,2.2969,2.2498,2.2362,2.2813,2.24,2.1937,2.1547,2.1536,2.122,2.0361,2.0295,2.0295,2.0304,2.03,2.0308,2.0308,2.03,2.0304,2.0308,2.0304,2.0265,2.0216,2.0553,2.0891,2.1236,2.154,2.2318,2.3397,2.3336,2.3777,2.4471,2.4043,2.4102,2.45,2.45,2.45,2.45,2.45,2.502,2.5819,2.6609,2.7427,2.8244,2.9118,2.9396,2.9396,2.9396,2.9396,2.9396,2.9396,2.9638,3.001,3.0474,3.1106,3.1719,3.2184,3.2927,3.3491,3.3491,3.3863,3.4048,3.3584,3.3881,3.4197,3.4197,3.4197,3.4185,3.4148,3.4074,3.4023,3.4023,3.3829,3.3712,3.3648,3.3469,3.3265,3.3081,3.2941,3.2816,3.267,3.2386,3.2197,3.2179,3.1929,3.18,3.18,3.18,3.18,3.18,3.18,3.18,3.18,3.18,3.18,1.4551,1.499,0.0,0.0,1.592,0.0,1.8334,1.7738,1.7369,1.9737,2.0273,2.0581,2.1497,2.2363,2.3188,2.3934,2.413,2.3949,2.3261,2.3087,2.3045,2.3075,2.3009,2.2605,2.1735,2.1639,2.1262,2.0377,2.03,2.03,2.0304,2.03,2.0308,2.0308,2.0308,2.0308,2.0308,2.03,2.0255,2.0241,2.0937,2.1301,2.1374,2.2024,2.2761,2.3524,2.339,2.3776,2.45,2.45,2.45,2.45,2.45,2.45,2.4518,2.4592,2.515,2.5949,2.6739,2.7557,2.8374,2.9155,2.9396,2.9396,2.9396,2.9396,2.9396,2.9396,2.9973,3.0623,3.0716,3.1868,3.3008,3.3101,3.3677,3.4197,3.4197,3.4185,3.4173,3.4173,3.4185,3.4197,3.4173,3.4173,3.4161,3.4093,3.3947,3.3829,3.3815,3.3643,3.3459,3.3258,3.3065,3.2864,3.2653,3.2636,3.2605,3.2522,3.2403,3.23,3.2249,3.1965,3.18,3.18,3.18,3.18,3.18,3.18,3.18,3.18,3.18,3.18,1.4824,1.5824,1.6736,1.5692,1.6386,0.0,1.7199,1.6928,1.7041,1.8242,1.8492,1.8972,2.0477,2.1414,2.2228,2.304,2.3705,2.4287,2.4754,2.4263,2.4104,2.4736,2.424,2.349,2.2624,2.2547,2.1912,2.0412,2.0296,2.0304,2.0304,2.03,2.0308,2.0308,2.0308,2.0308,2.0308,2.0199,2.0446,2.1061,2.1124,2.1777,2.2954,2.3094,2.3587,2.4273,2.4266,2.4351,2.45,2.45,2.45,2.45,2.45,2.45,2.4574,2.5224,2.5987,2.6776,2.7594,2.843,2.9174,2.9341,2.9396,2.9396,2.9396,2.9396,2.9396,2.9396,2.9973,3.0753,3.1403,3.2277,3.3169,3.3807,3.4086,3.4197,3.4197,3.4074,3.3959,3.3959,3.4086,3.4148,3.3985,3.3959,3.3823,3.3443,3.3361,3.3317,3.3262,3.3114,3.299,3.2908,3.2766,3.2538,3.2232,3.2232,3.2126,3.1965,3.1929,3.1911,3.1893,3.1819,3.18,3.18,3.18,3.18,3.18,3.18,3.18,3.18,3.18,3.18,1.4873,1.5405,1.6094,1.59,1.6193,0.0,0.0,1.6644,1.6422,1.773,1.7649,1.7716,1.8936,1.9837,2.0676,2.1473,2.2268,2.2947,2.3346,2.4159,2.4851,2.525,2.4947,2.437,2.3528,2.3451,2.274,2.1019,2.0538,2.0292,2.0304,2.0296,2.0308,2.0308,2.0308,2.0269,2.0203,2.0135,2.0449,2.1158,2.1482,2.2222,2.3308,2.3753,2.4149,2.45,2.45,2.45,2.45,2.45,2.45,2.45,2.45,2.45,2.4592,2.541,2.62,2.7018,2.7817,2.8672,2.9396,2.9396,2.9396,2.9396,2.9396,2.9396,2.9396,2.9396,3.027,3.1292,3.1701,3.2704,3.3696,3.4104,3.4124,3.4049,3.4049,3.3895,3.3753,3.3753,3.3829,3.3868,3.3766,3.3753,3.3694,3.3522,3.3335,3.3202,3.3202,3.2943,3.2688,3.2521,3.2403,3.2232,3.1965,3.1947,3.191,3.1818,3.18,3.18,3.18,3.18,3.18,3.18,3.2162,3.2352,3.2352,3.2748,3.2731,3.2334,3.1972,3.199,1.5078,1.5146,1.5527,1.6316,1.6266,1.6283,0.0,0.0,0.0,1.7237,1.6939,1.6667,1.7408,1.813,1.8921,1.9888,2.0735,2.1331,2.1485,2.3423,2.4769,2.4596,2.4712,2.4562,2.3913,2.3567,2.2855,2.16,2.06,2.0119,2.0288,2.0308,2.0308,2.0308,2.0273,2.0208,2.0093,2.0222,2.0594,2.1245,2.2016,2.2764,2.3471,2.4175,2.45,2.45,2.45,2.45,2.45,2.45,2.45,2.45,2.45,2.45,2.4611,2.5578,2.633,2.7037,2.8003,2.8802,2.9396,2.9396,2.9376,2.9336,2.9336,2.9336,2.9373,2.9582,3.0679,3.1849,3.1998,3.3101,3.4185,3.4148,3.4023,3.3881,3.3842,3.3684,3.3516,3.3516,3.3459,3.343,3.3473,3.3473,3.3488,3.3465,3.3202,3.3003,3.3032,3.2734,3.2421,3.2179,3.2108,3.2019,3.1818,3.18,3.18,3.18,3.18,3.18,3.18,3.18,3.1869,3.2007,3.2593,3.299,3.3128,3.3766,3.3785,3.311,3.2352,3.2403,1.5844,1.6559,1.7156,1.6631,1.7583,1.8136,1.6143,0.0,1.6384,1.5802,0.0,1.5691,1.6493,0.0,0.0,1.8897,1.9877,2.0692,2.1408,2.2408,2.2793,2.2023,2.2601,2.3047,2.2951,2.16,2.0946,2.1466,2.0046,1.9488,2.025,2.0308,2.0308,2.0308,2.0171,2.0122,2.0093,2.0624,2.1297,2.2063,2.2752,2.3525,2.4369,2.4444,2.45,2.45,2.45,2.45,2.45,2.45,2.45,2.45,2.45,2.45,2.4685,2.62,2.6814,2.713,2.8709,2.9322,2.9396,2.9396,2.9272,2.9123,2.9123,2.9123,2.9322,3.0208,3.1106,3.1961,3.2685,3.3528,3.4161,3.3972,3.3908,3.3842,3.3671,3.3444,3.325,3.325,3.2959,3.2784,3.3021,3.3068,3.2896,3.2369,3.2301,3.2249,3.2074,3.2179,3.2179,3.1966,3.202,3.2019,3.1818,3.18,3.18,3.18,3.18,3.18,3.18,3.18,3.211,3.2766,3.2869,3.3248,3.3975,3.4061,3.4061,3.3941,3.3145,3.3197,1.5964,1.6408,1.6915,1.718,1.7442,1.7396,1.6377,1.6051,1.5975,1.6072,0.0,0.0,0.0,0.0,0.0,0.0,1.9001,1.9495,1.9372,2.0061,2.1016,2.2124,2.2586,2.2797,2.2797,2.1273,2.0635,2.1446,1.995,1.9373,2.025,2.0308,2.0264,2.0195,2.058,2.0743,2.063,2.1342,2.2057,2.277,2.3068,2.3657,2.45,2.45,2.45,2.45,2.45,2.45,2.45,2.45,2.45,2.4491,2.4357,2.468,2.5336,2.6479,2.7204,2.7751,2.8855,2.9229,2.9207,2.91,2.8991,2.8964,2.9055,2.9089,2.9318,3.032,3.118,3.1957,3.2655,3.3414,3.3972,3.378,3.3611,3.3465,3.3401,3.3193,3.2993,3.288,3.2719,3.2573,3.2506,3.2538,3.2555,3.2421,3.2387,3.2318,3.2214,3.2197,3.2126,3.1912,3.1929,3.1892,3.1818,3.18,3.18,3.18,3.18,3.199,3.2421,3.2438,3.28,3.3576,3.4024,3.4404,3.4731,3.5163,3.537,3.5335,3.4145,3.3766,1.6599,1.674,1.6893,1.762,1.7376,1.6843,1.6431,1.6207,1.6188,1.6521,1.6475,0.0,0.0,0.0,0.0,0.0,0.0,1.8905,1.8532,1.8773,1.9606,2.12,2.2028,2.2447,2.2447,2.1139,2.0635,2.1446,1.995,1.9469,2.0577,2.0384,2.0414,2.0781,2.1067,2.1247,2.1327,2.2083,2.2711,2.3203,2.3452,2.3888,2.45,2.45,2.45,2.45,2.45,2.45,2.45,2.4437,2.442,2.4421,2.4459,2.5039,2.5967,2.6558,2.728,2.8073,2.8772,2.9021,2.8998,2.8851,2.8797,2.8839,2.9044,2.9221,2.9559,3.0565,3.1372,3.2084,3.2776,3.338,3.3748,3.3545,3.3339,3.3175,3.3068,3.293,3.2753,3.2573,3.2489,3.2387,3.2144,3.2179,3.2284,3.237,3.2353,3.2318,3.2231,3.2179,3.2055,3.1893,3.1838,3.18,3.18,3.18,3.1886,3.2093,3.2093,3.2438,3.3197,3.3231,3.3593,3.4407,3.4921,3.5283,3.549,3.5958,3.6053,3.5809,3.4747,3.4369,1.8258,1.8244,1.7757,1.7797,1.782,1.7431,1.5813,1.6679,1.7583,1.6778,1.7923,1.8836,1.8019,1.7799,0.0,0.0,0.0,0.0,0.0,1.9522,1.8722,1.7953,2.0042,2.1543,2.1543,2.0788,2.0635,2.1446,1.995,1.9719,2.137,2.0593,2.0857,2.2465,2.1538,2.1383,2.2157,2.2837,2.3184,2.3203,2.4063,2.4462,2.45,2.45,2.45,2.45,2.45,2.45,2.4491,2.4294,2.421,2.4265,2.4915,2.5666,2.6381,2.6418,2.6936,2.7739,2.8523,2.8815,2.8815,2.8797,2.8797,2.8839,2.9044,2.952,3.0184,3.1183,3.1865,3.2479,3.3364,3.3601,3.3545,3.328,3.3205,3.3099,3.2703,3.2605,3.2538,3.2352,3.2197,3.2108,3.209,3.209,3.2037,3.1838,3.1875,3.1893,3.1819,3.1875,3.1893,3.1818,3.18,3.18,3.18,3.18,3.2093,3.2817,3.2869,3.3214,3.4027,3.4061,3.4424,3.5145,3.518,3.5542,3.6266,3.5963,3.5414,3.4644,3.4593,3.5006,1.7464,1.7867,1.7799,1.7807,1.7855,1.7612,1.6512,1.7147,1.7551,1.6093,1.7617,1.8736,1.7252,0.0,0.0,0.0,0.0,0.0,0.0,1.7867,1.7452,1.7735,1.8995,1.9854,1.9854,1.9604,1.9546,1.9835,1.9319,1.9466,2.0512,2.0786,2.1094,2.1532,2.2231,2.2686,2.2848,2.3653,2.4063,2.4063,2.4369,2.45,2.45,2.45,2.45,2.45,2.45,2.442,2.4303,2.4229,2.4106,2.401,2.4617,2.5314,2.602,2.6741,2.7513,2.8227,2.841,2.8505,2.8531,2.8427,2.8479,2.8619,2.8682,2.9225,3.001,3.1018,3.1772,3.2461,3.3169,3.3265,3.3162,3.2979,3.277,3.2605,3.2539,3.2472,3.237,3.2197,3.2126,3.2055,3.1911,3.191,3.1892,3.1818,3.1857,3.1875,3.1818,3.1857,3.1875,3.1818,3.18,3.18,3.18,3.2248,3.2852,3.3628,3.368,3.4024,3.4783,3.4818,3.5163,3.5904,3.5921,3.5937,3.598,3.5871,3.552,3.4998,3.4787,3.467,1.7125,1.7497,1.7379,1.737,1.7427,1.7268,1.6433,1.7148,1.7665,1.6533,1.8051,1.9224,1.8077,1.8262,0.0,0.0,0.0,0.0,0.0,1.7224,1.7106,1.7693,1.8498,1.9111,1.9431,1.9162,1.9085,1.9365,1.9123,1.9409,2.0431,2.0953,2.1428,2.1891,2.2825,2.343,2.3657,2.4212,2.45,2.45,2.45,2.45,2.45,2.442,2.4393,2.4393,2.4348,2.4229,2.4049,2.3971,2.3982,2.4098,2.4718,2.54,2.6096,2.6795,2.7561,2.821,2.8142,2.8187,2.8242,2.8164,2.8255,2.8427,2.8461,2.9192,3.0152,3.0753,3.1642,3.2493,3.2865,3.2848,3.2736,3.269,3.2489,3.2301,3.2353,3.2301,3.2179,3.2019,3.1983,3.1947,3.1818,3.18,3.18,3.18,3.1838,3.1839,3.1818,3.1838,3.1942,3.2181,3.2179,3.23,3.2576,3.3041,3.3662,3.4438,3.4493,3.4818,3.5559,3.549,3.565,3.6114,3.5985,3.581,3.5588,3.547,3.5287,3.5015,3.465,3.4331]}]]